<?xml version="1.0" encoding="UTF-8" standalone="no" ?>
<gpx xmlns="http://www.topografix.com/GPX/1/1" xmlns:xsi="http://www.w3.org/2001/XMLSchema-instance" xsi:schemaLocation="http://www.topografix.com/GPX/1/1 http://www.topografix.com/GPX/1/1/gpx.xsd" version="1.1" creator="VisuGPX - https://www.visugpx.com">
  <metadata>
    <name>Plaines Magny</name>
    <desc><![CDATA[Total: 18.4km]]></desc>
  </metadata>
  <trk>
    <name><![CDATA[Plaines Magny]]></name>
    <desc><![CDATA[Total: 18.4km]]></desc>
    <trkseg>
      <trkpt lat="48.74377" lon="2.06229">
        <ele>178.25</ele>
        <time>2020-02-20T08:51:58Z</time>
      </trkpt>
      <trkpt lat="48.74378" lon="2.0623">
        <ele>178.18</ele>
        <time>2020-02-20T08:51:59Z</time>
      </trkpt>
      <trkpt lat="48.74381" lon="2.06234">
        <ele>147.41</ele>
        <time>2020-02-20T08:52:03Z</time>
      </trkpt>
      <trkpt lat="48.74382" lon="2.06234">
        <ele>147.36</ele>
        <time>2020-02-20T08:52:04Z</time>
      </trkpt>
      <trkpt lat="48.74392" lon="2.06242">
        <ele>147.39</ele>
        <time>2020-02-20T08:52:13Z</time>
      </trkpt>
      <trkpt lat="48.74398" lon="2.06252">
        <ele>144.97</ele>
        <time>2020-02-20T08:52:22Z</time>
      </trkpt>
      <trkpt lat="48.74403" lon="2.06258">
        <ele>143.79</ele>
        <time>2020-02-20T08:52:28Z</time>
      </trkpt>
      <trkpt lat="48.74406" lon="2.06266">
        <ele>140.86</ele>
        <time>2020-02-20T08:52:36Z</time>
      </trkpt>
      <trkpt lat="48.74414" lon="2.06278">
        <ele>138.61</ele>
        <time>2020-02-20T08:52:46Z</time>
      </trkpt>
      <trkpt lat="48.74415" lon="2.0628">
        <ele>138.6</ele>
        <time>2020-02-20T08:52:47Z</time>
      </trkpt>
      <trkpt lat="48.7442" lon="2.06287">
        <ele>136.69</ele>
        <time>2020-02-20T08:52:54Z</time>
      </trkpt>
      <trkpt lat="48.74425" lon="2.06296">
        <ele>135.28</ele>
        <time>2020-02-20T08:53:01Z</time>
      </trkpt>
      <trkpt lat="48.74426" lon="2.06297">
        <ele>135.28</ele>
        <time>2020-02-20T08:53:02Z</time>
      </trkpt>
      <trkpt lat="48.74427" lon="2.06303">
        <ele>135.27</ele>
        <time>2020-02-20T08:53:05Z</time>
      </trkpt>
      <trkpt lat="48.74433" lon="2.06318">
        <ele>134.25</ele>
        <time>2020-02-20T08:53:15Z</time>
      </trkpt>
      <trkpt lat="48.74435" lon="2.06321">
        <ele>132.77</ele>
        <time>2020-02-20T08:53:17Z</time>
      </trkpt>
      <trkpt lat="48.74441" lon="2.06329">
        <ele>130.78</ele>
        <time>2020-02-20T08:53:25Z</time>
      </trkpt>
      <trkpt lat="48.74445" lon="2.06339">
        <ele>129.78</ele>
        <time>2020-02-20T08:53:32Z</time>
      </trkpt>
      <trkpt lat="48.7445" lon="2.06348">
        <ele>128.94</ele>
        <time>2020-02-20T08:53:39Z</time>
      </trkpt>
      <trkpt lat="48.74453" lon="2.06357">
        <ele>127.67</ele>
        <time>2020-02-20T08:53:45Z</time>
      </trkpt>
      <trkpt lat="48.74457" lon="2.06364">
        <ele>126.64</ele>
        <time>2020-02-20T08:53:50Z</time>
      </trkpt>
      <trkpt lat="48.7446" lon="2.06374">
        <ele>126.64</ele>
        <time>2020-02-20T08:53:57Z</time>
      </trkpt>
      <trkpt lat="48.74463" lon="2.06379">
        <ele>125.84</ele>
        <time>2020-02-20T08:54:00Z</time>
      </trkpt>
      <trkpt lat="48.7447" lon="2.0639">
        <ele>123.89</ele>
        <time>2020-02-20T08:54:10Z</time>
      </trkpt>
      <trkpt lat="48.74486" lon="2.06403">
        <ele>123.12</ele>
        <time>2020-02-20T08:54:24Z</time>
      </trkpt>
      <trkpt lat="48.74489" lon="2.06405">
        <ele>121.84</ele>
        <time>2020-02-20T08:54:27Z</time>
      </trkpt>
      <trkpt lat="48.74501" lon="2.06416">
        <ele>121.96</ele>
        <time>2020-02-20T08:54:40Z</time>
      </trkpt>
      <trkpt lat="48.74512" lon="2.06428">
        <ele>119.6</ele>
        <time>2020-02-20T08:54:54Z</time>
      </trkpt>
      <trkpt lat="48.74515" lon="2.06432">
        <ele>119.6</ele>
        <time>2020-02-20T08:55:01Z</time>
      </trkpt>
      <trkpt lat="48.74521" lon="2.0644">
        <ele>118.86</ele>
        <time>2020-02-20T08:55:09Z</time>
      </trkpt>
      <trkpt lat="48.74528" lon="2.06448">
        <ele>118.02</ele>
        <time>2020-02-20T08:55:19Z</time>
      </trkpt>
      <trkpt lat="48.7453" lon="2.06452">
        <ele>117.16</ele>
        <time>2020-02-20T08:55:22Z</time>
      </trkpt>
      <trkpt lat="48.74532" lon="2.06455">
        <ele>116.1</ele>
        <time>2020-02-20T08:55:25Z</time>
      </trkpt>
      <trkpt lat="48.74544" lon="2.06465">
        <ele>116.09</ele>
        <time>2020-02-20T08:55:37Z</time>
      </trkpt>
      <trkpt lat="48.7455" lon="2.06471">
        <ele>114.85</ele>
        <time>2020-02-20T08:55:43Z</time>
      </trkpt>
      <trkpt lat="48.74556" lon="2.06478">
        <ele>114.85</ele>
        <time>2020-02-20T08:55:50Z</time>
      </trkpt>
      <trkpt lat="48.74558" lon="2.0648">
        <ele>116.47</ele>
        <time>2020-02-20T08:55:56Z</time>
      </trkpt>
      <trkpt lat="48.74563" lon="2.06485">
        <ele>113.94</ele>
        <time>2020-02-20T08:56:02Z</time>
      </trkpt>
      <trkpt lat="48.74569" lon="2.06492">
        <ele>112.85</ele>
        <time>2020-02-20T08:56:09Z</time>
      </trkpt>
      <trkpt lat="48.74571" lon="2.06496">
        <ele>112.68</ele>
        <time>2020-02-20T08:56:12Z</time>
      </trkpt>
      <trkpt lat="48.74578" lon="2.06502">
        <ele>111.74</ele>
        <time>2020-02-20T08:56:20Z</time>
      </trkpt>
      <trkpt lat="48.74587" lon="2.06511">
        <ele>111.68</ele>
        <time>2020-02-20T08:56:29Z</time>
      </trkpt>
      <trkpt lat="48.74594" lon="2.06516">
        <ele>111.66</ele>
        <time>2020-02-20T08:56:36Z</time>
      </trkpt>
      <trkpt lat="48.746" lon="2.0652">
        <ele>113.71</ele>
        <time>2020-02-20T08:56:42Z</time>
      </trkpt>
      <trkpt lat="48.7461" lon="2.06526">
        <ele>113.53</ele>
        <time>2020-02-20T08:56:53Z</time>
      </trkpt>
      <trkpt lat="48.74616" lon="2.0653">
        <ele>113.61</ele>
        <time>2020-02-20T08:57:03Z</time>
      </trkpt>
      <trkpt lat="48.74618" lon="2.06528">
        <ele>113.64</ele>
        <time>2020-02-20T08:57:06Z</time>
      </trkpt>
      <trkpt lat="48.74628" lon="2.06523">
        <ele>114.45</ele>
        <time>2020-02-20T08:57:14Z</time>
      </trkpt>
      <trkpt lat="48.74633" lon="2.06507">
        <ele>114.32</ele>
        <time>2020-02-20T08:57:24Z</time>
      </trkpt>
      <trkpt lat="48.74634" lon="2.06492">
        <ele>114.09</ele>
        <time>2020-02-20T08:57:33Z</time>
      </trkpt>
      <trkpt lat="48.74639" lon="2.06475">
        <ele>113.96</ele>
        <time>2020-02-20T08:57:42Z</time>
      </trkpt>
      <trkpt lat="48.74643" lon="2.06456">
        <ele>113.96</ele>
        <time>2020-02-20T08:57:51Z</time>
      </trkpt>
      <trkpt lat="48.74647" lon="2.06444">
        <ele>113.85</ele>
        <time>2020-02-20T08:58:00Z</time>
      </trkpt>
      <trkpt lat="48.74655" lon="2.06432">
        <ele>113.74</ele>
        <time>2020-02-20T08:58:10Z</time>
      </trkpt>
      <trkpt lat="48.74657" lon="2.06417">
        <ele>113.71</ele>
        <time>2020-02-20T08:58:18Z</time>
      </trkpt>
      <trkpt lat="48.74659" lon="2.06402">
        <ele>113.57</ele>
        <time>2020-02-20T08:58:25Z</time>
      </trkpt>
      <trkpt lat="48.74661" lon="2.06385">
        <ele>114.5</ele>
        <time>2020-02-20T08:58:34Z</time>
      </trkpt>
      <trkpt lat="48.74663" lon="2.06381">
        <ele>115.86</ele>
        <time>2020-02-20T08:58:36Z</time>
      </trkpt>
      <trkpt lat="48.74671" lon="2.06374">
        <ele>117.49</ele>
        <time>2020-02-20T08:58:45Z</time>
      </trkpt>
      <trkpt lat="48.74671" lon="2.06362">
        <ele>118.35</ele>
        <time>2020-02-20T08:58:54Z</time>
      </trkpt>
      <trkpt lat="48.74673" lon="2.06355">
        <ele>118.19</ele>
        <time>2020-02-20T08:59:01Z</time>
      </trkpt>
      <trkpt lat="48.74675" lon="2.06343">
        <ele>117.97</ele>
        <time>2020-02-20T08:59:11Z</time>
      </trkpt>
      <trkpt lat="48.74677" lon="2.06329">
        <ele>117.89</ele>
        <time>2020-02-20T08:59:19Z</time>
      </trkpt>
      <trkpt lat="48.74675" lon="2.06313">
        <ele>117.8</ele>
        <time>2020-02-20T08:59:28Z</time>
      </trkpt>
      <trkpt lat="48.74672" lon="2.06303">
        <ele>117.69</ele>
        <time>2020-02-20T08:59:37Z</time>
      </trkpt>
      <trkpt lat="48.7468" lon="2.06283">
        <ele>117.72</ele>
        <time>2020-02-20T08:59:47Z</time>
      </trkpt>
      <trkpt lat="48.74684" lon="2.06274">
        <ele>118.83</ele>
        <time>2020-02-20T08:59:52Z</time>
      </trkpt>
      <trkpt lat="48.74691" lon="2.0626">
        <ele>118.75</ele>
        <time>2020-02-20T09:00:02Z</time>
      </trkpt>
      <trkpt lat="48.747" lon="2.06245">
        <ele>119.49</ele>
        <time>2020-02-20T09:00:12Z</time>
      </trkpt>
      <trkpt lat="48.74701" lon="2.06244">
        <ele>119.49</ele>
        <time>2020-02-20T09:00:13Z</time>
      </trkpt>
      <trkpt lat="48.7471" lon="2.06234">
        <ele>120.26</ele>
        <time>2020-02-20T09:00:22Z</time>
      </trkpt>
      <trkpt lat="48.74715" lon="2.06225">
        <ele>121.31</ele>
        <time>2020-02-20T09:00:30Z</time>
      </trkpt>
      <trkpt lat="48.74716" lon="2.06212">
        <ele>121.24</ele>
        <time>2020-02-20T09:00:37Z</time>
      </trkpt>
      <trkpt lat="48.74715" lon="2.06201">
        <ele>121.17</ele>
        <time>2020-02-20T09:00:45Z</time>
      </trkpt>
      <trkpt lat="48.74718" lon="2.0619">
        <ele>122.02</ele>
        <time>2020-02-20T09:00:52Z</time>
      </trkpt>
      <trkpt lat="48.74721" lon="2.06178">
        <ele>121.94</ele>
        <time>2020-02-20T09:01:01Z</time>
      </trkpt>
      <trkpt lat="48.74723" lon="2.06165">
        <ele>121.83</ele>
        <time>2020-02-20T09:01:08Z</time>
      </trkpt>
      <trkpt lat="48.74723" lon="2.06155">
        <ele>121.78</ele>
        <time>2020-02-20T09:01:14Z</time>
      </trkpt>
      <trkpt lat="48.74728" lon="2.06141">
        <ele>121.68</ele>
        <time>2020-02-20T09:01:24Z</time>
      </trkpt>
      <trkpt lat="48.7473" lon="2.06132">
        <ele>121.57</ele>
        <time>2020-02-20T09:01:31Z</time>
      </trkpt>
      <trkpt lat="48.74731" lon="2.06128">
        <ele>119.01</ele>
        <time>2020-02-20T09:01:33Z</time>
      </trkpt>
      <trkpt lat="48.74733" lon="2.06119">
        <ele>116.8</ele>
        <time>2020-02-20T09:01:39Z</time>
      </trkpt>
      <trkpt lat="48.74733" lon="2.06104">
        <ele>115.85</ele>
        <time>2020-02-20T09:01:48Z</time>
      </trkpt>
      <trkpt lat="48.74735" lon="2.06093">
        <ele>114.92</ele>
        <time>2020-02-20T09:01:57Z</time>
      </trkpt>
      <trkpt lat="48.74736" lon="2.06079">
        <ele>117.15</ele>
        <time>2020-02-20T09:02:07Z</time>
      </trkpt>
      <trkpt lat="48.74739" lon="2.06064">
        <ele>117.06</ele>
        <time>2020-02-20T09:02:15Z</time>
      </trkpt>
      <trkpt lat="48.74747" lon="2.06056">
        <ele>116.92</ele>
        <time>2020-02-20T09:02:23Z</time>
      </trkpt>
      <trkpt lat="48.74753" lon="2.06044">
        <ele>116.84</ele>
        <time>2020-02-20T09:02:30Z</time>
      </trkpt>
      <trkpt lat="48.74757" lon="2.06032">
        <ele>116.7</ele>
        <time>2020-02-20T09:02:38Z</time>
      </trkpt>
      <trkpt lat="48.74765" lon="2.06025">
        <ele>116.63</ele>
        <time>2020-02-20T09:02:45Z</time>
      </trkpt>
      <trkpt lat="48.7477" lon="2.06016">
        <ele>116.55</ele>
        <time>2020-02-20T09:02:52Z</time>
      </trkpt>
      <trkpt lat="48.74779" lon="2.06005">
        <ele>116.48</ele>
        <time>2020-02-20T09:03:02Z</time>
      </trkpt>
      <trkpt lat="48.74785" lon="2.05991">
        <ele>116.35</ele>
        <time>2020-02-20T09:03:11Z</time>
      </trkpt>
      <trkpt lat="48.74791" lon="2.05979">
        <ele>116.21</ele>
        <time>2020-02-20T09:03:20Z</time>
      </trkpt>
      <trkpt lat="48.74796" lon="2.05971">
        <ele>116.99</ele>
        <time>2020-02-20T09:03:27Z</time>
      </trkpt>
      <trkpt lat="48.74798" lon="2.05969">
        <ele>116.97</ele>
        <time>2020-02-20T09:03:29Z</time>
      </trkpt>
      <trkpt lat="48.74796" lon="2.05951">
        <ele>116.89</ele>
        <time>2020-02-20T09:03:37Z</time>
      </trkpt>
      <trkpt lat="48.74799" lon="2.05937">
        <ele>116.86</ele>
        <time>2020-02-20T09:03:44Z</time>
      </trkpt>
      <trkpt lat="48.74802" lon="2.05928">
        <ele>116.82</ele>
        <time>2020-02-20T09:03:51Z</time>
      </trkpt>
      <trkpt lat="48.74805" lon="2.05918">
        <ele>116.75</ele>
        <time>2020-02-20T09:04:00Z</time>
      </trkpt>
      <trkpt lat="48.74807" lon="2.05916">
        <ele>113.59</ele>
        <time>2020-02-20T09:04:03Z</time>
      </trkpt>
      <trkpt lat="48.74807" lon="2.05915">
        <ele>117.28</ele>
        <time>2020-02-20T09:04:04Z</time>
      </trkpt>
      <trkpt lat="48.74805" lon="2.05915">
        <ele>117.21</ele>
        <time>2020-02-20T09:04:13Z</time>
      </trkpt>
      <trkpt lat="48.74804" lon="2.05923">
        <ele>118.07</ele>
        <time>2020-02-20T09:04:25Z</time>
      </trkpt>
      <trkpt lat="48.74806" lon="2.05928">
        <ele>118.87</ele>
        <time>2020-02-20T09:04:39Z</time>
      </trkpt>
      <trkpt lat="48.74811" lon="2.05939">
        <ele>119.61</ele>
        <time>2020-02-20T09:04:47Z</time>
      </trkpt>
      <trkpt lat="48.74818" lon="2.0595">
        <ele>121.16</ele>
        <time>2020-02-20T09:04:56Z</time>
      </trkpt>
      <trkpt lat="48.74824" lon="2.0596">
        <ele>123.01</ele>
        <time>2020-02-20T09:05:06Z</time>
      </trkpt>
      <trkpt lat="48.7483" lon="2.05967">
        <ele>125.7</ele>
        <time>2020-02-20T09:05:16Z</time>
      </trkpt>
      <trkpt lat="48.74836" lon="2.05972">
        <ele>127.58</ele>
        <time>2020-02-20T09:05:27Z</time>
      </trkpt>
      <trkpt lat="48.74842" lon="2.05981">
        <ele>130.34</ele>
        <time>2020-02-20T09:05:38Z</time>
      </trkpt>
      <trkpt lat="48.74848" lon="2.05991">
        <ele>131.89</ele>
        <time>2020-02-20T09:05:49Z</time>
      </trkpt>
      <trkpt lat="48.74854" lon="2.05994">
        <ele>132.6</ele>
        <time>2020-02-20T09:05:58Z</time>
      </trkpt>
      <trkpt lat="48.74861" lon="2.06002">
        <ele>135.54</ele>
        <time>2020-02-20T09:06:10Z</time>
      </trkpt>
      <trkpt lat="48.74861" lon="2.06003">
        <ele>135.54</ele>
        <time>2020-02-20T09:06:11Z</time>
      </trkpt>
      <trkpt lat="48.74869" lon="2.06014">
        <ele>136.58</ele>
        <time>2020-02-20T09:06:22Z</time>
      </trkpt>
      <trkpt lat="48.74875" lon="2.06022">
        <ele>138.36</ele>
        <time>2020-02-20T09:06:34Z</time>
      </trkpt>
      <trkpt lat="48.7488" lon="2.06029">
        <ele>140.98</ele>
        <time>2020-02-20T09:06:46Z</time>
      </trkpt>
      <trkpt lat="48.74885" lon="2.06036">
        <ele>143.02</ele>
        <time>2020-02-20T09:06:57Z</time>
      </trkpt>
      <trkpt lat="48.74892" lon="2.06045">
        <ele>144.65</ele>
        <time>2020-02-20T09:07:07Z</time>
      </trkpt>
      <trkpt lat="48.74898" lon="2.06052">
        <ele>146.5</ele>
        <time>2020-02-20T09:07:16Z</time>
      </trkpt>
      <trkpt lat="48.74904" lon="2.06059">
        <ele>147.47</ele>
        <time>2020-02-20T09:07:26Z</time>
      </trkpt>
      <trkpt lat="48.74906" lon="2.06065">
        <ele>148.38</ele>
        <time>2020-02-20T09:07:37Z</time>
      </trkpt>
      <trkpt lat="48.74909" lon="2.06074">
        <ele>149.23</ele>
        <time>2020-02-20T09:07:49Z</time>
      </trkpt>
      <trkpt lat="48.74909" lon="2.06075">
        <ele>150.37</ele>
        <time>2020-02-20T09:07:56Z</time>
      </trkpt>
      <trkpt lat="48.74909" lon="2.06079">
        <ele>150.36</ele>
        <time>2020-02-20T09:08:08Z</time>
      </trkpt>
      <trkpt lat="48.74914" lon="2.06078">
        <ele>150.48</ele>
        <time>2020-02-20T09:08:16Z</time>
      </trkpt>
      <trkpt lat="48.74918" lon="2.06076">
        <ele>151.46</ele>
        <time>2020-02-20T09:08:23Z</time>
      </trkpt>
      <trkpt lat="48.74925" lon="2.06078">
        <ele>151.47</ele>
        <time>2020-02-20T09:08:30Z</time>
      </trkpt>
      <trkpt lat="48.74936" lon="2.06078">
        <ele>152.28</ele>
        <time>2020-02-20T09:08:39Z</time>
      </trkpt>
      <trkpt lat="48.74938" lon="2.06078">
        <ele>154.12</ele>
        <time>2020-02-20T09:08:42Z</time>
      </trkpt>
      <trkpt lat="48.74945" lon="2.06084">
        <ele>154.1</ele>
        <time>2020-02-20T09:08:53Z</time>
      </trkpt>
      <trkpt lat="48.74952" lon="2.06089">
        <ele>154.04</ele>
        <time>2020-02-20T09:09:04Z</time>
      </trkpt>
      <trkpt lat="48.74957" lon="2.06091">
        <ele>154.11</ele>
        <time>2020-02-20T09:09:13Z</time>
      </trkpt>
      <trkpt lat="48.74964" lon="2.06094">
        <ele>154.14</ele>
        <time>2020-02-20T09:09:25Z</time>
      </trkpt>
      <trkpt lat="48.7497" lon="2.06091">
        <ele>154.16</ele>
        <time>2020-02-20T09:09:36Z</time>
      </trkpt>
      <trkpt lat="48.74968" lon="2.06088">
        <ele>154.19</ele>
        <time>2020-02-20T09:09:45Z</time>
      </trkpt>
      <trkpt lat="48.74965" lon="2.0609">
        <ele>154.18</ele>
        <time>2020-02-20T09:09:56Z</time>
      </trkpt>
      <trkpt lat="48.7496" lon="2.06091">
        <ele>154.22</ele>
        <time>2020-02-20T09:10:07Z</time>
      </trkpt>
      <trkpt lat="48.74952" lon="2.0609">
        <ele>152.7</ele>
        <time>2020-02-20T09:10:19Z</time>
      </trkpt>
      <trkpt lat="48.74943" lon="2.06087">
        <ele>152.71</ele>
        <time>2020-02-20T09:10:29Z</time>
      </trkpt>
      <trkpt lat="48.74938" lon="2.06081">
        <ele>152.76</ele>
        <time>2020-02-20T09:10:38Z</time>
      </trkpt>
      <trkpt lat="48.74938" lon="2.06066">
        <ele>152.77</ele>
        <time>2020-02-20T09:10:46Z</time>
      </trkpt>
      <trkpt lat="48.74937" lon="2.06049">
        <ele>152.76</ele>
        <time>2020-02-20T09:10:55Z</time>
      </trkpt>
      <trkpt lat="48.74936" lon="2.06038">
        <ele>152.77</ele>
        <time>2020-02-20T09:11:01Z</time>
      </trkpt>
      <trkpt lat="48.74937" lon="2.06021">
        <ele>152.76</ele>
        <time>2020-02-20T09:11:11Z</time>
      </trkpt>
      <trkpt lat="48.74939" lon="2.06005">
        <ele>151.94</ele>
        <time>2020-02-20T09:11:20Z</time>
      </trkpt>
      <trkpt lat="48.7494" lon="2.05991">
        <ele>151.95</ele>
        <time>2020-02-20T09:11:28Z</time>
      </trkpt>
      <trkpt lat="48.74941" lon="2.05986">
        <ele>151.95</ele>
        <time>2020-02-20T09:11:31Z</time>
      </trkpt>
      <trkpt lat="48.74937" lon="2.0597">
        <ele>151.91</ele>
        <time>2020-02-20T09:11:42Z</time>
      </trkpt>
      <trkpt lat="48.74935" lon="2.05956">
        <ele>151.91</ele>
        <time>2020-02-20T09:11:50Z</time>
      </trkpt>
      <trkpt lat="48.74934" lon="2.05944">
        <ele>151.89</ele>
        <time>2020-02-20T09:11:57Z</time>
      </trkpt>
      <trkpt lat="48.74935" lon="2.0593">
        <ele>151.87</ele>
        <time>2020-02-20T09:12:05Z</time>
      </trkpt>
      <trkpt lat="48.74935" lon="2.05918">
        <ele>151.81</ele>
        <time>2020-02-20T09:12:13Z</time>
      </trkpt>
      <trkpt lat="48.74933" lon="2.05904">
        <ele>150.91</ele>
        <time>2020-02-20T09:12:19Z</time>
      </trkpt>
      <trkpt lat="48.74933" lon="2.05895">
        <ele>150.88</ele>
        <time>2020-02-20T09:12:24Z</time>
      </trkpt>
      <trkpt lat="48.74932" lon="2.05876">
        <ele>150.85</ele>
        <time>2020-02-20T09:12:34Z</time>
      </trkpt>
      <trkpt lat="48.74932" lon="2.05865">
        <ele>150.8</ele>
        <time>2020-02-20T09:12:43Z</time>
      </trkpt>
      <trkpt lat="48.74938" lon="2.05852">
        <ele>150.76</ele>
        <time>2020-02-20T09:12:53Z</time>
      </trkpt>
      <trkpt lat="48.74938" lon="2.05849">
        <ele>150.77</ele>
        <time>2020-02-20T09:12:55Z</time>
      </trkpt>
      <trkpt lat="48.74938" lon="2.05837">
        <ele>149.87</ele>
        <time>2020-02-20T09:13:02Z</time>
      </trkpt>
      <trkpt lat="48.74942" lon="2.05825">
        <ele>149.86</ele>
        <time>2020-02-20T09:13:09Z</time>
      </trkpt>
      <trkpt lat="48.74948" lon="2.05811">
        <ele>149.8</ele>
        <time>2020-02-20T09:13:19Z</time>
      </trkpt>
      <trkpt lat="48.7495" lon="2.05798">
        <ele>149.73</ele>
        <time>2020-02-20T09:13:26Z</time>
      </trkpt>
      <trkpt lat="48.74953" lon="2.05783">
        <ele>149.67</ele>
        <time>2020-02-20T09:13:34Z</time>
      </trkpt>
      <trkpt lat="48.74955" lon="2.05771">
        <ele>148.75</ele>
        <time>2020-02-20T09:13:41Z</time>
      </trkpt>
      <trkpt lat="48.74961" lon="2.05757">
        <ele>147.82</ele>
        <time>2020-02-20T09:13:51Z</time>
      </trkpt>
      <trkpt lat="48.74965" lon="2.05743">
        <ele>147.78</ele>
        <time>2020-02-20T09:14:00Z</time>
      </trkpt>
      <trkpt lat="48.74968" lon="2.05729">
        <ele>147.74</ele>
        <time>2020-02-20T09:14:09Z</time>
      </trkpt>
      <trkpt lat="48.74971" lon="2.0571">
        <ele>147.7</ele>
        <time>2020-02-20T09:14:19Z</time>
      </trkpt>
      <trkpt lat="48.74972" lon="2.0569">
        <ele>147.63</ele>
        <time>2020-02-20T09:14:29Z</time>
      </trkpt>
      <trkpt lat="48.74972" lon="2.05674">
        <ele>147.56</ele>
        <time>2020-02-20T09:14:39Z</time>
      </trkpt>
      <trkpt lat="48.74972" lon="2.05665">
        <ele>147.43</ele>
        <time>2020-02-20T09:14:48Z</time>
      </trkpt>
      <trkpt lat="48.74973" lon="2.0565">
        <ele>147.4</ele>
        <time>2020-02-20T09:14:56Z</time>
      </trkpt>
      <trkpt lat="48.74975" lon="2.05633">
        <ele>147.37</ele>
        <time>2020-02-20T09:15:04Z</time>
      </trkpt>
      <trkpt lat="48.74979" lon="2.05619">
        <ele>147.29</ele>
        <time>2020-02-20T09:15:13Z</time>
      </trkpt>
      <trkpt lat="48.74979" lon="2.05609">
        <ele>149.58</ele>
        <time>2020-02-20T09:15:20Z</time>
      </trkpt>
      <trkpt lat="48.74979" lon="2.05598">
        <ele>149.52</ele>
        <time>2020-02-20T09:15:27Z</time>
      </trkpt>
      <trkpt lat="48.74981" lon="2.05585">
        <ele>149.41</ele>
        <time>2020-02-20T09:15:35Z</time>
      </trkpt>
      <trkpt lat="48.74987" lon="2.05572">
        <ele>150.25</ele>
        <time>2020-02-20T09:15:44Z</time>
      </trkpt>
      <trkpt lat="48.74994" lon="2.05563">
        <ele>150.99</ele>
        <time>2020-02-20T09:15:52Z</time>
      </trkpt>
      <trkpt lat="48.74998" lon="2.05553">
        <ele>150.93</ele>
        <time>2020-02-20T09:15:58Z</time>
      </trkpt>
      <trkpt lat="48.74997" lon="2.05541">
        <ele>150.86</ele>
        <time>2020-02-20T09:16:05Z</time>
      </trkpt>
      <trkpt lat="48.74992" lon="2.05532">
        <ele>150.79</ele>
        <time>2020-02-20T09:16:13Z</time>
      </trkpt>
      <trkpt lat="48.74989" lon="2.05523">
        <ele>148.43</ele>
        <time>2020-02-20T09:16:20Z</time>
      </trkpt>
      <trkpt lat="48.74988" lon="2.05513">
        <ele>147.54</ele>
        <time>2020-02-20T09:16:27Z</time>
      </trkpt>
      <trkpt lat="48.74987" lon="2.05503">
        <ele>146.53</ele>
        <time>2020-02-20T09:16:33Z</time>
      </trkpt>
      <trkpt lat="48.74985" lon="2.05487">
        <ele>145.78</ele>
        <time>2020-02-20T09:16:41Z</time>
      </trkpt>
      <trkpt lat="48.74981" lon="2.05473">
        <ele>145.77</ele>
        <time>2020-02-20T09:16:50Z</time>
      </trkpt>
      <trkpt lat="48.74981" lon="2.0546">
        <ele>145.71</ele>
        <time>2020-02-20T09:16:59Z</time>
      </trkpt>
      <trkpt lat="48.74978" lon="2.05446">
        <ele>145.63</ele>
        <time>2020-02-20T09:17:07Z</time>
      </trkpt>
      <trkpt lat="48.74975" lon="2.0544">
        <ele>143.98</ele>
        <time>2020-02-20T09:17:11Z</time>
      </trkpt>
      <trkpt lat="48.74973" lon="2.05432">
        <ele>143.94</ele>
        <time>2020-02-20T09:17:18Z</time>
      </trkpt>
      <trkpt lat="48.74971" lon="2.05411">
        <ele>143.89</ele>
        <time>2020-02-20T09:17:28Z</time>
      </trkpt>
      <trkpt lat="48.7497" lon="2.05394">
        <ele>143.86</ele>
        <time>2020-02-20T09:17:37Z</time>
      </trkpt>
      <trkpt lat="48.74969" lon="2.05379">
        <ele>143</ele>
        <time>2020-02-20T09:17:46Z</time>
      </trkpt>
      <trkpt lat="48.74968" lon="2.05367">
        <ele>143.02</ele>
        <time>2020-02-20T09:17:53Z</time>
      </trkpt>
      <trkpt lat="48.74967" lon="2.05354">
        <ele>143</ele>
        <time>2020-02-20T09:18:00Z</time>
      </trkpt>
      <trkpt lat="48.74966" lon="2.05345">
        <ele>142.96</ele>
        <time>2020-02-20T09:18:06Z</time>
      </trkpt>
      <trkpt lat="48.74966" lon="2.05334">
        <ele>142.94</ele>
        <time>2020-02-20T09:18:13Z</time>
      </trkpt>
      <trkpt lat="48.74966" lon="2.05322">
        <ele>142.89</ele>
        <time>2020-02-20T09:18:21Z</time>
      </trkpt>
      <trkpt lat="48.74968" lon="2.05317">
        <ele>142.87</ele>
        <time>2020-02-20T09:18:24Z</time>
      </trkpt>
      <trkpt lat="48.74969" lon="2.05312">
        <ele>142.86</ele>
        <time>2020-02-20T09:18:27Z</time>
      </trkpt>
      <trkpt lat="48.74972" lon="2.05302">
        <ele>142.83</ele>
        <time>2020-02-20T09:18:35Z</time>
      </trkpt>
      <trkpt lat="48.74979" lon="2.05281">
        <ele>142.79</ele>
        <time>2020-02-20T09:18:45Z</time>
      </trkpt>
      <trkpt lat="48.74982" lon="2.05271">
        <ele>142.78</ele>
        <time>2020-02-20T09:18:51Z</time>
      </trkpt>
      <trkpt lat="48.74984" lon="2.05263">
        <ele>141.95</ele>
        <time>2020-02-20T09:18:56Z</time>
      </trkpt>
      <trkpt lat="48.74986" lon="2.05257">
        <ele>141.96</ele>
        <time>2020-02-20T09:18:59Z</time>
      </trkpt>
      <trkpt lat="48.74992" lon="2.05253">
        <ele>142.84</ele>
        <time>2020-02-20T09:19:06Z</time>
      </trkpt>
      <trkpt lat="48.74999" lon="2.05242">
        <ele>142.83</ele>
        <time>2020-02-20T09:19:16Z</time>
      </trkpt>
      <trkpt lat="48.75005" lon="2.0523">
        <ele>142.81</ele>
        <time>2020-02-20T09:19:24Z</time>
      </trkpt>
      <trkpt lat="48.75009" lon="2.05222">
        <ele>142.82</ele>
        <time>2020-02-20T09:19:29Z</time>
      </trkpt>
      <trkpt lat="48.75016" lon="2.05212">
        <ele>142.8</ele>
        <time>2020-02-20T09:19:37Z</time>
      </trkpt>
      <trkpt lat="48.75022" lon="2.05206">
        <ele>142.79</ele>
        <time>2020-02-20T09:19:43Z</time>
      </trkpt>
      <trkpt lat="48.75024" lon="2.05203">
        <ele>140.43</ele>
        <time>2020-02-20T09:19:45Z</time>
      </trkpt>
      <trkpt lat="48.75032" lon="2.05192">
        <ele>140.38</ele>
        <time>2020-02-20T09:19:53Z</time>
      </trkpt>
      <trkpt lat="48.75038" lon="2.05185">
        <ele>139.37</ele>
        <time>2020-02-20T09:20:01Z</time>
      </trkpt>
      <trkpt lat="48.75045" lon="2.05175">
        <ele>138.21</ele>
        <time>2020-02-20T09:20:10Z</time>
      </trkpt>
      <trkpt lat="48.7505" lon="2.05162">
        <ele>137.27</ele>
        <time>2020-02-20T09:20:19Z</time>
      </trkpt>
      <trkpt lat="48.75051" lon="2.05151">
        <ele>137.26</ele>
        <time>2020-02-20T09:20:28Z</time>
      </trkpt>
      <trkpt lat="48.75052" lon="2.05148">
        <ele>137.25</ele>
        <time>2020-02-20T09:20:30Z</time>
      </trkpt>
      <trkpt lat="48.75057" lon="2.05137">
        <ele>137.22</ele>
        <time>2020-02-20T09:20:38Z</time>
      </trkpt>
      <trkpt lat="48.75063" lon="2.05126">
        <ele>139.81</ele>
        <time>2020-02-20T09:20:48Z</time>
      </trkpt>
      <trkpt lat="48.75063" lon="2.05125">
        <ele>139.81</ele>
        <time>2020-02-20T09:20:49Z</time>
      </trkpt>
      <trkpt lat="48.75062" lon="2.05118">
        <ele>139.78</ele>
        <time>2020-02-20T09:20:53Z</time>
      </trkpt>
      <trkpt lat="48.75062" lon="2.05102">
        <ele>139.72</ele>
        <time>2020-02-20T09:21:02Z</time>
      </trkpt>
      <trkpt lat="48.75062" lon="2.05086">
        <ele>140.95</ele>
        <time>2020-02-20T09:21:12Z</time>
      </trkpt>
      <trkpt lat="48.75062" lon="2.05084">
        <ele>140.94</ele>
        <time>2020-02-20T09:21:13Z</time>
      </trkpt>
      <trkpt lat="48.75062" lon="2.0507">
        <ele>140.9</ele>
        <time>2020-02-20T09:21:22Z</time>
      </trkpt>
      <trkpt lat="48.75061" lon="2.05058">
        <ele>142.07</ele>
        <time>2020-02-20T09:21:29Z</time>
      </trkpt>
      <trkpt lat="48.75059" lon="2.05056">
        <ele>142.06</ele>
        <time>2020-02-20T09:21:32Z</time>
      </trkpt>
      <trkpt lat="48.75059" lon="2.05056">
        <ele>142.04</ele>
        <time>2020-02-20T09:21:41Z</time>
      </trkpt>
      <trkpt lat="48.75056" lon="2.05054">
        <ele>142.04</ele>
        <time>2020-02-20T09:21:49Z</time>
      </trkpt>
      <trkpt lat="48.75047" lon="2.05051">
        <ele>142.04</ele>
        <time>2020-02-20T09:21:59Z</time>
      </trkpt>
      <trkpt lat="48.75041" lon="2.05043">
        <ele>142.02</ele>
        <time>2020-02-20T09:22:07Z</time>
      </trkpt>
      <trkpt lat="48.75036" lon="2.05044">
        <ele>139.41</ele>
        <time>2020-02-20T09:22:12Z</time>
      </trkpt>
      <trkpt lat="48.75029" lon="2.05045">
        <ele>139.38</ele>
        <time>2020-02-20T09:22:21Z</time>
      </trkpt>
      <trkpt lat="48.75025" lon="2.05045">
        <ele>139.39</ele>
        <time>2020-02-20T09:22:26Z</time>
      </trkpt>
      <trkpt lat="48.75024" lon="2.05046">
        <ele>139.4</ele>
        <time>2020-02-20T09:22:28Z</time>
      </trkpt>
      <trkpt lat="48.75013" lon="2.05038">
        <ele>139.35</ele>
        <time>2020-02-20T09:22:39Z</time>
      </trkpt>
      <trkpt lat="48.75011" lon="2.05033">
        <ele>139.35</ele>
        <time>2020-02-20T09:22:43Z</time>
      </trkpt>
      <trkpt lat="48.75008" lon="2.05025">
        <ele>139.32</ele>
        <time>2020-02-20T09:22:49Z</time>
      </trkpt>
      <trkpt lat="48.75006" lon="2.05014">
        <ele>139.31</ele>
        <time>2020-02-20T09:22:56Z</time>
      </trkpt>
      <trkpt lat="48.75005" lon="2.04999">
        <ele>141.77</ele>
        <time>2020-02-20T09:23:06Z</time>
      </trkpt>
      <trkpt lat="48.75003" lon="2.04985">
        <ele>141.76</ele>
        <time>2020-02-20T09:23:13Z</time>
      </trkpt>
      <trkpt lat="48.75003" lon="2.04978">
        <ele>141.74</ele>
        <time>2020-02-20T09:23:16Z</time>
      </trkpt>
      <trkpt lat="48.75007" lon="2.04966">
        <ele>142.61</ele>
        <time>2020-02-20T09:23:23Z</time>
      </trkpt>
      <trkpt lat="48.75008" lon="2.04951">
        <ele>142.59</ele>
        <time>2020-02-20T09:23:32Z</time>
      </trkpt>
      <trkpt lat="48.75009" lon="2.04946">
        <ele>142.57</ele>
        <time>2020-02-20T09:23:34Z</time>
      </trkpt>
      <trkpt lat="48.75007" lon="2.04932">
        <ele>143.49</ele>
        <time>2020-02-20T09:23:42Z</time>
      </trkpt>
      <trkpt lat="48.75006" lon="2.04919">
        <ele>143.5</ele>
        <time>2020-02-20T09:23:50Z</time>
      </trkpt>
      <trkpt lat="48.75005" lon="2.04908">
        <ele>143.43</ele>
        <time>2020-02-20T09:23:58Z</time>
      </trkpt>
      <trkpt lat="48.75005" lon="2.04897">
        <ele>143.39</ele>
        <time>2020-02-20T09:24:06Z</time>
      </trkpt>
      <trkpt lat="48.75006" lon="2.04885">
        <ele>144.28</ele>
        <time>2020-02-20T09:24:14Z</time>
      </trkpt>
      <trkpt lat="48.75003" lon="2.04878">
        <ele>144.27</ele>
        <time>2020-02-20T09:24:19Z</time>
      </trkpt>
      <trkpt lat="48.75002" lon="2.04864">
        <ele>144.24</ele>
        <time>2020-02-20T09:24:29Z</time>
      </trkpt>
      <trkpt lat="48.75" lon="2.04852">
        <ele>144.22</ele>
        <time>2020-02-20T09:24:38Z</time>
      </trkpt>
      <trkpt lat="48.75" lon="2.0485">
        <ele>144.22</ele>
        <time>2020-02-20T09:24:39Z</time>
      </trkpt>
      <trkpt lat="48.74999" lon="2.04838">
        <ele>144.2</ele>
        <time>2020-02-20T09:24:47Z</time>
      </trkpt>
      <trkpt lat="48.74999" lon="2.04825">
        <ele>144.19</ele>
        <time>2020-02-20T09:24:57Z</time>
      </trkpt>
      <trkpt lat="48.75" lon="2.04814">
        <ele>144.18</ele>
        <time>2020-02-20T09:25:05Z</time>
      </trkpt>
      <trkpt lat="48.75" lon="2.04811">
        <ele>141.65</ele>
        <time>2020-02-20T09:25:07Z</time>
      </trkpt>
      <trkpt lat="48.75" lon="2.04794">
        <ele>140.54</ele>
        <time>2020-02-20T09:25:16Z</time>
      </trkpt>
      <trkpt lat="48.75001" lon="2.04782">
        <ele>140.56</ele>
        <time>2020-02-20T09:25:24Z</time>
      </trkpt>
      <trkpt lat="48.75002" lon="2.04768">
        <ele>140.54</ele>
        <time>2020-02-20T09:25:36Z</time>
      </trkpt>
      <trkpt lat="48.75001" lon="2.04749">
        <ele>140.51</ele>
        <time>2020-02-20T09:25:47Z</time>
      </trkpt>
      <trkpt lat="48.74997" lon="2.04726">
        <ele>140.46</ele>
        <time>2020-02-20T09:25:57Z</time>
      </trkpt>
      <trkpt lat="48.74996" lon="2.04711">
        <ele>142.81</ele>
        <time>2020-02-20T09:26:06Z</time>
      </trkpt>
      <trkpt lat="48.74995" lon="2.04702">
        <ele>142.78</ele>
        <time>2020-02-20T09:26:11Z</time>
      </trkpt>
      <trkpt lat="48.74995" lon="2.04689">
        <ele>142.73</ele>
        <time>2020-02-20T09:26:20Z</time>
      </trkpt>
      <trkpt lat="48.74995" lon="2.04668">
        <ele>143.53</ele>
        <time>2020-02-20T09:26:29Z</time>
      </trkpt>
      <trkpt lat="48.74989" lon="2.04654">
        <ele>143.5</ele>
        <time>2020-02-20T09:26:38Z</time>
      </trkpt>
      <trkpt lat="48.74987" lon="2.04647">
        <ele>144.35</ele>
        <time>2020-02-20T09:26:47Z</time>
      </trkpt>
      <trkpt lat="48.74984" lon="2.0463">
        <ele>145.2</ele>
        <time>2020-02-20T09:26:56Z</time>
      </trkpt>
      <trkpt lat="48.74983" lon="2.04617">
        <ele>145.18</ele>
        <time>2020-02-20T09:27:03Z</time>
      </trkpt>
      <trkpt lat="48.74982" lon="2.04604">
        <ele>146.02</ele>
        <time>2020-02-20T09:27:11Z</time>
      </trkpt>
      <trkpt lat="48.7498" lon="2.04588">
        <ele>146.01</ele>
        <time>2020-02-20T09:27:22Z</time>
      </trkpt>
      <trkpt lat="48.74978" lon="2.04578">
        <ele>146.01</ele>
        <time>2020-02-20T09:27:29Z</time>
      </trkpt>
      <trkpt lat="48.74977" lon="2.04566">
        <ele>146.01</ele>
        <time>2020-02-20T09:27:37Z</time>
      </trkpt>
      <trkpt lat="48.74976" lon="2.04562">
        <ele>143.51</ele>
        <time>2020-02-20T09:27:40Z</time>
      </trkpt>
      <trkpt lat="48.74975" lon="2.04549">
        <ele>143.53</ele>
        <time>2020-02-20T09:27:49Z</time>
      </trkpt>
      <trkpt lat="48.74974" lon="2.04531">
        <ele>143.56</ele>
        <time>2020-02-20T09:27:58Z</time>
      </trkpt>
      <trkpt lat="48.74973" lon="2.04521">
        <ele>143.57</ele>
        <time>2020-02-20T09:28:04Z</time>
      </trkpt>
      <trkpt lat="48.74971" lon="2.04508">
        <ele>143.58</ele>
        <time>2020-02-20T09:28:12Z</time>
      </trkpt>
      <trkpt lat="48.7497" lon="2.04493">
        <ele>142.84</ele>
        <time>2020-02-20T09:28:21Z</time>
      </trkpt>
      <trkpt lat="48.74968" lon="2.04478">
        <ele>142.89</ele>
        <time>2020-02-20T09:28:31Z</time>
      </trkpt>
      <trkpt lat="48.74967" lon="2.04462">
        <ele>142.06</ele>
        <time>2020-02-20T09:28:41Z</time>
      </trkpt>
      <trkpt lat="48.74966" lon="2.04445">
        <ele>142.09</ele>
        <time>2020-02-20T09:28:52Z</time>
      </trkpt>
      <trkpt lat="48.74966" lon="2.04429">
        <ele>142.12</ele>
        <time>2020-02-20T09:29:03Z</time>
      </trkpt>
      <trkpt lat="48.74964" lon="2.04412">
        <ele>141.25</ele>
        <time>2020-02-20T09:29:16Z</time>
      </trkpt>
      <trkpt lat="48.74963" lon="2.04391">
        <ele>141.26</ele>
        <time>2020-02-20T09:29:27Z</time>
      </trkpt>
      <trkpt lat="48.74961" lon="2.04375">
        <ele>141.26</ele>
        <time>2020-02-20T09:29:36Z</time>
      </trkpt>
      <trkpt lat="48.74959" lon="2.04366">
        <ele>141.34</ele>
        <time>2020-02-20T09:29:42Z</time>
      </trkpt>
      <trkpt lat="48.74961" lon="2.04349">
        <ele>141.24</ele>
        <time>2020-02-20T09:29:53Z</time>
      </trkpt>
      <trkpt lat="48.74969" lon="2.04338">
        <ele>141.2</ele>
        <time>2020-02-20T09:30:04Z</time>
      </trkpt>
      <trkpt lat="48.74972" lon="2.04328">
        <ele>143.63</ele>
        <time>2020-02-20T09:30:10Z</time>
      </trkpt>
      <trkpt lat="48.74982" lon="2.04323">
        <ele>143.61</ele>
        <time>2020-02-20T09:30:17Z</time>
      </trkpt>
      <trkpt lat="48.74992" lon="2.0432">
        <ele>144.38</ele>
        <time>2020-02-20T09:30:26Z</time>
      </trkpt>
      <trkpt lat="48.74999" lon="2.04313">
        <ele>144.38</ele>
        <time>2020-02-20T09:30:33Z</time>
      </trkpt>
      <trkpt lat="48.75002" lon="2.0431">
        <ele>144.38</ele>
        <time>2020-02-20T09:30:36Z</time>
      </trkpt>
      <trkpt lat="48.75006" lon="2.04301">
        <ele>144.37</ele>
        <time>2020-02-20T09:30:42Z</time>
      </trkpt>
      <trkpt lat="48.75009" lon="2.0429">
        <ele>144.38</ele>
        <time>2020-02-20T09:30:49Z</time>
      </trkpt>
      <trkpt lat="48.75009" lon="2.04284">
        <ele>145.16</ele>
        <time>2020-02-20T09:30:53Z</time>
      </trkpt>
      <trkpt lat="48.7501" lon="2.0428">
        <ele>145.11</ele>
        <time>2020-02-20T09:30:56Z</time>
      </trkpt>
      <trkpt lat="48.75013" lon="2.04264">
        <ele>145.05</ele>
        <time>2020-02-20T09:31:06Z</time>
      </trkpt>
      <trkpt lat="48.75014" lon="2.04249">
        <ele>145.16</ele>
        <time>2020-02-20T09:31:14Z</time>
      </trkpt>
      <trkpt lat="48.75014" lon="2.04244">
        <ele>145.19</ele>
        <time>2020-02-20T09:31:17Z</time>
      </trkpt>
      <trkpt lat="48.75014" lon="2.04234">
        <ele>145.2</ele>
        <time>2020-02-20T09:31:23Z</time>
      </trkpt>
      <trkpt lat="48.75015" lon="2.0423">
        <ele>145.21</ele>
        <time>2020-02-20T09:31:25Z</time>
      </trkpt>
      <trkpt lat="48.75015" lon="2.04227">
        <ele>142.7</ele>
        <time>2020-02-20T09:31:27Z</time>
      </trkpt>
      <trkpt lat="48.75016" lon="2.04225">
        <ele>142.77</ele>
        <time>2020-02-20T09:31:28Z</time>
      </trkpt>
      <trkpt lat="48.75022" lon="2.04216">
        <ele>141.98</ele>
        <time>2020-02-20T09:31:35Z</time>
      </trkpt>
      <trkpt lat="48.75029" lon="2.04207">
        <ele>141.92</ele>
        <time>2020-02-20T09:31:43Z</time>
      </trkpt>
      <trkpt lat="48.75034" lon="2.04199">
        <ele>141.99</ele>
        <time>2020-02-20T09:31:51Z</time>
      </trkpt>
      <trkpt lat="48.75038" lon="2.0419">
        <ele>142</ele>
        <time>2020-02-20T09:31:58Z</time>
      </trkpt>
      <trkpt lat="48.75042" lon="2.0418">
        <ele>141.98</ele>
        <time>2020-02-20T09:32:06Z</time>
      </trkpt>
      <trkpt lat="48.75047" lon="2.04173">
        <ele>142.04</ele>
        <time>2020-02-20T09:32:13Z</time>
      </trkpt>
      <trkpt lat="48.75053" lon="2.04169">
        <ele>142.11</ele>
        <time>2020-02-20T09:32:19Z</time>
      </trkpt>
      <trkpt lat="48.75061" lon="2.04167">
        <ele>144.45</ele>
        <time>2020-02-20T09:32:25Z</time>
      </trkpt>
      <trkpt lat="48.75067" lon="2.04165">
        <ele>144.44</ele>
        <time>2020-02-20T09:32:31Z</time>
      </trkpt>
      <trkpt lat="48.75078" lon="2.0416">
        <ele>146.05</ele>
        <time>2020-02-20T09:32:41Z</time>
      </trkpt>
      <trkpt lat="48.75088" lon="2.04157">
        <ele>146.86</ele>
        <time>2020-02-20T09:32:49Z</time>
      </trkpt>
      <trkpt lat="48.75097" lon="2.04157">
        <ele>146.87</ele>
        <time>2020-02-20T09:32:57Z</time>
      </trkpt>
      <trkpt lat="48.75108" lon="2.0416">
        <ele>146.87</ele>
        <time>2020-02-20T09:33:07Z</time>
      </trkpt>
      <trkpt lat="48.75115" lon="2.04161">
        <ele>147.86</ele>
        <time>2020-02-20T09:33:14Z</time>
      </trkpt>
      <trkpt lat="48.75124" lon="2.04159">
        <ele>147.8</ele>
        <time>2020-02-20T09:33:23Z</time>
      </trkpt>
      <trkpt lat="48.75133" lon="2.04156">
        <ele>147.76</ele>
        <time>2020-02-20T09:33:31Z</time>
      </trkpt>
      <trkpt lat="48.7514" lon="2.0415">
        <ele>148.77</ele>
        <time>2020-02-20T09:33:39Z</time>
      </trkpt>
      <trkpt lat="48.75148" lon="2.04145">
        <ele>148.79</ele>
        <time>2020-02-20T09:33:47Z</time>
      </trkpt>
      <trkpt lat="48.75152" lon="2.0414">
        <ele>148.79</ele>
        <time>2020-02-20T09:33:52Z</time>
      </trkpt>
      <trkpt lat="48.75157" lon="2.04131">
        <ele>148.76</ele>
        <time>2020-02-20T09:34:00Z</time>
      </trkpt>
      <trkpt lat="48.75159" lon="2.04128">
        <ele>148.74</ele>
        <time>2020-02-20T09:34:03Z</time>
      </trkpt>
      <trkpt lat="48.75167" lon="2.04117">
        <ele>148.68</ele>
        <time>2020-02-20T09:34:12Z</time>
      </trkpt>
      <trkpt lat="48.75173" lon="2.04107">
        <ele>148.73</ele>
        <time>2020-02-20T09:34:20Z</time>
      </trkpt>
      <trkpt lat="48.75179" lon="2.04097">
        <ele>148.67</ele>
        <time>2020-02-20T09:34:28Z</time>
      </trkpt>
      <trkpt lat="48.75186" lon="2.04091">
        <ele>148.6</ele>
        <time>2020-02-20T09:34:37Z</time>
      </trkpt>
      <trkpt lat="48.75192" lon="2.0409">
        <ele>148.65</ele>
        <time>2020-02-20T09:34:41Z</time>
      </trkpt>
      <trkpt lat="48.752" lon="2.04085">
        <ele>148.61</ele>
        <time>2020-02-20T09:34:49Z</time>
      </trkpt>
      <trkpt lat="48.75208" lon="2.04088">
        <ele>148.63</ele>
        <time>2020-02-20T09:34:59Z</time>
      </trkpt>
      <trkpt lat="48.75219" lon="2.04093">
        <ele>148.75</ele>
        <time>2020-02-20T09:35:07Z</time>
      </trkpt>
      <trkpt lat="48.75226" lon="2.04099">
        <ele>148.64</ele>
        <time>2020-02-20T09:35:16Z</time>
      </trkpt>
      <trkpt lat="48.7523" lon="2.041">
        <ele>148.63</ele>
        <time>2020-02-20T09:35:19Z</time>
      </trkpt>
      <trkpt lat="48.75239" lon="2.04101">
        <ele>149.6</ele>
        <time>2020-02-20T09:35:27Z</time>
      </trkpt>
      <trkpt lat="48.75248" lon="2.04106">
        <ele>149.62</ele>
        <time>2020-02-20T09:35:35Z</time>
      </trkpt>
      <trkpt lat="48.75256" lon="2.04108">
        <ele>150.36</ele>
        <time>2020-02-20T09:35:43Z</time>
      </trkpt>
      <trkpt lat="48.75264" lon="2.04111">
        <ele>150.33</ele>
        <time>2020-02-20T09:35:51Z</time>
      </trkpt>
      <trkpt lat="48.75272" lon="2.04111">
        <ele>150.21</ele>
        <time>2020-02-20T09:35:58Z</time>
      </trkpt>
      <trkpt lat="48.75284" lon="2.04106">
        <ele>150.18</ele>
        <time>2020-02-20T09:36:07Z</time>
      </trkpt>
      <trkpt lat="48.75296" lon="2.04108">
        <ele>150.25</ele>
        <time>2020-02-20T09:36:18Z</time>
      </trkpt>
      <trkpt lat="48.75303" lon="2.04107">
        <ele>150.28</ele>
        <time>2020-02-20T09:36:27Z</time>
      </trkpt>
      <trkpt lat="48.75311" lon="2.04102">
        <ele>150.23</ele>
        <time>2020-02-20T09:36:34Z</time>
      </trkpt>
      <trkpt lat="48.75316" lon="2.04097">
        <ele>150.18</ele>
        <time>2020-02-20T09:36:40Z</time>
      </trkpt>
      <trkpt lat="48.75323" lon="2.04089">
        <ele>150.09</ele>
        <time>2020-02-20T09:36:48Z</time>
      </trkpt>
      <trkpt lat="48.75329" lon="2.04083">
        <ele>150.04</ele>
        <time>2020-02-20T09:36:55Z</time>
      </trkpt>
      <trkpt lat="48.75336" lon="2.04074">
        <ele>149.99</ele>
        <time>2020-02-20T09:37:03Z</time>
      </trkpt>
      <trkpt lat="48.75342" lon="2.04069">
        <ele>149.98</ele>
        <time>2020-02-20T09:37:09Z</time>
      </trkpt>
      <trkpt lat="48.75344" lon="2.04067">
        <ele>149.96</ele>
        <time>2020-02-20T09:37:12Z</time>
      </trkpt>
      <trkpt lat="48.75359" lon="2.04064">
        <ele>149.96</ele>
        <time>2020-02-20T09:37:23Z</time>
      </trkpt>
      <trkpt lat="48.75367" lon="2.04068">
        <ele>150.82</ele>
        <time>2020-02-20T09:37:31Z</time>
      </trkpt>
      <trkpt lat="48.75375" lon="2.04074">
        <ele>150.79</ele>
        <time>2020-02-20T09:37:38Z</time>
      </trkpt>
      <trkpt lat="48.75383" lon="2.04079">
        <ele>150.78</ele>
        <time>2020-02-20T09:37:45Z</time>
      </trkpt>
      <trkpt lat="48.75385" lon="2.0408">
        <ele>151.58</ele>
        <time>2020-02-20T09:37:47Z</time>
      </trkpt>
      <trkpt lat="48.75394" lon="2.04083">
        <ele>151.6</ele>
        <time>2020-02-20T09:37:55Z</time>
      </trkpt>
      <trkpt lat="48.75397" lon="2.04083">
        <ele>151.61</ele>
        <time>2020-02-20T09:38:02Z</time>
      </trkpt>
      <trkpt lat="48.75398" lon="2.0408">
        <ele>151.57</ele>
        <time>2020-02-20T09:38:13Z</time>
      </trkpt>
      <trkpt lat="48.75398" lon="2.0408">
        <ele>151.65</ele>
        <time>2020-02-20T09:38:35Z</time>
      </trkpt>
      <trkpt lat="48.75396" lon="2.04083">
        <ele>151.77</ele>
        <time>2020-02-20T09:38:51Z</time>
      </trkpt>
      <trkpt lat="48.75397" lon="2.04083">
        <ele>151.8</ele>
        <time>2020-02-20T09:39:08Z</time>
      </trkpt>
      <trkpt lat="48.75397" lon="2.04083">
        <ele>151.87</ele>
        <time>2020-02-20T09:39:23Z</time>
      </trkpt>
      <trkpt lat="48.75393" lon="2.04079">
        <ele>151.99</ele>
        <time>2020-02-20T09:39:46Z</time>
      </trkpt>
      <trkpt lat="48.75393" lon="2.04079">
        <ele>152.14</ele>
        <time>2020-02-20T09:40:13Z</time>
      </trkpt>
      <trkpt lat="48.75392" lon="2.04078">
        <ele>152.18</ele>
        <time>2020-02-20T09:40:20Z</time>
      </trkpt>
      <trkpt lat="48.75392" lon="2.04077">
        <ele>148.84</ele>
        <time>2020-02-20T09:40:22Z</time>
      </trkpt>
      <trkpt lat="48.75393" lon="2.04079">
        <ele>154.28</ele>
        <time>2020-02-20T09:40:23Z</time>
      </trkpt>
      <trkpt lat="48.75393" lon="2.04079">
        <ele>154.27</ele>
        <time>2020-02-20T09:40:24Z</time>
      </trkpt>
      <trkpt lat="48.75396" lon="2.04082">
        <ele>154.29</ele>
        <time>2020-02-20T09:40:37Z</time>
      </trkpt>
      <trkpt lat="48.75397" lon="2.04084">
        <ele>151.81</ele>
        <time>2020-02-20T09:40:51Z</time>
      </trkpt>
      <trkpt lat="48.75399" lon="2.04085">
        <ele>151.85</ele>
        <time>2020-02-20T09:41:12Z</time>
      </trkpt>
      <trkpt lat="48.75398" lon="2.04084">
        <ele>151.9</ele>
        <time>2020-02-20T09:41:32Z</time>
      </trkpt>
      <trkpt lat="48.75398" lon="2.04083">
        <ele>151.95</ele>
        <time>2020-02-20T09:41:48Z</time>
      </trkpt>
      <trkpt lat="48.75399" lon="2.04083">
        <ele>153.41</ele>
        <time>2020-02-20T09:41:53Z</time>
      </trkpt>
      <trkpt lat="48.754" lon="2.04085">
        <ele>153.42</ele>
        <time>2020-02-20T09:42:03Z</time>
      </trkpt>
      <trkpt lat="48.75401" lon="2.04086">
        <ele>153.45</ele>
        <time>2020-02-20T09:42:14Z</time>
      </trkpt>
      <trkpt lat="48.75399" lon="2.04087">
        <ele>153.47</ele>
        <time>2020-02-20T09:42:25Z</time>
      </trkpt>
      <trkpt lat="48.75399" lon="2.04086">
        <ele>153.49</ele>
        <time>2020-02-20T09:42:39Z</time>
      </trkpt>
      <trkpt lat="48.75399" lon="2.04085">
        <ele>151.23</ele>
        <time>2020-02-20T09:42:48Z</time>
      </trkpt>
      <trkpt lat="48.75398" lon="2.04084">
        <ele>151.25</ele>
        <time>2020-02-20T09:43:07Z</time>
      </trkpt>
      <trkpt lat="48.75397" lon="2.04085">
        <ele>151.26</ele>
        <time>2020-02-20T09:43:20Z</time>
      </trkpt>
      <trkpt lat="48.75398" lon="2.04085">
        <ele>151.26</ele>
        <time>2020-02-20T09:43:39Z</time>
      </trkpt>
      <trkpt lat="48.75397" lon="2.04086">
        <ele>151.26</ele>
        <time>2020-02-20T09:43:51Z</time>
      </trkpt>
      <trkpt lat="48.75397" lon="2.04086">
        <ele>151.26</ele>
        <time>2020-02-20T09:44:04Z</time>
      </trkpt>
      <trkpt lat="48.75397" lon="2.04085">
        <ele>151.25</ele>
        <time>2020-02-20T09:44:18Z</time>
      </trkpt>
      <trkpt lat="48.75397" lon="2.04086">
        <ele>151.25</ele>
        <time>2020-02-20T09:44:31Z</time>
      </trkpt>
      <trkpt lat="48.75398" lon="2.04086">
        <ele>151.3</ele>
        <time>2020-02-20T09:44:47Z</time>
      </trkpt>
      <trkpt lat="48.75398" lon="2.04086">
        <ele>151.25</ele>
        <time>2020-02-20T09:44:57Z</time>
      </trkpt>
      <trkpt lat="48.75397" lon="2.04085">
        <ele>151.26</ele>
        <time>2020-02-20T09:45:15Z</time>
      </trkpt>
      <trkpt lat="48.75401" lon="2.04085">
        <ele>151.26</ele>
        <time>2020-02-20T09:45:23Z</time>
      </trkpt>
      <trkpt lat="48.75402" lon="2.04085">
        <ele>151.26</ele>
        <time>2020-02-20T09:45:25Z</time>
      </trkpt>
      <trkpt lat="48.75409" lon="2.04087">
        <ele>151.31</ele>
        <time>2020-02-20T09:45:32Z</time>
      </trkpt>
      <trkpt lat="48.75413" lon="2.04083">
        <ele>151.33</ele>
        <time>2020-02-20T09:45:40Z</time>
      </trkpt>
      <trkpt lat="48.75411" lon="2.04082">
        <ele>153.64</ele>
        <time>2020-02-20T09:45:48Z</time>
      </trkpt>
      <trkpt lat="48.75411" lon="2.04082">
        <ele>153.57</ele>
        <time>2020-02-20T09:45:56Z</time>
      </trkpt>
      <trkpt lat="48.75422" lon="2.04077">
        <ele>153.45</ele>
        <time>2020-02-20T09:46:06Z</time>
      </trkpt>
      <trkpt lat="48.75427" lon="2.04074">
        <ele>153.47</ele>
        <time>2020-02-20T09:46:11Z</time>
      </trkpt>
      <trkpt lat="48.75433" lon="2.04067">
        <ele>153.46</ele>
        <time>2020-02-20T09:46:20Z</time>
      </trkpt>
      <trkpt lat="48.75435" lon="2.0406">
        <ele>153.48</ele>
        <time>2020-02-20T09:46:26Z</time>
      </trkpt>
      <trkpt lat="48.75435" lon="2.04056">
        <ele>153.46</ele>
        <time>2020-02-20T09:46:28Z</time>
      </trkpt>
      <trkpt lat="48.75435" lon="2.04047">
        <ele>153.39</ele>
        <time>2020-02-20T09:46:34Z</time>
      </trkpt>
      <trkpt lat="48.75435" lon="2.04033">
        <ele>153.42</ele>
        <time>2020-02-20T09:46:41Z</time>
      </trkpt>
      <trkpt lat="48.75436" lon="2.0402">
        <ele>151.03</ele>
        <time>2020-02-20T09:46:49Z</time>
      </trkpt>
      <trkpt lat="48.75437" lon="2.04017">
        <ele>151.02</ele>
        <time>2020-02-20T09:46:51Z</time>
      </trkpt>
      <trkpt lat="48.75438" lon="2.04014">
        <ele>151.03</ele>
        <time>2020-02-20T09:46:53Z</time>
      </trkpt>
      <trkpt lat="48.7544" lon="2.04007">
        <ele>151.04</ele>
        <time>2020-02-20T09:46:57Z</time>
      </trkpt>
      <trkpt lat="48.75441" lon="2.04001">
        <ele>151.05</ele>
        <time>2020-02-20T09:47:01Z</time>
      </trkpt>
      <trkpt lat="48.75442" lon="2.03997">
        <ele>151.05</ele>
        <time>2020-02-20T09:47:03Z</time>
      </trkpt>
      <trkpt lat="48.75447" lon="2.0398">
        <ele>151.08</ele>
        <time>2020-02-20T09:47:12Z</time>
      </trkpt>
      <trkpt lat="48.75451" lon="2.0397">
        <ele>151.04</ele>
        <time>2020-02-20T09:47:19Z</time>
      </trkpt>
      <trkpt lat="48.75453" lon="2.03968">
        <ele>151.03</ele>
        <time>2020-02-20T09:47:21Z</time>
      </trkpt>
      <trkpt lat="48.75459" lon="2.03958">
        <ele>151</ele>
        <time>2020-02-20T09:47:29Z</time>
      </trkpt>
      <trkpt lat="48.75465" lon="2.03946">
        <ele>150.94</ele>
        <time>2020-02-20T09:47:38Z</time>
      </trkpt>
      <trkpt lat="48.75469" lon="2.03934">
        <ele>150.94</ele>
        <time>2020-02-20T09:47:45Z</time>
      </trkpt>
      <trkpt lat="48.75471" lon="2.0393">
        <ele>150.91</ele>
        <time>2020-02-20T09:47:48Z</time>
      </trkpt>
      <trkpt lat="48.75471" lon="2.03922">
        <ele>150.9</ele>
        <time>2020-02-20T09:47:51Z</time>
      </trkpt>
      <trkpt lat="48.75476" lon="2.03904">
        <ele>150.81</ele>
        <time>2020-02-20T09:48:00Z</time>
      </trkpt>
      <trkpt lat="48.75476" lon="2.039">
        <ele>150.8</ele>
        <time>2020-02-20T09:48:03Z</time>
      </trkpt>
      <trkpt lat="48.75475" lon="2.03884">
        <ele>149.82</ele>
        <time>2020-02-20T09:48:12Z</time>
      </trkpt>
      <trkpt lat="48.75472" lon="2.03871">
        <ele>148.97</ele>
        <time>2020-02-20T09:48:21Z</time>
      </trkpt>
      <trkpt lat="48.75468" lon="2.0386">
        <ele>148.98</ele>
        <time>2020-02-20T09:48:27Z</time>
      </trkpt>
      <trkpt lat="48.75466" lon="2.0385">
        <ele>148.16</ele>
        <time>2020-02-20T09:48:33Z</time>
      </trkpt>
      <trkpt lat="48.75463" lon="2.03837">
        <ele>146.86</ele>
        <time>2020-02-20T09:48:41Z</time>
      </trkpt>
      <trkpt lat="48.7546" lon="2.03825">
        <ele>146.87</ele>
        <time>2020-02-20T09:48:48Z</time>
      </trkpt>
      <trkpt lat="48.75458" lon="2.03814">
        <ele>146.05</ele>
        <time>2020-02-20T09:48:54Z</time>
      </trkpt>
      <trkpt lat="48.75456" lon="2.03808">
        <ele>142.26</ele>
        <time>2020-02-20T09:48:59Z</time>
      </trkpt>
      <trkpt lat="48.75456" lon="2.03807">
        <ele>146.09</ele>
        <time>2020-02-20T09:49:00Z</time>
      </trkpt>
      <trkpt lat="48.75453" lon="2.03798">
        <ele>145.97</ele>
        <time>2020-02-20T09:49:07Z</time>
      </trkpt>
      <trkpt lat="48.75445" lon="2.03794">
        <ele>143.35</ele>
        <time>2020-02-20T09:49:16Z</time>
      </trkpt>
      <trkpt lat="48.75433" lon="2.03793">
        <ele>141.23</ele>
        <time>2020-02-20T09:49:26Z</time>
      </trkpt>
      <trkpt lat="48.75432" lon="2.03793">
        <ele>141.2</ele>
        <time>2020-02-20T09:49:27Z</time>
      </trkpt>
      <trkpt lat="48.75427" lon="2.03788">
        <ele>139.44</ele>
        <time>2020-02-20T09:49:32Z</time>
      </trkpt>
      <trkpt lat="48.75423" lon="2.03777">
        <ele>138.02</ele>
        <time>2020-02-20T09:49:40Z</time>
      </trkpt>
      <trkpt lat="48.75425" lon="2.03767">
        <ele>137.91</ele>
        <time>2020-02-20T09:49:48Z</time>
      </trkpt>
      <trkpt lat="48.75427" lon="2.03754">
        <ele>137.09</ele>
        <time>2020-02-20T09:49:56Z</time>
      </trkpt>
      <trkpt lat="48.75429" lon="2.0374">
        <ele>136.18</ele>
        <time>2020-02-20T09:50:04Z</time>
      </trkpt>
      <trkpt lat="48.75431" lon="2.03724">
        <ele>135.14</ele>
        <time>2020-02-20T09:50:12Z</time>
      </trkpt>
      <trkpt lat="48.75429" lon="2.03711">
        <ele>134.22</ele>
        <time>2020-02-20T09:50:20Z</time>
      </trkpt>
      <trkpt lat="48.75429" lon="2.03697">
        <ele>134.17</ele>
        <time>2020-02-20T09:50:28Z</time>
      </trkpt>
      <trkpt lat="48.75429" lon="2.03691">
        <ele>132.93</ele>
        <time>2020-02-20T09:50:31Z</time>
      </trkpt>
      <trkpt lat="48.75428" lon="2.03677">
        <ele>132.93</ele>
        <time>2020-02-20T09:50:38Z</time>
      </trkpt>
      <trkpt lat="48.7543" lon="2.03667">
        <ele>132.91</ele>
        <time>2020-02-20T09:50:44Z</time>
      </trkpt>
      <trkpt lat="48.75433" lon="2.03657">
        <ele>132.91</ele>
        <time>2020-02-20T09:50:50Z</time>
      </trkpt>
      <trkpt lat="48.75435" lon="2.03644">
        <ele>132.86</ele>
        <time>2020-02-20T09:50:58Z</time>
      </trkpt>
      <trkpt lat="48.75438" lon="2.03632">
        <ele>132.88</ele>
        <time>2020-02-20T09:51:06Z</time>
      </trkpt>
      <trkpt lat="48.7544" lon="2.03618">
        <ele>131.97</ele>
        <time>2020-02-20T09:51:13Z</time>
      </trkpt>
      <trkpt lat="48.75444" lon="2.03607">
        <ele>132</ele>
        <time>2020-02-20T09:51:20Z</time>
      </trkpt>
      <trkpt lat="48.75446" lon="2.03597">
        <ele>132.01</ele>
        <time>2020-02-20T09:51:25Z</time>
      </trkpt>
      <trkpt lat="48.75448" lon="2.03595">
        <ele>132.01</ele>
        <time>2020-02-20T09:51:27Z</time>
      </trkpt>
      <trkpt lat="48.7545" lon="2.03584">
        <ele>132.05</ele>
        <time>2020-02-20T09:51:34Z</time>
      </trkpt>
      <trkpt lat="48.75453" lon="2.03569">
        <ele>132.07</ele>
        <time>2020-02-20T09:51:44Z</time>
      </trkpt>
      <trkpt lat="48.75456" lon="2.03556">
        <ele>132.07</ele>
        <time>2020-02-20T09:51:52Z</time>
      </trkpt>
      <trkpt lat="48.7546" lon="2.03545">
        <ele>132.06</ele>
        <time>2020-02-20T09:51:59Z</time>
      </trkpt>
      <trkpt lat="48.75462" lon="2.03543">
        <ele>130.77</ele>
        <time>2020-02-20T09:52:01Z</time>
      </trkpt>
      <trkpt lat="48.75464" lon="2.03531">
        <ele>130.84</ele>
        <time>2020-02-20T09:52:08Z</time>
      </trkpt>
      <trkpt lat="48.75467" lon="2.03515">
        <ele>130.86</ele>
        <time>2020-02-20T09:52:17Z</time>
      </trkpt>
      <trkpt lat="48.7547" lon="2.03504">
        <ele>130.9</ele>
        <time>2020-02-20T09:52:25Z</time>
      </trkpt>
      <trkpt lat="48.75471" lon="2.03496">
        <ele>133.42</ele>
        <time>2020-02-20T09:52:30Z</time>
      </trkpt>
      <trkpt lat="48.75473" lon="2.03479">
        <ele>133.39</ele>
        <time>2020-02-20T09:52:40Z</time>
      </trkpt>
      <trkpt lat="48.75476" lon="2.03466">
        <ele>133.35</ele>
        <time>2020-02-20T09:52:48Z</time>
      </trkpt>
      <trkpt lat="48.75478" lon="2.0345">
        <ele>133.37</ele>
        <time>2020-02-20T09:52:56Z</time>
      </trkpt>
      <trkpt lat="48.75479" lon="2.03435">
        <ele>133.36</ele>
        <time>2020-02-20T09:53:05Z</time>
      </trkpt>
      <trkpt lat="48.75479" lon="2.0342">
        <ele>134.16</ele>
        <time>2020-02-20T09:53:13Z</time>
      </trkpt>
      <trkpt lat="48.75481" lon="2.03406">
        <ele>134.15</ele>
        <time>2020-02-20T09:53:21Z</time>
      </trkpt>
      <trkpt lat="48.75482" lon="2.03394">
        <ele>134.16</ele>
        <time>2020-02-20T09:53:28Z</time>
      </trkpt>
      <trkpt lat="48.75484" lon="2.03384">
        <ele>134.15</ele>
        <time>2020-02-20T09:53:35Z</time>
      </trkpt>
      <trkpt lat="48.75485" lon="2.03368">
        <ele>134.15</ele>
        <time>2020-02-20T09:53:43Z</time>
      </trkpt>
      <trkpt lat="48.75485" lon="2.03351">
        <ele>134.19</ele>
        <time>2020-02-20T09:53:51Z</time>
      </trkpt>
      <trkpt lat="48.75486" lon="2.03336">
        <ele>134.29</ele>
        <time>2020-02-20T09:53:59Z</time>
      </trkpt>
      <trkpt lat="48.75487" lon="2.03323">
        <ele>134.29</ele>
        <time>2020-02-20T09:54:06Z</time>
      </trkpt>
      <trkpt lat="48.75491" lon="2.03313">
        <ele>134.34</ele>
        <time>2020-02-20T09:54:14Z</time>
      </trkpt>
      <trkpt lat="48.75494" lon="2.03303">
        <ele>134.39</ele>
        <time>2020-02-20T09:54:21Z</time>
      </trkpt>
      <trkpt lat="48.75498" lon="2.03299">
        <ele>135.28</ele>
        <time>2020-02-20T09:54:28Z</time>
      </trkpt>
      <trkpt lat="48.75502" lon="2.03289">
        <ele>135.3</ele>
        <time>2020-02-20T09:54:41Z</time>
      </trkpt>
      <trkpt lat="48.75509" lon="2.03282">
        <ele>135.34</ele>
        <time>2020-02-20T09:54:49Z</time>
      </trkpt>
      <trkpt lat="48.75516" lon="2.03272">
        <ele>135.47</ele>
        <time>2020-02-20T09:54:58Z</time>
      </trkpt>
      <trkpt lat="48.75516" lon="2.0327">
        <ele>135.45</ele>
        <time>2020-02-20T09:54:59Z</time>
      </trkpt>
      <trkpt lat="48.75525" lon="2.0326">
        <ele>135.5</ele>
        <time>2020-02-20T09:55:08Z</time>
      </trkpt>
      <trkpt lat="48.75533" lon="2.03246">
        <ele>135.54</ele>
        <time>2020-02-20T09:55:18Z</time>
      </trkpt>
      <trkpt lat="48.75534" lon="2.03245">
        <ele>135.53</ele>
        <time>2020-02-20T09:55:19Z</time>
      </trkpt>
      <trkpt lat="48.75541" lon="2.03232">
        <ele>135.58</ele>
        <time>2020-02-20T09:55:28Z</time>
      </trkpt>
      <trkpt lat="48.75548" lon="2.03222">
        <ele>135.65</ele>
        <time>2020-02-20T09:55:37Z</time>
      </trkpt>
      <trkpt lat="48.75553" lon="2.03215">
        <ele>135.71</ele>
        <time>2020-02-20T09:55:44Z</time>
      </trkpt>
      <trkpt lat="48.75559" lon="2.03205">
        <ele>135.67</ele>
        <time>2020-02-20T09:55:53Z</time>
      </trkpt>
      <trkpt lat="48.75564" lon="2.03194">
        <ele>135.66</ele>
        <time>2020-02-20T09:56:01Z</time>
      </trkpt>
      <trkpt lat="48.75565" lon="2.03192">
        <ele>135.67</ele>
        <time>2020-02-20T09:56:02Z</time>
      </trkpt>
      <trkpt lat="48.75566" lon="2.03189">
        <ele>135.65</ele>
        <time>2020-02-20T09:56:04Z</time>
      </trkpt>
      <trkpt lat="48.75571" lon="2.03175">
        <ele>135.66</ele>
        <time>2020-02-20T09:56:12Z</time>
      </trkpt>
      <trkpt lat="48.75573" lon="2.03164">
        <ele>135.68</ele>
        <time>2020-02-20T09:56:18Z</time>
      </trkpt>
      <trkpt lat="48.75576" lon="2.03152">
        <ele>135.68</ele>
        <time>2020-02-20T09:56:25Z</time>
      </trkpt>
      <trkpt lat="48.7558" lon="2.03136">
        <ele>136.47</ele>
        <time>2020-02-20T09:56:34Z</time>
      </trkpt>
      <trkpt lat="48.75581" lon="2.0313">
        <ele>136.51</ele>
        <time>2020-02-20T09:56:37Z</time>
      </trkpt>
      <trkpt lat="48.75586" lon="2.03116">
        <ele>136.56</ele>
        <time>2020-02-20T09:56:46Z</time>
      </trkpt>
      <trkpt lat="48.75593" lon="2.03108">
        <ele>136.61</ele>
        <time>2020-02-20T09:56:55Z</time>
      </trkpt>
      <trkpt lat="48.756" lon="2.03099">
        <ele>137.68</ele>
        <time>2020-02-20T09:57:03Z</time>
      </trkpt>
      <trkpt lat="48.75605" lon="2.03093">
        <ele>138.96</ele>
        <time>2020-02-20T09:57:09Z</time>
      </trkpt>
      <trkpt lat="48.75609" lon="2.03085">
        <ele>140.25</ele>
        <time>2020-02-20T09:57:15Z</time>
      </trkpt>
      <trkpt lat="48.75614" lon="2.03077">
        <ele>140.23</ele>
        <time>2020-02-20T09:57:22Z</time>
      </trkpt>
      <trkpt lat="48.75614" lon="2.03076">
        <ele>140.25</ele>
        <time>2020-02-20T09:57:23Z</time>
      </trkpt>
      <trkpt lat="48.75619" lon="2.03063">
        <ele>141.08</ele>
        <time>2020-02-20T09:57:33Z</time>
      </trkpt>
      <trkpt lat="48.7562" lon="2.03054">
        <ele>141.11</ele>
        <time>2020-02-20T09:57:40Z</time>
      </trkpt>
      <trkpt lat="48.75625" lon="2.03043">
        <ele>141.14</ele>
        <time>2020-02-20T09:57:48Z</time>
      </trkpt>
      <trkpt lat="48.75629" lon="2.03034">
        <ele>141.92</ele>
        <time>2020-02-20T09:57:56Z</time>
      </trkpt>
      <trkpt lat="48.75631" lon="2.03017">
        <ele>141.95</ele>
        <time>2020-02-20T09:58:06Z</time>
      </trkpt>
      <trkpt lat="48.7563" lon="2.03015">
        <ele>141.96</ele>
        <time>2020-02-20T09:58:08Z</time>
      </trkpt>
      <trkpt lat="48.75627" lon="2.03004">
        <ele>142</ele>
        <time>2020-02-20T09:58:16Z</time>
      </trkpt>
      <trkpt lat="48.75625" lon="2.03003">
        <ele>142.01</ele>
        <time>2020-02-20T09:58:18Z</time>
      </trkpt>
      <trkpt lat="48.75616" lon="2.02998">
        <ele>142.04</ele>
        <time>2020-02-20T09:58:27Z</time>
      </trkpt>
      <trkpt lat="48.75614" lon="2.02996">
        <ele>139.3</ele>
        <time>2020-02-20T09:58:29Z</time>
      </trkpt>
      <trkpt lat="48.75612" lon="2.02986">
        <ele>139.31</ele>
        <time>2020-02-20T09:58:36Z</time>
      </trkpt>
      <trkpt lat="48.75611" lon="2.02983">
        <ele>138.5</ele>
        <time>2020-02-20T09:58:38Z</time>
      </trkpt>
      <trkpt lat="48.7561" lon="2.0297">
        <ele>138.56</ele>
        <time>2020-02-20T09:58:46Z</time>
      </trkpt>
      <trkpt lat="48.75609" lon="2.02955">
        <ele>138.63</ele>
        <time>2020-02-20T09:58:55Z</time>
      </trkpt>
      <trkpt lat="48.75609" lon="2.02944">
        <ele>137.83</ele>
        <time>2020-02-20T09:59:02Z</time>
      </trkpt>
      <trkpt lat="48.75609" lon="2.02934">
        <ele>137.88</ele>
        <time>2020-02-20T09:59:08Z</time>
      </trkpt>
      <trkpt lat="48.75609" lon="2.0293">
        <ele>137.88</ele>
        <time>2020-02-20T09:59:10Z</time>
      </trkpt>
      <trkpt lat="48.75609" lon="2.02912">
        <ele>137.9</ele>
        <time>2020-02-20T09:59:19Z</time>
      </trkpt>
      <trkpt lat="48.75606" lon="2.02897">
        <ele>137.89</ele>
        <time>2020-02-20T09:59:27Z</time>
      </trkpt>
      <trkpt lat="48.75608" lon="2.02887">
        <ele>137.91</ele>
        <time>2020-02-20T09:59:35Z</time>
      </trkpt>
      <trkpt lat="48.75608" lon="2.02872">
        <ele>137.92</ele>
        <time>2020-02-20T09:59:45Z</time>
      </trkpt>
      <trkpt lat="48.75604" lon="2.02861">
        <ele>137.9</ele>
        <time>2020-02-20T09:59:54Z</time>
      </trkpt>
      <trkpt lat="48.75604" lon="2.02845">
        <ele>137.91</ele>
        <time>2020-02-20T10:00:02Z</time>
      </trkpt>
      <trkpt lat="48.75601" lon="2.02835">
        <ele>137.87</ele>
        <time>2020-02-20T10:00:07Z</time>
      </trkpt>
      <trkpt lat="48.75598" lon="2.02824">
        <ele>137.86</ele>
        <time>2020-02-20T10:00:14Z</time>
      </trkpt>
      <trkpt lat="48.75597" lon="2.0281">
        <ele>137.82</ele>
        <time>2020-02-20T10:00:25Z</time>
      </trkpt>
      <trkpt lat="48.75597" lon="2.02801">
        <ele>137.81</ele>
        <time>2020-02-20T10:00:33Z</time>
      </trkpt>
      <trkpt lat="48.75596" lon="2.02789">
        <ele>137.8</ele>
        <time>2020-02-20T10:00:39Z</time>
      </trkpt>
      <trkpt lat="48.75596" lon="2.02778">
        <ele>137.8</ele>
        <time>2020-02-20T10:00:47Z</time>
      </trkpt>
      <trkpt lat="48.75595" lon="2.02769">
        <ele>140.12</ele>
        <time>2020-02-20T10:00:53Z</time>
      </trkpt>
      <trkpt lat="48.75596" lon="2.02753">
        <ele>140.1</ele>
        <time>2020-02-20T10:01:02Z</time>
      </trkpt>
      <trkpt lat="48.75594" lon="2.02737">
        <ele>140.09</ele>
        <time>2020-02-20T10:01:11Z</time>
      </trkpt>
      <trkpt lat="48.75592" lon="2.02725">
        <ele>140.09</ele>
        <time>2020-02-20T10:01:18Z</time>
      </trkpt>
      <trkpt lat="48.75592" lon="2.02714">
        <ele>140.08</ele>
        <time>2020-02-20T10:01:25Z</time>
      </trkpt>
      <trkpt lat="48.75591" lon="2.02699">
        <ele>140.09</ele>
        <time>2020-02-20T10:01:34Z</time>
      </trkpt>
      <trkpt lat="48.75591" lon="2.02685">
        <ele>140.07</ele>
        <time>2020-02-20T10:01:42Z</time>
      </trkpt>
      <trkpt lat="48.75592" lon="2.02672">
        <ele>140.07</ele>
        <time>2020-02-20T10:01:50Z</time>
      </trkpt>
      <trkpt lat="48.7559" lon="2.02659">
        <ele>140.08</ele>
        <time>2020-02-20T10:01:57Z</time>
      </trkpt>
      <trkpt lat="48.75591" lon="2.02644">
        <ele>140.91</ele>
        <time>2020-02-20T10:02:06Z</time>
      </trkpt>
      <trkpt lat="48.7559" lon="2.02632">
        <ele>140.92</ele>
        <time>2020-02-20T10:02:13Z</time>
      </trkpt>
      <trkpt lat="48.75592" lon="2.02617">
        <ele>140.92</ele>
        <time>2020-02-20T10:02:22Z</time>
      </trkpt>
      <trkpt lat="48.75592" lon="2.026">
        <ele>140.96</ele>
        <time>2020-02-20T10:02:31Z</time>
      </trkpt>
      <trkpt lat="48.75596" lon="2.02583">
        <ele>141</ele>
        <time>2020-02-20T10:02:41Z</time>
      </trkpt>
      <trkpt lat="48.756" lon="2.02568">
        <ele>141.84</ele>
        <time>2020-02-20T10:02:50Z</time>
      </trkpt>
      <trkpt lat="48.75602" lon="2.02559">
        <ele>142.78</ele>
        <time>2020-02-20T10:02:58Z</time>
      </trkpt>
      <trkpt lat="48.75604" lon="2.02547">
        <ele>142.83</ele>
        <time>2020-02-20T10:03:07Z</time>
      </trkpt>
      <trkpt lat="48.75607" lon="2.02538">
        <ele>143.98</ele>
        <time>2020-02-20T10:03:14Z</time>
      </trkpt>
      <trkpt lat="48.75609" lon="2.0253">
        <ele>141.13</ele>
        <time>2020-02-20T10:03:21Z</time>
      </trkpt>
      <trkpt lat="48.7561" lon="2.02527">
        <ele>143.55</ele>
        <time>2020-02-20T10:03:23Z</time>
      </trkpt>
      <trkpt lat="48.75613" lon="2.02511">
        <ele>143.62</ele>
        <time>2020-02-20T10:03:36Z</time>
      </trkpt>
      <trkpt lat="48.75614" lon="2.02498">
        <ele>143.68</ele>
        <time>2020-02-20T10:03:47Z</time>
      </trkpt>
      <trkpt lat="48.75618" lon="2.02486">
        <ele>143.72</ele>
        <time>2020-02-20T10:03:55Z</time>
      </trkpt>
      <trkpt lat="48.75624" lon="2.02477">
        <ele>143.76</ele>
        <time>2020-02-20T10:04:02Z</time>
      </trkpt>
      <trkpt lat="48.75628" lon="2.0247">
        <ele>143.79</ele>
        <time>2020-02-20T10:04:07Z</time>
      </trkpt>
      <trkpt lat="48.75629" lon="2.02466">
        <ele>143.81</ele>
        <time>2020-02-20T10:04:09Z</time>
      </trkpt>
      <trkpt lat="48.75635" lon="2.02453">
        <ele>143.87</ele>
        <time>2020-02-20T10:04:17Z</time>
      </trkpt>
      <trkpt lat="48.7564" lon="2.02445">
        <ele>143.92</ele>
        <time>2020-02-20T10:04:23Z</time>
      </trkpt>
      <trkpt lat="48.75646" lon="2.02439">
        <ele>144.77</ele>
        <time>2020-02-20T10:04:30Z</time>
      </trkpt>
      <trkpt lat="48.75652" lon="2.0243">
        <ele>144.84</ele>
        <time>2020-02-20T10:04:37Z</time>
      </trkpt>
      <trkpt lat="48.75659" lon="2.02424">
        <ele>146.59</ele>
        <time>2020-02-20T10:04:45Z</time>
      </trkpt>
      <trkpt lat="48.75665" lon="2.02418">
        <ele>146.67</ele>
        <time>2020-02-20T10:04:51Z</time>
      </trkpt>
      <trkpt lat="48.75671" lon="2.02413">
        <ele>146.62</ele>
        <time>2020-02-20T10:04:58Z</time>
      </trkpt>
      <trkpt lat="48.75678" lon="2.02405">
        <ele>147.51</ele>
        <time>2020-02-20T10:05:06Z</time>
      </trkpt>
      <trkpt lat="48.75683" lon="2.02398">
        <ele>147.54</ele>
        <time>2020-02-20T10:05:12Z</time>
      </trkpt>
      <trkpt lat="48.75689" lon="2.02392">
        <ele>147.57</ele>
        <time>2020-02-20T10:05:19Z</time>
      </trkpt>
      <trkpt lat="48.75695" lon="2.02385">
        <ele>147.57</ele>
        <time>2020-02-20T10:05:26Z</time>
      </trkpt>
      <trkpt lat="48.75697" lon="2.02381">
        <ele>147.57</ele>
        <time>2020-02-20T10:05:29Z</time>
      </trkpt>
      <trkpt lat="48.75705" lon="2.02371">
        <ele>148.54</ele>
        <time>2020-02-20T10:05:38Z</time>
      </trkpt>
      <trkpt lat="48.75711" lon="2.0236">
        <ele>148.54</ele>
        <time>2020-02-20T10:05:46Z</time>
      </trkpt>
      <trkpt lat="48.75718" lon="2.02349">
        <ele>148.54</ele>
        <time>2020-02-20T10:05:53Z</time>
      </trkpt>
      <trkpt lat="48.75724" lon="2.02336">
        <ele>148.53</ele>
        <time>2020-02-20T10:06:01Z</time>
      </trkpt>
      <trkpt lat="48.7573" lon="2.02328">
        <ele>149.35</ele>
        <time>2020-02-20T10:06:07Z</time>
      </trkpt>
      <trkpt lat="48.75733" lon="2.02322">
        <ele>149.36</ele>
        <time>2020-02-20T10:06:11Z</time>
      </trkpt>
      <trkpt lat="48.75738" lon="2.02317">
        <ele>149.36</ele>
        <time>2020-02-20T10:06:15Z</time>
      </trkpt>
      <trkpt lat="48.75744" lon="2.0231">
        <ele>149.35</ele>
        <time>2020-02-20T10:06:22Z</time>
      </trkpt>
      <trkpt lat="48.75749" lon="2.02302">
        <ele>149.36</ele>
        <time>2020-02-20T10:06:28Z</time>
      </trkpt>
      <trkpt lat="48.75754" lon="2.02296">
        <ele>149.35</ele>
        <time>2020-02-20T10:06:34Z</time>
      </trkpt>
      <trkpt lat="48.7576" lon="2.02287">
        <ele>149.37</ele>
        <time>2020-02-20T10:06:41Z</time>
      </trkpt>
      <trkpt lat="48.75763" lon="2.02283">
        <ele>149.37</ele>
        <time>2020-02-20T10:06:45Z</time>
      </trkpt>
      <trkpt lat="48.75772" lon="2.02277">
        <ele>149.37</ele>
        <time>2020-02-20T10:06:53Z</time>
      </trkpt>
      <trkpt lat="48.7578" lon="2.02271">
        <ele>149.39</ele>
        <time>2020-02-20T10:07:02Z</time>
      </trkpt>
      <trkpt lat="48.75787" lon="2.02264">
        <ele>149.4</ele>
        <time>2020-02-20T10:07:09Z</time>
      </trkpt>
      <trkpt lat="48.75797" lon="2.02253">
        <ele>149.41</ele>
        <time>2020-02-20T10:07:18Z</time>
      </trkpt>
      <trkpt lat="48.75802" lon="2.02249">
        <ele>149.38</ele>
        <time>2020-02-20T10:07:23Z</time>
      </trkpt>
      <trkpt lat="48.75809" lon="2.02244">
        <ele>149.44</ele>
        <time>2020-02-20T10:07:30Z</time>
      </trkpt>
      <trkpt lat="48.75816" lon="2.02242">
        <ele>149.45</ele>
        <time>2020-02-20T10:07:36Z</time>
      </trkpt>
      <trkpt lat="48.75826" lon="2.02236">
        <ele>149.48</ele>
        <time>2020-02-20T10:07:44Z</time>
      </trkpt>
      <trkpt lat="48.75832" lon="2.02232">
        <ele>149.5</ele>
        <time>2020-02-20T10:07:50Z</time>
      </trkpt>
      <trkpt lat="48.75841" lon="2.02227">
        <ele>149.52</ele>
        <time>2020-02-20T10:07:58Z</time>
      </trkpt>
      <trkpt lat="48.75846" lon="2.02223">
        <ele>149.52</ele>
        <time>2020-02-20T10:08:03Z</time>
      </trkpt>
      <trkpt lat="48.75849" lon="2.0222">
        <ele>149.54</ele>
        <time>2020-02-20T10:08:06Z</time>
      </trkpt>
      <trkpt lat="48.75858" lon="2.02212">
        <ele>149.54</ele>
        <time>2020-02-20T10:08:15Z</time>
      </trkpt>
      <trkpt lat="48.75859" lon="2.02212">
        <ele>149.55</ele>
        <time>2020-02-20T10:08:16Z</time>
      </trkpt>
      <trkpt lat="48.75865" lon="2.02207">
        <ele>150.55</ele>
        <time>2020-02-20T10:08:22Z</time>
      </trkpt>
      <trkpt lat="48.75867" lon="2.02203">
        <ele>150.56</ele>
        <time>2020-02-20T10:08:25Z</time>
      </trkpt>
      <trkpt lat="48.75875" lon="2.02196">
        <ele>150.56</ele>
        <time>2020-02-20T10:08:32Z</time>
      </trkpt>
      <trkpt lat="48.75875" lon="2.02195">
        <ele>150.56</ele>
        <time>2020-02-20T10:08:33Z</time>
      </trkpt>
      <trkpt lat="48.7588" lon="2.02189">
        <ele>150.57</ele>
        <time>2020-02-20T10:08:38Z</time>
      </trkpt>
      <trkpt lat="48.75882" lon="2.02185">
        <ele>150.57</ele>
        <time>2020-02-20T10:08:40Z</time>
      </trkpt>
      <trkpt lat="48.75888" lon="2.02182">
        <ele>150.59</ele>
        <time>2020-02-20T10:08:46Z</time>
      </trkpt>
      <trkpt lat="48.75889" lon="2.02181">
        <ele>150.59</ele>
        <time>2020-02-20T10:08:47Z</time>
      </trkpt>
      <trkpt lat="48.75897" lon="2.02173">
        <ele>150.61</ele>
        <time>2020-02-20T10:08:56Z</time>
      </trkpt>
      <trkpt lat="48.75899" lon="2.02172">
        <ele>150.62</ele>
        <time>2020-02-20T10:08:58Z</time>
      </trkpt>
      <trkpt lat="48.75902" lon="2.02171">
        <ele>150.63</ele>
        <time>2020-02-20T10:09:01Z</time>
      </trkpt>
      <trkpt lat="48.75909" lon="2.02164">
        <ele>150.66</ele>
        <time>2020-02-20T10:09:09Z</time>
      </trkpt>
      <trkpt lat="48.75916" lon="2.02154">
        <ele>151.48</ele>
        <time>2020-02-20T10:09:17Z</time>
      </trkpt>
      <trkpt lat="48.75922" lon="2.02145">
        <ele>151.5</ele>
        <time>2020-02-20T10:09:24Z</time>
      </trkpt>
      <trkpt lat="48.75928" lon="2.02139">
        <ele>151.51</ele>
        <time>2020-02-20T10:09:31Z</time>
      </trkpt>
      <trkpt lat="48.75937" lon="2.02131">
        <ele>151.55</ele>
        <time>2020-02-20T10:09:40Z</time>
      </trkpt>
      <trkpt lat="48.75943" lon="2.02125">
        <ele>151.56</ele>
        <time>2020-02-20T10:09:47Z</time>
      </trkpt>
      <trkpt lat="48.75952" lon="2.02118">
        <ele>151.58</ele>
        <time>2020-02-20T10:09:55Z</time>
      </trkpt>
      <trkpt lat="48.75962" lon="2.02112">
        <ele>152.38</ele>
        <time>2020-02-20T10:10:04Z</time>
      </trkpt>
      <trkpt lat="48.75972" lon="2.02107">
        <ele>152.4</ele>
        <time>2020-02-20T10:10:14Z</time>
      </trkpt>
      <trkpt lat="48.7598" lon="2.02111">
        <ele>152.42</ele>
        <time>2020-02-20T10:10:23Z</time>
      </trkpt>
      <trkpt lat="48.75991" lon="2.02113">
        <ele>153.36</ele>
        <time>2020-02-20T10:10:33Z</time>
      </trkpt>
      <trkpt lat="48.76001" lon="2.0211">
        <ele>154.25</ele>
        <time>2020-02-20T10:10:43Z</time>
      </trkpt>
      <trkpt lat="48.76009" lon="2.02107">
        <ele>154.17</ele>
        <time>2020-02-20T10:10:53Z</time>
      </trkpt>
      <trkpt lat="48.76019" lon="2.02103">
        <ele>154.97</ele>
        <time>2020-02-20T10:11:05Z</time>
      </trkpt>
      <trkpt lat="48.76025" lon="2.02102">
        <ele>154.96</ele>
        <time>2020-02-20T10:11:14Z</time>
      </trkpt>
      <trkpt lat="48.76031" lon="2.02098">
        <ele>155.77</ele>
        <time>2020-02-20T10:11:25Z</time>
      </trkpt>
      <trkpt lat="48.76032" lon="2.02092">
        <ele>153.4</ele>
        <time>2020-02-20T10:11:40Z</time>
      </trkpt>
      <trkpt lat="48.76033" lon="2.02091">
        <ele>155.84</ele>
        <time>2020-02-20T10:11:44Z</time>
      </trkpt>
      <trkpt lat="48.7604" lon="2.02097">
        <ele>155.91</ele>
        <time>2020-02-20T10:12:01Z</time>
      </trkpt>
      <trkpt lat="48.76042" lon="2.02097">
        <ele>155.82</ele>
        <time>2020-02-20T10:12:05Z</time>
      </trkpt>
      <trkpt lat="48.76043" lon="2.02094">
        <ele>155.79</ele>
        <time>2020-02-20T10:12:16Z</time>
      </trkpt>
      <trkpt lat="48.76045" lon="2.02085">
        <ele>155.84</ele>
        <time>2020-02-20T10:12:26Z</time>
      </trkpt>
      <trkpt lat="48.76044" lon="2.02072">
        <ele>155.9</ele>
        <time>2020-02-20T10:12:35Z</time>
      </trkpt>
      <trkpt lat="48.76038" lon="2.02061">
        <ele>155.97</ele>
        <time>2020-02-20T10:12:44Z</time>
      </trkpt>
      <trkpt lat="48.76031" lon="2.02049">
        <ele>155.97</ele>
        <time>2020-02-20T10:12:53Z</time>
      </trkpt>
      <trkpt lat="48.76031" lon="2.02047">
        <ele>156</ele>
        <time>2020-02-20T10:12:54Z</time>
      </trkpt>
      <trkpt lat="48.76026" lon="2.02038">
        <ele>153.76</ele>
        <time>2020-02-20T10:13:02Z</time>
      </trkpt>
      <trkpt lat="48.76023" lon="2.02029">
        <ele>153.73</ele>
        <time>2020-02-20T10:13:11Z</time>
      </trkpt>
      <trkpt lat="48.76015" lon="2.02012">
        <ele>153.87</ele>
        <time>2020-02-20T10:13:21Z</time>
      </trkpt>
      <trkpt lat="48.76011" lon="2.02005">
        <ele>153.84</ele>
        <time>2020-02-20T10:13:25Z</time>
      </trkpt>
      <trkpt lat="48.76005" lon="2.01993">
        <ele>153.83</ele>
        <time>2020-02-20T10:13:33Z</time>
      </trkpt>
      <trkpt lat="48.76001" lon="2.01983">
        <ele>153.8</ele>
        <time>2020-02-20T10:13:40Z</time>
      </trkpt>
      <trkpt lat="48.75996" lon="2.01971">
        <ele>153.05</ele>
        <time>2020-02-20T10:13:48Z</time>
      </trkpt>
      <trkpt lat="48.7599" lon="2.01956">
        <ele>153.07</ele>
        <time>2020-02-20T10:13:59Z</time>
      </trkpt>
      <trkpt lat="48.75986" lon="2.01942">
        <ele>152.1</ele>
        <time>2020-02-20T10:14:07Z</time>
      </trkpt>
      <trkpt lat="48.75985" lon="2.0194">
        <ele>152.1</ele>
        <time>2020-02-20T10:14:09Z</time>
      </trkpt>
      <trkpt lat="48.75979" lon="2.01925">
        <ele>152.12</ele>
        <time>2020-02-20T10:14:19Z</time>
      </trkpt>
      <trkpt lat="48.75974" lon="2.01911">
        <ele>152.2</ele>
        <time>2020-02-20T10:14:27Z</time>
      </trkpt>
      <trkpt lat="48.7597" lon="2.01902">
        <ele>152.24</ele>
        <time>2020-02-20T10:14:33Z</time>
      </trkpt>
      <trkpt lat="48.75966" lon="2.01884">
        <ele>152.2</ele>
        <time>2020-02-20T10:14:43Z</time>
      </trkpt>
      <trkpt lat="48.75961" lon="2.01874">
        <ele>150.89</ele>
        <time>2020-02-20T10:14:49Z</time>
      </trkpt>
      <trkpt lat="48.75961" lon="2.01872">
        <ele>150.91</ele>
        <time>2020-02-20T10:14:50Z</time>
      </trkpt>
      <trkpt lat="48.75954" lon="2.01858">
        <ele>149.95</ele>
        <time>2020-02-20T10:14:59Z</time>
      </trkpt>
      <trkpt lat="48.7595" lon="2.01844">
        <ele>150.12</ele>
        <time>2020-02-20T10:15:07Z</time>
      </trkpt>
      <trkpt lat="48.75945" lon="2.01829">
        <ele>150.23</ele>
        <time>2020-02-20T10:15:16Z</time>
      </trkpt>
      <trkpt lat="48.7594" lon="2.01817">
        <ele>150.24</ele>
        <time>2020-02-20T10:15:23Z</time>
      </trkpt>
      <trkpt lat="48.75937" lon="2.01808">
        <ele>150.22</ele>
        <time>2020-02-20T10:15:31Z</time>
      </trkpt>
      <trkpt lat="48.75931" lon="2.01791">
        <ele>150.17</ele>
        <time>2020-02-20T10:15:43Z</time>
      </trkpt>
      <trkpt lat="48.75929" lon="2.01784">
        <ele>152.59</ele>
        <time>2020-02-20T10:15:47Z</time>
      </trkpt>
      <trkpt lat="48.75925" lon="2.01774">
        <ele>152.67</ele>
        <time>2020-02-20T10:15:54Z</time>
      </trkpt>
      <trkpt lat="48.75916" lon="2.01765">
        <ele>152.72</ele>
        <time>2020-02-20T10:16:04Z</time>
      </trkpt>
      <trkpt lat="48.75907" lon="2.01758">
        <ele>152.81</ele>
        <time>2020-02-20T10:16:14Z</time>
      </trkpt>
      <trkpt lat="48.75899" lon="2.01752">
        <ele>153.52</ele>
        <time>2020-02-20T10:16:22Z</time>
      </trkpt>
      <trkpt lat="48.75894" lon="2.01747">
        <ele>153.5</ele>
        <time>2020-02-20T10:16:27Z</time>
      </trkpt>
      <trkpt lat="48.75886" lon="2.01741">
        <ele>153.42</ele>
        <time>2020-02-20T10:16:36Z</time>
      </trkpt>
      <trkpt lat="48.75879" lon="2.01735">
        <ele>153.39</ele>
        <time>2020-02-20T10:16:45Z</time>
      </trkpt>
      <trkpt lat="48.75869" lon="2.01726">
        <ele>153.33</ele>
        <time>2020-02-20T10:16:54Z</time>
      </trkpt>
      <trkpt lat="48.75856" lon="2.01719">
        <ele>154.26</ele>
        <time>2020-02-20T10:17:04Z</time>
      </trkpt>
      <trkpt lat="48.75848" lon="2.01713">
        <ele>154.14</ele>
        <time>2020-02-20T10:17:11Z</time>
      </trkpt>
      <trkpt lat="48.75837" lon="2.01707">
        <ele>154.85</ele>
        <time>2020-02-20T10:17:21Z</time>
      </trkpt>
      <trkpt lat="48.7583" lon="2.01705">
        <ele>154.79</ele>
        <time>2020-02-20T10:17:30Z</time>
      </trkpt>
      <trkpt lat="48.75821" lon="2.01696">
        <ele>154.6</ele>
        <time>2020-02-20T10:17:41Z</time>
      </trkpt>
      <trkpt lat="48.7582" lon="2.01695">
        <ele>154.6</ele>
        <time>2020-02-20T10:17:42Z</time>
      </trkpt>
      <trkpt lat="48.75809" lon="2.01687">
        <ele>154.5</ele>
        <time>2020-02-20T10:17:51Z</time>
      </trkpt>
      <trkpt lat="48.758" lon="2.01681">
        <ele>154.45</ele>
        <time>2020-02-20T10:17:59Z</time>
      </trkpt>
      <trkpt lat="48.75794" lon="2.01676">
        <ele>154.4</ele>
        <time>2020-02-20T10:18:06Z</time>
      </trkpt>
      <trkpt lat="48.75782" lon="2.0167">
        <ele>154.32</ele>
        <time>2020-02-20T10:18:15Z</time>
      </trkpt>
      <trkpt lat="48.7577" lon="2.01665">
        <ele>155.33</ele>
        <time>2020-02-20T10:18:26Z</time>
      </trkpt>
      <trkpt lat="48.75759" lon="2.01662">
        <ele>155.25</ele>
        <time>2020-02-20T10:18:35Z</time>
      </trkpt>
      <trkpt lat="48.75754" lon="2.01655">
        <ele>155.17</ele>
        <time>2020-02-20T10:18:43Z</time>
      </trkpt>
      <trkpt lat="48.75744" lon="2.01649">
        <ele>155.13</ele>
        <time>2020-02-20T10:18:54Z</time>
      </trkpt>
      <trkpt lat="48.75741" lon="2.01647">
        <ele>155.1</ele>
        <time>2020-02-20T10:18:57Z</time>
      </trkpt>
      <trkpt lat="48.75734" lon="2.01647">
        <ele>155.09</ele>
        <time>2020-02-20T10:19:05Z</time>
      </trkpt>
      <trkpt lat="48.75729" lon="2.01652">
        <ele>155.07</ele>
        <time>2020-02-20T10:19:14Z</time>
      </trkpt>
      <trkpt lat="48.75725" lon="2.01665">
        <ele>155.08</ele>
        <time>2020-02-20T10:19:27Z</time>
      </trkpt>
      <trkpt lat="48.7572" lon="2.0167">
        <ele>154.99</ele>
        <time>2020-02-20T10:19:37Z</time>
      </trkpt>
      <trkpt lat="48.75715" lon="2.01667">
        <ele>154.98</ele>
        <time>2020-02-20T10:19:46Z</time>
      </trkpt>
      <trkpt lat="48.75709" lon="2.01661">
        <ele>154.93</ele>
        <time>2020-02-20T10:19:55Z</time>
      </trkpt>
      <trkpt lat="48.75703" lon="2.01666">
        <ele>154.92</ele>
        <time>2020-02-20T10:20:03Z</time>
      </trkpt>
      <trkpt lat="48.75698" lon="2.01674">
        <ele>154.89</ele>
        <time>2020-02-20T10:20:12Z</time>
      </trkpt>
      <trkpt lat="48.75694" lon="2.01686">
        <ele>154.83</ele>
        <time>2020-02-20T10:20:21Z</time>
      </trkpt>
      <trkpt lat="48.75691" lon="2.01697">
        <ele>154.74</ele>
        <time>2020-02-20T10:20:31Z</time>
      </trkpt>
      <trkpt lat="48.7569" lon="2.01714">
        <ele>154.64</ele>
        <time>2020-02-20T10:20:40Z</time>
      </trkpt>
      <trkpt lat="48.75688" lon="2.01725">
        <ele>154.64</ele>
        <time>2020-02-20T10:20:48Z</time>
      </trkpt>
      <trkpt lat="48.75685" lon="2.01743">
        <ele>154.51</ele>
        <time>2020-02-20T10:20:59Z</time>
      </trkpt>
      <trkpt lat="48.7568" lon="2.0175">
        <ele>154.41</ele>
        <time>2020-02-20T10:21:08Z</time>
      </trkpt>
      <trkpt lat="48.75665" lon="2.01768">
        <ele>154.38</ele>
        <time>2020-02-20T10:21:20Z</time>
      </trkpt>
      <trkpt lat="48.75655" lon="2.01779">
        <ele>154.32</ele>
        <time>2020-02-20T10:21:30Z</time>
      </trkpt>
      <trkpt lat="48.75643" lon="2.01784">
        <ele>154.12</ele>
        <time>2020-02-20T10:21:42Z</time>
      </trkpt>
      <trkpt lat="48.7563" lon="2.01782">
        <ele>151.73</ele>
        <time>2020-02-20T10:21:52Z</time>
      </trkpt>
      <trkpt lat="48.75629" lon="2.01782">
        <ele>151.7</ele>
        <time>2020-02-20T10:21:53Z</time>
      </trkpt>
      <trkpt lat="48.75622" lon="2.01778">
        <ele>151.65</ele>
        <time>2020-02-20T10:21:59Z</time>
      </trkpt>
      <trkpt lat="48.75612" lon="2.01772">
        <ele>151.58</ele>
        <time>2020-02-20T10:22:07Z</time>
      </trkpt>
      <trkpt lat="48.75605" lon="2.01768">
        <ele>150.66</ele>
        <time>2020-02-20T10:22:14Z</time>
      </trkpt>
      <trkpt lat="48.75595" lon="2.01757">
        <ele>150.71</ele>
        <time>2020-02-20T10:22:22Z</time>
      </trkpt>
      <trkpt lat="48.75587" lon="2.01753">
        <ele>150.76</ele>
        <time>2020-02-20T10:22:30Z</time>
      </trkpt>
      <trkpt lat="48.75577" lon="2.01753">
        <ele>150.76</ele>
        <time>2020-02-20T10:22:39Z</time>
      </trkpt>
      <trkpt lat="48.75567" lon="2.01754">
        <ele>150.79</ele>
        <time>2020-02-20T10:22:49Z</time>
      </trkpt>
      <trkpt lat="48.75558" lon="2.01747">
        <ele>150.85</ele>
        <time>2020-02-20T10:22:58Z</time>
      </trkpt>
      <trkpt lat="48.7555" lon="2.01736">
        <ele>150.86</ele>
        <time>2020-02-20T10:23:07Z</time>
      </trkpt>
      <trkpt lat="48.75548" lon="2.01727">
        <ele>150.94</ele>
        <time>2020-02-20T10:23:18Z</time>
      </trkpt>
      <trkpt lat="48.75546" lon="2.01715">
        <ele>151.04</ele>
        <time>2020-02-20T10:23:27Z</time>
      </trkpt>
      <trkpt lat="48.75546" lon="2.01707">
        <ele>151.05</ele>
        <time>2020-02-20T10:23:36Z</time>
      </trkpt>
      <trkpt lat="48.75544" lon="2.01697">
        <ele>151.12</ele>
        <time>2020-02-20T10:23:45Z</time>
      </trkpt>
      <trkpt lat="48.75542" lon="2.01681">
        <ele>151.11</ele>
        <time>2020-02-20T10:23:55Z</time>
      </trkpt>
      <trkpt lat="48.7554" lon="2.01671">
        <ele>151.2</ele>
        <time>2020-02-20T10:24:04Z</time>
      </trkpt>
      <trkpt lat="48.75538" lon="2.0166">
        <ele>151.29</ele>
        <time>2020-02-20T10:24:12Z</time>
      </trkpt>
      <trkpt lat="48.75539" lon="2.0165">
        <ele>151.33</ele>
        <time>2020-02-20T10:24:22Z</time>
      </trkpt>
      <trkpt lat="48.75541" lon="2.01645">
        <ele>151.44</ele>
        <time>2020-02-20T10:24:34Z</time>
      </trkpt>
      <trkpt lat="48.75543" lon="2.01636">
        <ele>151.49</ele>
        <time>2020-02-20T10:24:41Z</time>
      </trkpt>
      <trkpt lat="48.75542" lon="2.01631">
        <ele>153.92</ele>
        <time>2020-02-20T10:24:45Z</time>
      </trkpt>
      <trkpt lat="48.75542" lon="2.01615">
        <ele>154</ele>
        <time>2020-02-20T10:24:56Z</time>
      </trkpt>
      <trkpt lat="48.75542" lon="2.01612">
        <ele>154.08</ele>
        <time>2020-02-20T10:24:58Z</time>
      </trkpt>
      <trkpt lat="48.75536" lon="2.01602">
        <ele>154.09</ele>
        <time>2020-02-20T10:25:07Z</time>
      </trkpt>
      <trkpt lat="48.7553" lon="2.01598">
        <ele>154.13</ele>
        <time>2020-02-20T10:25:14Z</time>
      </trkpt>
      <trkpt lat="48.75524" lon="2.01594">
        <ele>154.23</ele>
        <time>2020-02-20T10:25:22Z</time>
      </trkpt>
      <trkpt lat="48.75522" lon="2.01583">
        <ele>154.23</ele>
        <time>2020-02-20T10:25:32Z</time>
      </trkpt>
      <trkpt lat="48.75521" lon="2.01567">
        <ele>154.25</ele>
        <time>2020-02-20T10:25:42Z</time>
      </trkpt>
      <trkpt lat="48.75516" lon="2.01557">
        <ele>154.31</ele>
        <time>2020-02-20T10:25:51Z</time>
      </trkpt>
      <trkpt lat="48.75511" lon="2.01547">
        <ele>154.41</ele>
        <time>2020-02-20T10:26:00Z</time>
      </trkpt>
      <trkpt lat="48.75507" lon="2.01537">
        <ele>154.43</ele>
        <time>2020-02-20T10:26:08Z</time>
      </trkpt>
      <trkpt lat="48.75504" lon="2.01526">
        <ele>154.48</ele>
        <time>2020-02-20T10:26:17Z</time>
      </trkpt>
      <trkpt lat="48.75502" lon="2.01512">
        <ele>155.64</ele>
        <time>2020-02-20T10:26:27Z</time>
      </trkpt>
      <trkpt lat="48.75493" lon="2.01508">
        <ele>155.61</ele>
        <time>2020-02-20T10:26:37Z</time>
      </trkpt>
      <trkpt lat="48.75485" lon="2.015">
        <ele>155.64</ele>
        <time>2020-02-20T10:26:46Z</time>
      </trkpt>
      <trkpt lat="48.75479" lon="2.01492">
        <ele>155.66</ele>
        <time>2020-02-20T10:26:55Z</time>
      </trkpt>
      <trkpt lat="48.75476" lon="2.01487">
        <ele>155.67</ele>
        <time>2020-02-20T10:27:06Z</time>
      </trkpt>
      <trkpt lat="48.75473" lon="2.01484">
        <ele>155.68</ele>
        <time>2020-02-20T10:27:21Z</time>
      </trkpt>
      <trkpt lat="48.75473" lon="2.01484">
        <ele>155.69</ele>
        <time>2020-02-20T10:27:36Z</time>
      </trkpt>
      <trkpt lat="48.75473" lon="2.01485">
        <ele>153.39</ele>
        <time>2020-02-20T10:27:38Z</time>
      </trkpt>
      <trkpt lat="48.75473" lon="2.01501">
        <ele>153.44</ele>
        <time>2020-02-20T10:28:02Z</time>
      </trkpt>
      <trkpt lat="48.75473" lon="2.01504">
        <ele>153.47</ele>
        <time>2020-02-20T10:28:19Z</time>
      </trkpt>
      <trkpt lat="48.75472" lon="2.01499">
        <ele>153.46</ele>
        <time>2020-02-20T10:28:29Z</time>
      </trkpt>
      <trkpt lat="48.7547" lon="2.01498">
        <ele>153.48</ele>
        <time>2020-02-20T10:28:42Z</time>
      </trkpt>
      <trkpt lat="48.75473" lon="2.01496">
        <ele>153.48</ele>
        <time>2020-02-20T10:29:00Z</time>
      </trkpt>
      <trkpt lat="48.75475" lon="2.01496">
        <ele>153.47</ele>
        <time>2020-02-20T10:29:14Z</time>
      </trkpt>
      <trkpt lat="48.75478" lon="2.01498">
        <ele>153.44</ele>
        <time>2020-02-20T10:29:31Z</time>
      </trkpt>
      <trkpt lat="48.75479" lon="2.01496">
        <ele>153.43</ele>
        <time>2020-02-20T10:29:46Z</time>
      </trkpt>
      <trkpt lat="48.75482" lon="2.01493">
        <ele>153.46</ele>
        <time>2020-02-20T10:30:04Z</time>
      </trkpt>
      <trkpt lat="48.75484" lon="2.01495">
        <ele>153.44</ele>
        <time>2020-02-20T10:30:21Z</time>
      </trkpt>
      <trkpt lat="48.75484" lon="2.01497">
        <ele>153.54</ele>
        <time>2020-02-20T10:30:40Z</time>
      </trkpt>
      <trkpt lat="48.75482" lon="2.01496">
        <ele>153.59</ele>
        <time>2020-02-20T10:30:58Z</time>
      </trkpt>
      <trkpt lat="48.75479" lon="2.01493">
        <ele>153.65</ele>
        <time>2020-02-20T10:31:15Z</time>
      </trkpt>
      <trkpt lat="48.7548" lon="2.01489">
        <ele>153.68</ele>
        <time>2020-02-20T10:31:29Z</time>
      </trkpt>
      <trkpt lat="48.75479" lon="2.01487">
        <ele>153.73</ele>
        <time>2020-02-20T10:31:39Z</time>
      </trkpt>
      <trkpt lat="48.75479" lon="2.01484">
        <ele>153.77</ele>
        <time>2020-02-20T10:31:58Z</time>
      </trkpt>
      <trkpt lat="48.75482" lon="2.01486">
        <ele>153.79</ele>
        <time>2020-02-20T10:32:12Z</time>
      </trkpt>
      <trkpt lat="48.75481" lon="2.01487">
        <ele>153.81</ele>
        <time>2020-02-20T10:32:29Z</time>
      </trkpt>
      <trkpt lat="48.75483" lon="2.01486">
        <ele>153.83</ele>
        <time>2020-02-20T10:32:42Z</time>
      </trkpt>
      <trkpt lat="48.75484" lon="2.01486">
        <ele>153.86</ele>
        <time>2020-02-20T10:32:55Z</time>
      </trkpt>
      <trkpt lat="48.75483" lon="2.01484">
        <ele>153.9</ele>
        <time>2020-02-20T10:33:11Z</time>
      </trkpt>
      <trkpt lat="48.75484" lon="2.01485">
        <ele>153.95</ele>
        <time>2020-02-20T10:33:30Z</time>
      </trkpt>
      <trkpt lat="48.75486" lon="2.01485">
        <ele>153.97</ele>
        <time>2020-02-20T10:33:50Z</time>
      </trkpt>
      <trkpt lat="48.75488" lon="2.01486">
        <ele>153.99</ele>
        <time>2020-02-20T10:34:13Z</time>
      </trkpt>
      <trkpt lat="48.75486" lon="2.01489">
        <ele>154.04</ele>
        <time>2020-02-20T10:34:29Z</time>
      </trkpt>
      <trkpt lat="48.75483" lon="2.01488">
        <ele>154.06</ele>
        <time>2020-02-20T10:34:39Z</time>
      </trkpt>
      <trkpt lat="48.75482" lon="2.0149">
        <ele>157.24</ele>
        <time>2020-02-20T10:34:50Z</time>
      </trkpt>
      <trkpt lat="48.75482" lon="2.0149">
        <ele>157.25</ele>
        <time>2020-02-20T10:34:51Z</time>
      </trkpt>
      <trkpt lat="48.75483" lon="2.01486">
        <ele>157.22</ele>
        <time>2020-02-20T10:35:04Z</time>
      </trkpt>
      <trkpt lat="48.75483" lon="2.01484">
        <ele>152.13</ele>
        <time>2020-02-20T10:35:10Z</time>
      </trkpt>
      <trkpt lat="48.75483" lon="2.01484">
        <ele>158.49</ele>
        <time>2020-02-20T10:35:11Z</time>
      </trkpt>
      <trkpt lat="48.75483" lon="2.01483">
        <ele>155.21</ele>
        <time>2020-02-20T10:35:14Z</time>
      </trkpt>
      <trkpt lat="48.75482" lon="2.01482">
        <ele>154.15</ele>
        <time>2020-02-20T10:35:30Z</time>
      </trkpt>
      <trkpt lat="48.75479" lon="2.01479">
        <ele>154.12</ele>
        <time>2020-02-20T10:35:45Z</time>
      </trkpt>
      <trkpt lat="48.75479" lon="2.01479">
        <ele>163.19</ele>
        <time>2020-02-20T10:35:54Z</time>
      </trkpt>
      <trkpt lat="48.75479" lon="2.01479">
        <ele>156.53</ele>
        <time>2020-02-20T10:35:55Z</time>
      </trkpt>
      <trkpt lat="48.75478" lon="2.01478">
        <ele>155.78</ele>
        <time>2020-02-20T10:36:07Z</time>
      </trkpt>
      <trkpt lat="48.75475" lon="2.01479">
        <ele>155.84</ele>
        <time>2020-02-20T10:36:25Z</time>
      </trkpt>
      <trkpt lat="48.75476" lon="2.01478">
        <ele>155.85</ele>
        <time>2020-02-20T10:36:36Z</time>
      </trkpt>
      <trkpt lat="48.75475" lon="2.01474">
        <ele>155.95</ele>
        <time>2020-02-20T10:36:51Z</time>
      </trkpt>
      <trkpt lat="48.75474" lon="2.01474">
        <ele>156.05</ele>
        <time>2020-02-20T10:37:05Z</time>
      </trkpt>
      <trkpt lat="48.75475" lon="2.01474">
        <ele>155.39</ele>
        <time>2020-02-20T10:37:18Z</time>
      </trkpt>
      <trkpt lat="48.75475" lon="2.01474">
        <ele>155.47</ele>
        <time>2020-02-20T10:37:29Z</time>
      </trkpt>
      <trkpt lat="48.75476" lon="2.01472">
        <ele>155.61</ele>
        <time>2020-02-20T10:37:46Z</time>
      </trkpt>
      <trkpt lat="48.75475" lon="2.01473">
        <ele>155.69</ele>
        <time>2020-02-20T10:37:58Z</time>
      </trkpt>
      <trkpt lat="48.75474" lon="2.01479">
        <ele>155.79</ele>
        <time>2020-02-20T10:38:09Z</time>
      </trkpt>
      <trkpt lat="48.75471" lon="2.01483">
        <ele>155.91</ele>
        <time>2020-02-20T10:38:26Z</time>
      </trkpt>
      <trkpt lat="48.75474" lon="2.01484">
        <ele>155.97</ele>
        <time>2020-02-20T10:38:38Z</time>
      </trkpt>
      <trkpt lat="48.75472" lon="2.01472">
        <ele>156.05</ele>
        <time>2020-02-20T10:38:47Z</time>
      </trkpt>
      <trkpt lat="48.75468" lon="2.01461">
        <ele>156.11</ele>
        <time>2020-02-20T10:38:56Z</time>
      </trkpt>
      <trkpt lat="48.75463" lon="2.01451">
        <ele>156.14</ele>
        <time>2020-02-20T10:39:04Z</time>
      </trkpt>
      <trkpt lat="48.75457" lon="2.01442">
        <ele>156.16</ele>
        <time>2020-02-20T10:39:13Z</time>
      </trkpt>
      <trkpt lat="48.75451" lon="2.01432">
        <ele>156.14</ele>
        <time>2020-02-20T10:39:22Z</time>
      </trkpt>
      <trkpt lat="48.75447" lon="2.01423">
        <ele>156.12</ele>
        <time>2020-02-20T10:39:29Z</time>
      </trkpt>
      <trkpt lat="48.75442" lon="2.01413">
        <ele>156.14</ele>
        <time>2020-02-20T10:39:36Z</time>
      </trkpt>
      <trkpt lat="48.75435" lon="2.01403">
        <ele>156.12</ele>
        <time>2020-02-20T10:39:46Z</time>
      </trkpt>
      <trkpt lat="48.75431" lon="2.01391">
        <ele>156.07</ele>
        <time>2020-02-20T10:39:54Z</time>
      </trkpt>
      <trkpt lat="48.75425" lon="2.01381">
        <ele>156.01</ele>
        <time>2020-02-20T10:40:03Z</time>
      </trkpt>
      <trkpt lat="48.75418" lon="2.0137">
        <ele>155.98</ele>
        <time>2020-02-20T10:40:12Z</time>
      </trkpt>
      <trkpt lat="48.75415" lon="2.01353">
        <ele>155.94</ele>
        <time>2020-02-20T10:40:22Z</time>
      </trkpt>
      <trkpt lat="48.75412" lon="2.01346">
        <ele>158.27</ele>
        <time>2020-02-20T10:40:27Z</time>
      </trkpt>
      <trkpt lat="48.75407" lon="2.01334">
        <ele>158.17</ele>
        <time>2020-02-20T10:40:39Z</time>
      </trkpt>
      <trkpt lat="48.75407" lon="2.01329">
        <ele>158.17</ele>
        <time>2020-02-20T10:40:43Z</time>
      </trkpt>
      <trkpt lat="48.754" lon="2.01318">
        <ele>158.15</ele>
        <time>2020-02-20T10:40:52Z</time>
      </trkpt>
      <trkpt lat="48.75399" lon="2.01315">
        <ele>158.14</ele>
        <time>2020-02-20T10:40:54Z</time>
      </trkpt>
      <trkpt lat="48.75393" lon="2.01309">
        <ele>158.11</ele>
        <time>2020-02-20T10:41:00Z</time>
      </trkpt>
      <trkpt lat="48.75389" lon="2.01299">
        <ele>158.02</ele>
        <time>2020-02-20T10:41:10Z</time>
      </trkpt>
      <trkpt lat="48.75384" lon="2.01283">
        <ele>157.98</ele>
        <time>2020-02-20T10:41:20Z</time>
      </trkpt>
      <trkpt lat="48.75379" lon="2.01274">
        <ele>158.87</ele>
        <time>2020-02-20T10:41:27Z</time>
      </trkpt>
      <trkpt lat="48.75373" lon="2.01265">
        <ele>158.82</ele>
        <time>2020-02-20T10:41:35Z</time>
      </trkpt>
      <trkpt lat="48.75367" lon="2.01258">
        <ele>158.79</ele>
        <time>2020-02-20T10:41:43Z</time>
      </trkpt>
      <trkpt lat="48.75364" lon="2.01252">
        <ele>158.75</ele>
        <time>2020-02-20T10:41:51Z</time>
      </trkpt>
      <trkpt lat="48.75364" lon="2.01241">
        <ele>158.68</ele>
        <time>2020-02-20T10:42:00Z</time>
      </trkpt>
      <trkpt lat="48.75369" lon="2.01233">
        <ele>159.48</ele>
        <time>2020-02-20T10:42:09Z</time>
      </trkpt>
      <trkpt lat="48.7537" lon="2.01223">
        <ele>159.43</ele>
        <time>2020-02-20T10:42:16Z</time>
      </trkpt>
      <trkpt lat="48.75365" lon="2.01208">
        <ele>159.37</ele>
        <time>2020-02-20T10:42:25Z</time>
      </trkpt>
      <trkpt lat="48.75361" lon="2.01201">
        <ele>159.37</ele>
        <time>2020-02-20T10:42:30Z</time>
      </trkpt>
      <trkpt lat="48.75359" lon="2.01189">
        <ele>159.35</ele>
        <time>2020-02-20T10:42:37Z</time>
      </trkpt>
      <trkpt lat="48.75359" lon="2.01175">
        <ele>159.33</ele>
        <time>2020-02-20T10:42:47Z</time>
      </trkpt>
      <trkpt lat="48.75362" lon="2.0117">
        <ele>159.31</ele>
        <time>2020-02-20T10:42:54Z</time>
      </trkpt>
      <trkpt lat="48.75362" lon="2.01169">
        <ele>159.29</ele>
        <time>2020-02-20T10:42:55Z</time>
      </trkpt>
      <trkpt lat="48.75364" lon="2.01154">
        <ele>159.27</ele>
        <time>2020-02-20T10:43:05Z</time>
      </trkpt>
      <trkpt lat="48.75363" lon="2.01147">
        <ele>156.84</ele>
        <time>2020-02-20T10:43:10Z</time>
      </trkpt>
      <trkpt lat="48.75361" lon="2.01131">
        <ele>159.26</ele>
        <time>2020-02-20T10:43:19Z</time>
      </trkpt>
      <trkpt lat="48.75361" lon="2.01131">
        <ele>159.25</ele>
        <time>2020-02-20T10:43:20Z</time>
      </trkpt>
      <trkpt lat="48.75366" lon="2.01121">
        <ele>160.15</ele>
        <time>2020-02-20T10:43:29Z</time>
      </trkpt>
      <trkpt lat="48.7537" lon="2.01107">
        <ele>160.06</ele>
        <time>2020-02-20T10:43:38Z</time>
      </trkpt>
      <trkpt lat="48.75374" lon="2.01098">
        <ele>157.8</ele>
        <time>2020-02-20T10:43:45Z</time>
      </trkpt>
      <trkpt lat="48.75374" lon="2.01098">
        <ele>157.79</ele>
        <time>2020-02-20T10:43:46Z</time>
      </trkpt>
      <trkpt lat="48.7538" lon="2.01087">
        <ele>157.79</ele>
        <time>2020-02-20T10:43:55Z</time>
      </trkpt>
      <trkpt lat="48.75383" lon="2.01082">
        <ele>157.78</ele>
        <time>2020-02-20T10:44:00Z</time>
      </trkpt>
      <trkpt lat="48.75385" lon="2.01078">
        <ele>160.22</ele>
        <time>2020-02-20T10:44:04Z</time>
      </trkpt>
      <trkpt lat="48.75389" lon="2.01068">
        <ele>160.21</ele>
        <time>2020-02-20T10:44:13Z</time>
      </trkpt>
      <trkpt lat="48.75395" lon="2.01073">
        <ele>160.19</ele>
        <time>2020-02-20T10:44:22Z</time>
      </trkpt>
      <trkpt lat="48.75399" lon="2.01078">
        <ele>160.19</ele>
        <time>2020-02-20T10:44:29Z</time>
      </trkpt>
      <trkpt lat="48.75406" lon="2.01079">
        <ele>160.17</ele>
        <time>2020-02-20T10:44:38Z</time>
      </trkpt>
      <trkpt lat="48.75409" lon="2.01079">
        <ele>160.17</ele>
        <time>2020-02-20T10:44:44Z</time>
      </trkpt>
      <trkpt lat="48.75417" lon="2.01079">
        <ele>160.14</ele>
        <time>2020-02-20T10:44:55Z</time>
      </trkpt>
      <trkpt lat="48.75421" lon="2.01077">
        <ele>160.16</ele>
        <time>2020-02-20T10:45:01Z</time>
      </trkpt>
      <trkpt lat="48.75428" lon="2.01073">
        <ele>160.2</ele>
        <time>2020-02-20T10:45:10Z</time>
      </trkpt>
      <trkpt lat="48.7543" lon="2.0106">
        <ele>160.21</ele>
        <time>2020-02-20T10:45:21Z</time>
      </trkpt>
      <trkpt lat="48.75429" lon="2.01052">
        <ele>160.23</ele>
        <time>2020-02-20T10:45:28Z</time>
      </trkpt>
      <trkpt lat="48.75429" lon="2.01042">
        <ele>160.26</ele>
        <time>2020-02-20T10:45:34Z</time>
      </trkpt>
      <trkpt lat="48.75427" lon="2.01029">
        <ele>160.27</ele>
        <time>2020-02-20T10:45:44Z</time>
      </trkpt>
      <trkpt lat="48.75424" lon="2.01011">
        <ele>160.28</ele>
        <time>2020-02-20T10:45:54Z</time>
      </trkpt>
      <trkpt lat="48.75421" lon="2.00996">
        <ele>160.27</ele>
        <time>2020-02-20T10:46:03Z</time>
      </trkpt>
      <trkpt lat="48.75421" lon="2.00994">
        <ele>157.99</ele>
        <time>2020-02-20T10:46:05Z</time>
      </trkpt>
      <trkpt lat="48.75421" lon="2.00979">
        <ele>157.11</ele>
        <time>2020-02-20T10:46:16Z</time>
      </trkpt>
      <trkpt lat="48.75419" lon="2.00963">
        <ele>159.48</ele>
        <time>2020-02-20T10:46:28Z</time>
      </trkpt>
      <trkpt lat="48.75411" lon="2.00951">
        <ele>159.43</ele>
        <time>2020-02-20T10:46:37Z</time>
      </trkpt>
      <trkpt lat="48.75407" lon="2.00941">
        <ele>160.36</ele>
        <time>2020-02-20T10:46:41Z</time>
      </trkpt>
      <trkpt lat="48.75402" lon="2.00933">
        <ele>160.31</ele>
        <time>2020-02-20T10:46:47Z</time>
      </trkpt>
      <trkpt lat="48.75393" lon="2.00922">
        <ele>160.3</ele>
        <time>2020-02-20T10:46:56Z</time>
      </trkpt>
      <trkpt lat="48.75386" lon="2.00915">
        <ele>160.29</ele>
        <time>2020-02-20T10:47:03Z</time>
      </trkpt>
      <trkpt lat="48.7538" lon="2.00905">
        <ele>160.28</ele>
        <time>2020-02-20T10:47:12Z</time>
      </trkpt>
      <trkpt lat="48.75372" lon="2.00896">
        <ele>160.25</ele>
        <time>2020-02-20T10:47:20Z</time>
      </trkpt>
      <trkpt lat="48.75364" lon="2.00887">
        <ele>160.27</ele>
        <time>2020-02-20T10:47:29Z</time>
      </trkpt>
      <trkpt lat="48.75363" lon="2.00886">
        <ele>160.27</ele>
        <time>2020-02-20T10:47:30Z</time>
      </trkpt>
      <trkpt lat="48.75355" lon="2.00876">
        <ele>160.27</ele>
        <time>2020-02-20T10:47:39Z</time>
      </trkpt>
      <trkpt lat="48.75351" lon="2.00864">
        <ele>160.28</ele>
        <time>2020-02-20T10:47:47Z</time>
      </trkpt>
      <trkpt lat="48.75346" lon="2.00856">
        <ele>160.29</ele>
        <time>2020-02-20T10:47:54Z</time>
      </trkpt>
      <trkpt lat="48.7534" lon="2.00851">
        <ele>160.29</ele>
        <time>2020-02-20T10:48:02Z</time>
      </trkpt>
      <trkpt lat="48.75332" lon="2.00843">
        <ele>160.29</ele>
        <time>2020-02-20T10:48:10Z</time>
      </trkpt>
      <trkpt lat="48.75328" lon="2.00832">
        <ele>160.3</ele>
        <time>2020-02-20T10:48:18Z</time>
      </trkpt>
      <trkpt lat="48.75322" lon="2.00821">
        <ele>160.31</ele>
        <time>2020-02-20T10:48:27Z</time>
      </trkpt>
      <trkpt lat="48.75319" lon="2.00812">
        <ele>160.33</ele>
        <time>2020-02-20T10:48:35Z</time>
      </trkpt>
      <trkpt lat="48.75314" lon="2.00805">
        <ele>160.34</ele>
        <time>2020-02-20T10:48:44Z</time>
      </trkpt>
      <trkpt lat="48.75306" lon="2.00798">
        <ele>160.37</ele>
        <time>2020-02-20T10:48:53Z</time>
      </trkpt>
      <trkpt lat="48.753" lon="2.00792">
        <ele>161.13</ele>
        <time>2020-02-20T10:49:01Z</time>
      </trkpt>
      <trkpt lat="48.75295" lon="2.00785">
        <ele>161.12</ele>
        <time>2020-02-20T10:49:09Z</time>
      </trkpt>
      <trkpt lat="48.75291" lon="2.00781">
        <ele>161.11</ele>
        <time>2020-02-20T10:49:18Z</time>
      </trkpt>
      <trkpt lat="48.75289" lon="2.00775">
        <ele>161.09</ele>
        <time>2020-02-20T10:49:26Z</time>
      </trkpt>
      <trkpt lat="48.75286" lon="2.0077">
        <ele>161.08</ele>
        <time>2020-02-20T10:49:32Z</time>
      </trkpt>
      <trkpt lat="48.75281" lon="2.00763">
        <ele>161.06</ele>
        <time>2020-02-20T10:49:41Z</time>
      </trkpt>
      <trkpt lat="48.75277" lon="2.00753">
        <ele>161.04</ele>
        <time>2020-02-20T10:49:49Z</time>
      </trkpt>
      <trkpt lat="48.75273" lon="2.00747">
        <ele>161.02</ele>
        <time>2020-02-20T10:49:57Z</time>
      </trkpt>
      <trkpt lat="48.7527" lon="2.00734">
        <ele>161</ele>
        <time>2020-02-20T10:50:07Z</time>
      </trkpt>
      <trkpt lat="48.75265" lon="2.00727">
        <ele>160.97</ele>
        <time>2020-02-20T10:50:15Z</time>
      </trkpt>
      <trkpt lat="48.75261" lon="2.00719">
        <ele>160.93</ele>
        <time>2020-02-20T10:50:23Z</time>
      </trkpt>
      <trkpt lat="48.75256" lon="2.00713">
        <ele>160.9</ele>
        <time>2020-02-20T10:50:31Z</time>
      </trkpt>
      <trkpt lat="48.75252" lon="2.00702">
        <ele>161.72</ele>
        <time>2020-02-20T10:50:40Z</time>
      </trkpt>
      <trkpt lat="48.75248" lon="2.00693">
        <ele>161.64</ele>
        <time>2020-02-20T10:50:48Z</time>
      </trkpt>
      <trkpt lat="48.75244" lon="2.00685">
        <ele>161.58</ele>
        <time>2020-02-20T10:50:57Z</time>
      </trkpt>
      <trkpt lat="48.75241" lon="2.00674">
        <ele>161.53</ele>
        <time>2020-02-20T10:51:04Z</time>
      </trkpt>
      <trkpt lat="48.7524" lon="2.00669">
        <ele>161.51</ele>
        <time>2020-02-20T10:51:08Z</time>
      </trkpt>
      <trkpt lat="48.75236" lon="2.0066">
        <ele>161.48</ele>
        <time>2020-02-20T10:51:15Z</time>
      </trkpt>
      <trkpt lat="48.75234" lon="2.00649">
        <ele>161.46</ele>
        <time>2020-02-20T10:51:23Z</time>
      </trkpt>
      <trkpt lat="48.75229" lon="2.00644">
        <ele>161.43</ele>
        <time>2020-02-20T10:51:31Z</time>
      </trkpt>
      <trkpt lat="48.75225" lon="2.00641">
        <ele>162.29</ele>
        <time>2020-02-20T10:51:37Z</time>
      </trkpt>
      <trkpt lat="48.75218" lon="2.00635">
        <ele>162.27</ele>
        <time>2020-02-20T10:51:46Z</time>
      </trkpt>
      <trkpt lat="48.75215" lon="2.00629">
        <ele>162.15</ele>
        <time>2020-02-20T10:51:54Z</time>
      </trkpt>
      <trkpt lat="48.75211" lon="2.0062">
        <ele>162.14</ele>
        <time>2020-02-20T10:52:01Z</time>
      </trkpt>
      <trkpt lat="48.75213" lon="2.00603">
        <ele>162.24</ele>
        <time>2020-02-20T10:52:13Z</time>
      </trkpt>
      <trkpt lat="48.75211" lon="2.00589">
        <ele>162.21</ele>
        <time>2020-02-20T10:52:23Z</time>
      </trkpt>
      <trkpt lat="48.75208" lon="2.00577">
        <ele>162.03</ele>
        <time>2020-02-20T10:52:33Z</time>
      </trkpt>
      <trkpt lat="48.75205" lon="2.00562">
        <ele>162.22</ele>
        <time>2020-02-20T10:52:45Z</time>
      </trkpt>
      <trkpt lat="48.75203" lon="2.00553">
        <ele>162.23</ele>
        <time>2020-02-20T10:52:56Z</time>
      </trkpt>
      <trkpt lat="48.75203" lon="2.00548">
        <ele>162.19</ele>
        <time>2020-02-20T10:53:06Z</time>
      </trkpt>
      <trkpt lat="48.75202" lon="2.00548">
        <ele>162.2</ele>
        <time>2020-02-20T10:53:17Z</time>
      </trkpt>
      <trkpt lat="48.75202" lon="2.00548">
        <ele>162.21</ele>
        <time>2020-02-20T10:53:32Z</time>
      </trkpt>
      <trkpt lat="48.75201" lon="2.00547">
        <ele>162.23</ele>
        <time>2020-02-20T10:53:42Z</time>
      </trkpt>
      <trkpt lat="48.75201" lon="2.00548">
        <ele>162.25</ele>
        <time>2020-02-20T10:53:57Z</time>
      </trkpt>
      <trkpt lat="48.75202" lon="2.00549">
        <ele>162.27</ele>
        <time>2020-02-20T10:54:08Z</time>
      </trkpt>
      <trkpt lat="48.75203" lon="2.0055">
        <ele>162.3</ele>
        <time>2020-02-20T10:54:21Z</time>
      </trkpt>
      <trkpt lat="48.75202" lon="2.0055">
        <ele>162.32</ele>
        <time>2020-02-20T10:54:34Z</time>
      </trkpt>
      <trkpt lat="48.75202" lon="2.0055">
        <ele>162.34</ele>
        <time>2020-02-20T10:54:45Z</time>
      </trkpt>
      <trkpt lat="48.75202" lon="2.0055">
        <ele>162.37</ele>
        <time>2020-02-20T10:54:56Z</time>
      </trkpt>
      <trkpt lat="48.75202" lon="2.00549">
        <ele>162.4</ele>
        <time>2020-02-20T10:55:07Z</time>
      </trkpt>
      <trkpt lat="48.75201" lon="2.00551">
        <ele>162.43</ele>
        <time>2020-02-20T10:55:21Z</time>
      </trkpt>
      <trkpt lat="48.75199" lon="2.00552">
        <ele>162.42</ele>
        <time>2020-02-20T10:55:23Z</time>
      </trkpt>
      <trkpt lat="48.75193" lon="2.00556">
        <ele>162.47</ele>
        <time>2020-02-20T10:55:29Z</time>
      </trkpt>
      <trkpt lat="48.75183" lon="2.00569">
        <ele>162.43</ele>
        <time>2020-02-20T10:55:41Z</time>
      </trkpt>
      <trkpt lat="48.75176" lon="2.00577">
        <ele>162.39</ele>
        <time>2020-02-20T10:55:48Z</time>
      </trkpt>
      <trkpt lat="48.75171" lon="2.00585">
        <ele>162.41</ele>
        <time>2020-02-20T10:55:56Z</time>
      </trkpt>
      <trkpt lat="48.75167" lon="2.00589">
        <ele>161.25</ele>
        <time>2020-02-20T10:56:03Z</time>
      </trkpt>
      <trkpt lat="48.75158" lon="2.0059">
        <ele>161.16</ele>
        <time>2020-02-20T10:56:14Z</time>
      </trkpt>
      <trkpt lat="48.75146" lon="2.00586">
        <ele>161.13</ele>
        <time>2020-02-20T10:56:27Z</time>
      </trkpt>
      <trkpt lat="48.75139" lon="2.00587">
        <ele>161.03</ele>
        <time>2020-02-20T10:56:31Z</time>
      </trkpt>
      <trkpt lat="48.75129" lon="2.00583">
        <ele>160.87</ele>
        <time>2020-02-20T10:56:44Z</time>
      </trkpt>
      <trkpt lat="48.75122" lon="2.00585">
        <ele>160.81</ele>
        <time>2020-02-20T10:56:52Z</time>
      </trkpt>
      <trkpt lat="48.75115" lon="2.00592">
        <ele>160.68</ele>
        <time>2020-02-20T10:57:00Z</time>
      </trkpt>
      <trkpt lat="48.75105" lon="2.00596">
        <ele>160.58</ele>
        <time>2020-02-20T10:57:09Z</time>
      </trkpt>
      <trkpt lat="48.75097" lon="2.00602">
        <ele>160.52</ele>
        <time>2020-02-20T10:57:17Z</time>
      </trkpt>
      <trkpt lat="48.75087" lon="2.00606">
        <ele>160.4</ele>
        <time>2020-02-20T10:57:26Z</time>
      </trkpt>
      <trkpt lat="48.75079" lon="2.00608">
        <ele>160.35</ele>
        <time>2020-02-20T10:57:35Z</time>
      </trkpt>
      <trkpt lat="48.75072" lon="2.00615">
        <ele>160.26</ele>
        <time>2020-02-20T10:57:44Z</time>
      </trkpt>
      <trkpt lat="48.7507" lon="2.00621">
        <ele>162.7</ele>
        <time>2020-02-20T10:57:48Z</time>
      </trkpt>
      <trkpt lat="48.7507" lon="2.00627">
        <ele>162.66</ele>
        <time>2020-02-20T10:57:53Z</time>
      </trkpt>
      <trkpt lat="48.75063" lon="2.00646">
        <ele>162.57</ele>
        <time>2020-02-20T10:58:02Z</time>
      </trkpt>
      <trkpt lat="48.75064" lon="2.00655">
        <ele>162.52</ele>
        <time>2020-02-20T10:58:08Z</time>
      </trkpt>
      <trkpt lat="48.75057" lon="2.00662">
        <ele>162.52</ele>
        <time>2020-02-20T10:58:16Z</time>
      </trkpt>
      <trkpt lat="48.7505" lon="2.00662">
        <ele>162.49</ele>
        <time>2020-02-20T10:58:25Z</time>
      </trkpt>
      <trkpt lat="48.75039" lon="2.00677">
        <ele>162.42</ele>
        <time>2020-02-20T10:58:35Z</time>
      </trkpt>
      <trkpt lat="48.75037" lon="2.00686">
        <ele>162.34</ele>
        <time>2020-02-20T10:58:40Z</time>
      </trkpt>
      <trkpt lat="48.7504" lon="2.00703">
        <ele>162.29</ele>
        <time>2020-02-20T10:58:51Z</time>
      </trkpt>
      <trkpt lat="48.75035" lon="2.00711">
        <ele>162.28</ele>
        <time>2020-02-20T10:58:59Z</time>
      </trkpt>
      <trkpt lat="48.75025" lon="2.00711">
        <ele>162.29</ele>
        <time>2020-02-20T10:59:09Z</time>
      </trkpt>
      <trkpt lat="48.75023" lon="2.00709">
        <ele>162.32</ele>
        <time>2020-02-20T10:59:11Z</time>
      </trkpt>
      <trkpt lat="48.7501" lon="2.00705">
        <ele>162.27</ele>
        <time>2020-02-20T10:59:20Z</time>
      </trkpt>
      <trkpt lat="48.75003" lon="2.007">
        <ele>162.25</ele>
        <time>2020-02-20T10:59:26Z</time>
      </trkpt>
      <trkpt lat="48.74995" lon="2.00691">
        <ele>162.18</ele>
        <time>2020-02-20T10:59:36Z</time>
      </trkpt>
      <trkpt lat="48.74983" lon="2.00686">
        <ele>162.19</ele>
        <time>2020-02-20T10:59:47Z</time>
      </trkpt>
      <trkpt lat="48.74975" lon="2.00693">
        <ele>162.22</ele>
        <time>2020-02-20T10:59:54Z</time>
      </trkpt>
      <trkpt lat="48.74968" lon="2.00696">
        <ele>162.23</ele>
        <time>2020-02-20T11:00:01Z</time>
      </trkpt>
      <trkpt lat="48.74959" lon="2.00691">
        <ele>162.26</ele>
        <time>2020-02-20T11:00:09Z</time>
      </trkpt>
      <trkpt lat="48.74954" lon="2.00685">
        <ele>162.26</ele>
        <time>2020-02-20T11:00:16Z</time>
      </trkpt>
      <trkpt lat="48.7495" lon="2.00678">
        <ele>162.2</ele>
        <time>2020-02-20T11:00:25Z</time>
      </trkpt>
      <trkpt lat="48.7494" lon="2.00678">
        <ele>162.09</ele>
        <time>2020-02-20T11:00:36Z</time>
      </trkpt>
      <trkpt lat="48.74929" lon="2.00681">
        <ele>162.03</ele>
        <time>2020-02-20T11:00:47Z</time>
      </trkpt>
      <trkpt lat="48.74919" lon="2.00688">
        <ele>162.18</ele>
        <time>2020-02-20T11:00:59Z</time>
      </trkpt>
      <trkpt lat="48.74914" lon="2.00692">
        <ele>162.18</ele>
        <time>2020-02-20T11:01:04Z</time>
      </trkpt>
      <trkpt lat="48.74908" lon="2.00694">
        <ele>162.15</ele>
        <time>2020-02-20T11:01:10Z</time>
      </trkpt>
      <trkpt lat="48.749" lon="2.00699">
        <ele>162.15</ele>
        <time>2020-02-20T11:01:17Z</time>
      </trkpt>
      <trkpt lat="48.74892" lon="2.00704">
        <ele>162.1</ele>
        <time>2020-02-20T11:01:26Z</time>
      </trkpt>
      <trkpt lat="48.74884" lon="2.00708">
        <ele>162.05</ele>
        <time>2020-02-20T11:01:34Z</time>
      </trkpt>
      <trkpt lat="48.74877" lon="2.00712">
        <ele>162.05</ele>
        <time>2020-02-20T11:01:41Z</time>
      </trkpt>
      <trkpt lat="48.74874" lon="2.00715">
        <ele>162.04</ele>
        <time>2020-02-20T11:01:44Z</time>
      </trkpt>
      <trkpt lat="48.7487" lon="2.00718">
        <ele>162.1</ele>
        <time>2020-02-20T11:01:47Z</time>
      </trkpt>
      <trkpt lat="48.74859" lon="2.00718">
        <ele>162.11</ele>
        <time>2020-02-20T11:01:56Z</time>
      </trkpt>
      <trkpt lat="48.74851" lon="2.00713">
        <ele>162.09</ele>
        <time>2020-02-20T11:02:07Z</time>
      </trkpt>
      <trkpt lat="48.74846" lon="2.00701">
        <ele>161.94</ele>
        <time>2020-02-20T11:02:19Z</time>
      </trkpt>
      <trkpt lat="48.74844" lon="2.00687">
        <ele>161.79</ele>
        <time>2020-02-20T11:02:30Z</time>
      </trkpt>
      <trkpt lat="48.74841" lon="2.00676">
        <ele>159.42</ele>
        <time>2020-02-20T11:02:37Z</time>
      </trkpt>
      <trkpt lat="48.74841" lon="2.0066">
        <ele>157.68</ele>
        <time>2020-02-20T11:02:49Z</time>
      </trkpt>
      <trkpt lat="48.74844" lon="2.00643">
        <ele>157.65</ele>
        <time>2020-02-20T11:03:00Z</time>
      </trkpt>
      <trkpt lat="48.74845" lon="2.00627">
        <ele>157.62</ele>
        <time>2020-02-20T11:03:07Z</time>
      </trkpt>
      <trkpt lat="48.74842" lon="2.00613">
        <ele>156.32</ele>
        <time>2020-02-20T11:03:15Z</time>
      </trkpt>
      <trkpt lat="48.74839" lon="2.00605">
        <ele>156.36</ele>
        <time>2020-02-20T11:03:19Z</time>
      </trkpt>
      <trkpt lat="48.74833" lon="2.00592">
        <ele>156.29</ele>
        <time>2020-02-20T11:03:28Z</time>
      </trkpt>
      <trkpt lat="48.74832" lon="2.00577">
        <ele>155.21</ele>
        <time>2020-02-20T11:03:37Z</time>
      </trkpt>
      <trkpt lat="48.74833" lon="2.00565">
        <ele>155.24</ele>
        <time>2020-02-20T11:03:45Z</time>
      </trkpt>
      <trkpt lat="48.7483" lon="2.00545">
        <ele>157.52</ele>
        <time>2020-02-20T11:03:55Z</time>
      </trkpt>
      <trkpt lat="48.74832" lon="2.00532">
        <ele>157.5</ele>
        <time>2020-02-20T11:04:05Z</time>
      </trkpt>
      <trkpt lat="48.74833" lon="2.00525">
        <ele>157.44</ele>
        <time>2020-02-20T11:04:10Z</time>
      </trkpt>
      <trkpt lat="48.74833" lon="2.00518">
        <ele>157.46</ele>
        <time>2020-02-20T11:04:14Z</time>
      </trkpt>
      <trkpt lat="48.74833" lon="2.00508">
        <ele>157.43</ele>
        <time>2020-02-20T11:04:20Z</time>
      </trkpt>
      <trkpt lat="48.74833" lon="2.00496">
        <ele>157.38</ele>
        <time>2020-02-20T11:04:28Z</time>
      </trkpt>
      <trkpt lat="48.74836" lon="2.00484">
        <ele>157.41</ele>
        <time>2020-02-20T11:04:36Z</time>
      </trkpt>
      <trkpt lat="48.74837" lon="2.00469">
        <ele>157.38</ele>
        <time>2020-02-20T11:04:45Z</time>
      </trkpt>
      <trkpt lat="48.74837" lon="2.00464">
        <ele>157.38</ele>
        <time>2020-02-20T11:04:48Z</time>
      </trkpt>
      <trkpt lat="48.74835" lon="2.00452">
        <ele>157.34</ele>
        <time>2020-02-20T11:04:57Z</time>
      </trkpt>
      <trkpt lat="48.74836" lon="2.00445">
        <ele>154.79</ele>
        <time>2020-02-20T11:05:02Z</time>
      </trkpt>
      <trkpt lat="48.74835" lon="2.0043">
        <ele>154.8</ele>
        <time>2020-02-20T11:05:11Z</time>
      </trkpt>
      <trkpt lat="48.74835" lon="2.00416">
        <ele>154.76</ele>
        <time>2020-02-20T11:05:19Z</time>
      </trkpt>
      <trkpt lat="48.74835" lon="2.00411">
        <ele>157.01</ele>
        <time>2020-02-20T11:05:22Z</time>
      </trkpt>
      <trkpt lat="48.74835" lon="2.00399">
        <ele>157.76</ele>
        <time>2020-02-20T11:05:29Z</time>
      </trkpt>
      <trkpt lat="48.74834" lon="2.00383">
        <ele>157.67</ele>
        <time>2020-02-20T11:05:39Z</time>
      </trkpt>
      <trkpt lat="48.74826" lon="2.0037">
        <ele>157.41</ele>
        <time>2020-02-20T11:05:51Z</time>
      </trkpt>
      <trkpt lat="48.7482" lon="2.00366">
        <ele>157.36</ele>
        <time>2020-02-20T11:05:59Z</time>
      </trkpt>
      <trkpt lat="48.74818" lon="2.00361">
        <ele>154.96</ele>
        <time>2020-02-20T11:06:04Z</time>
      </trkpt>
      <trkpt lat="48.74816" lon="2.00348">
        <ele>154.93</ele>
        <time>2020-02-20T11:06:13Z</time>
      </trkpt>
      <trkpt lat="48.74816" lon="2.00336">
        <ele>154.87</ele>
        <time>2020-02-20T11:06:22Z</time>
      </trkpt>
      <trkpt lat="48.74818" lon="2.00326">
        <ele>154.84</ele>
        <time>2020-02-20T11:06:29Z</time>
      </trkpt>
      <trkpt lat="48.74822" lon="2.00312">
        <ele>154.83</ele>
        <time>2020-02-20T11:06:39Z</time>
      </trkpt>
      <trkpt lat="48.7482" lon="2.00298">
        <ele>154.79</ele>
        <time>2020-02-20T11:06:47Z</time>
      </trkpt>
      <trkpt lat="48.74822" lon="2.00289">
        <ele>154.74</ele>
        <time>2020-02-20T11:06:54Z</time>
      </trkpt>
      <trkpt lat="48.74818" lon="2.00276">
        <ele>154.69</ele>
        <time>2020-02-20T11:07:02Z</time>
      </trkpt>
      <trkpt lat="48.74814" lon="2.00266">
        <ele>154.61</ele>
        <time>2020-02-20T11:07:10Z</time>
      </trkpt>
      <trkpt lat="48.7481" lon="2.00258">
        <ele>154.55</ele>
        <time>2020-02-20T11:07:19Z</time>
      </trkpt>
      <trkpt lat="48.74807" lon="2.00247">
        <ele>154.57</ele>
        <time>2020-02-20T11:07:30Z</time>
      </trkpt>
      <trkpt lat="48.74801" lon="2.00239">
        <ele>153.41</ele>
        <time>2020-02-20T11:07:39Z</time>
      </trkpt>
      <trkpt lat="48.748" lon="2.00228">
        <ele>153.43</ele>
        <time>2020-02-20T11:07:49Z</time>
      </trkpt>
      <trkpt lat="48.74799" lon="2.00227">
        <ele>150</ele>
        <time>2020-02-20T11:07:50Z</time>
      </trkpt>
      <trkpt lat="48.74799" lon="2.00227">
        <ele>154.33</ele>
        <time>2020-02-20T11:07:51Z</time>
      </trkpt>
      <trkpt lat="48.74796" lon="2.00224">
        <ele>154.24</ele>
        <time>2020-02-20T11:08:01Z</time>
      </trkpt>
      <trkpt lat="48.74793" lon="2.0022">
        <ele>154.25</ele>
        <time>2020-02-20T11:08:11Z</time>
      </trkpt>
      <trkpt lat="48.7479" lon="2.0022">
        <ele>154.24</ele>
        <time>2020-02-20T11:08:21Z</time>
      </trkpt>
      <trkpt lat="48.74788" lon="2.00219">
        <ele>151.48</ele>
        <time>2020-02-20T11:08:25Z</time>
      </trkpt>
      <trkpt lat="48.74783" lon="2.00221">
        <ele>150.69</ele>
        <time>2020-02-20T11:08:33Z</time>
      </trkpt>
      <trkpt lat="48.7478" lon="2.00223">
        <ele>149.67</ele>
        <time>2020-02-20T11:08:42Z</time>
      </trkpt>
      <trkpt lat="48.74776" lon="2.00224">
        <ele>147.98</ele>
        <time>2020-02-20T11:08:50Z</time>
      </trkpt>
      <trkpt lat="48.7477" lon="2.00227">
        <ele>147.18</ele>
        <time>2020-02-20T11:08:58Z</time>
      </trkpt>
      <trkpt lat="48.74764" lon="2.00231">
        <ele>144.75</ele>
        <time>2020-02-20T11:09:06Z</time>
      </trkpt>
      <trkpt lat="48.74762" lon="2.00232">
        <ele>143.99</ele>
        <time>2020-02-20T11:09:08Z</time>
      </trkpt>
      <trkpt lat="48.74757" lon="2.00235">
        <ele>143.03</ele>
        <time>2020-02-20T11:09:16Z</time>
      </trkpt>
      <trkpt lat="48.74754" lon="2.00241">
        <ele>142.09</ele>
        <time>2020-02-20T11:09:22Z</time>
      </trkpt>
      <trkpt lat="48.74755" lon="2.00252">
        <ele>142.15</ele>
        <time>2020-02-20T11:09:32Z</time>
      </trkpt>
      <trkpt lat="48.74754" lon="2.00259">
        <ele>141.23</ele>
        <time>2020-02-20T11:09:38Z</time>
      </trkpt>
      <trkpt lat="48.74755" lon="2.00268">
        <ele>141.25</ele>
        <time>2020-02-20T11:09:48Z</time>
      </trkpt>
      <trkpt lat="48.74759" lon="2.00275">
        <ele>140.13</ele>
        <time>2020-02-20T11:09:56Z</time>
      </trkpt>
      <trkpt lat="48.74763" lon="2.0028">
        <ele>139.35</ele>
        <time>2020-02-20T11:10:05Z</time>
      </trkpt>
      <trkpt lat="48.74768" lon="2.00289">
        <ele>138.61</ele>
        <time>2020-02-20T11:10:14Z</time>
      </trkpt>
      <trkpt lat="48.7477" lon="2.00298">
        <ele>138.6</ele>
        <time>2020-02-20T11:10:21Z</time>
      </trkpt>
      <trkpt lat="48.7477" lon="2.00305">
        <ele>137.4</ele>
        <time>2020-02-20T11:10:30Z</time>
      </trkpt>
      <trkpt lat="48.74772" lon="2.00315">
        <ele>137.36</ele>
        <time>2020-02-20T11:10:38Z</time>
      </trkpt>
      <trkpt lat="48.74773" lon="2.00328">
        <ele>135.37</ele>
        <time>2020-02-20T11:10:47Z</time>
      </trkpt>
      <trkpt lat="48.74776" lon="2.00337">
        <ele>135.36</ele>
        <time>2020-02-20T11:10:58Z</time>
      </trkpt>
      <trkpt lat="48.74776" lon="2.00348">
        <ele>134.34</ele>
        <time>2020-02-20T11:11:08Z</time>
      </trkpt>
      <trkpt lat="48.74776" lon="2.00359">
        <ele>134.25</ele>
        <time>2020-02-20T11:11:18Z</time>
      </trkpt>
      <trkpt lat="48.74776" lon="2.00367">
        <ele>132.32</ele>
        <time>2020-02-20T11:11:25Z</time>
      </trkpt>
      <trkpt lat="48.74778" lon="2.00378">
        <ele>132.24</ele>
        <time>2020-02-20T11:11:34Z</time>
      </trkpt>
      <trkpt lat="48.7478" lon="2.00392">
        <ele>131.3</ele>
        <time>2020-02-20T11:11:43Z</time>
      </trkpt>
      <trkpt lat="48.7478" lon="2.00406">
        <ele>129.24</ele>
        <time>2020-02-20T11:11:51Z</time>
      </trkpt>
      <trkpt lat="48.7478" lon="2.00408">
        <ele>129.23</ele>
        <time>2020-02-20T11:11:52Z</time>
      </trkpt>
      <trkpt lat="48.74782" lon="2.00421">
        <ele>128.3</ele>
        <time>2020-02-20T11:12:03Z</time>
      </trkpt>
      <trkpt lat="48.7478" lon="2.00432">
        <ele>128.14</ele>
        <time>2020-02-20T11:12:13Z</time>
      </trkpt>
      <trkpt lat="48.74777" lon="2.00445">
        <ele>126.87</ele>
        <time>2020-02-20T11:12:22Z</time>
      </trkpt>
      <trkpt lat="48.74775" lon="2.00457">
        <ele>125.06</ele>
        <time>2020-02-20T11:12:30Z</time>
      </trkpt>
      <trkpt lat="48.74775" lon="2.00458">
        <ele>125.08</ele>
        <time>2020-02-20T11:12:31Z</time>
      </trkpt>
      <trkpt lat="48.74772" lon="2.0047">
        <ele>124.98</ele>
        <time>2020-02-20T11:12:38Z</time>
      </trkpt>
      <trkpt lat="48.74773" lon="2.00472">
        <ele>123.8</ele>
        <time>2020-02-20T11:12:39Z</time>
      </trkpt>
      <trkpt lat="48.74772" lon="2.00481">
        <ele>123.77</ele>
        <time>2020-02-20T11:12:46Z</time>
      </trkpt>
      <trkpt lat="48.74771" lon="2.00495">
        <ele>122.8</ele>
        <time>2020-02-20T11:12:54Z</time>
      </trkpt>
      <trkpt lat="48.74769" lon="2.00509">
        <ele>121.88</ele>
        <time>2020-02-20T11:13:00Z</time>
      </trkpt>
      <trkpt lat="48.74766" lon="2.00522">
        <ele>120.97</ele>
        <time>2020-02-20T11:13:08Z</time>
      </trkpt>
      <trkpt lat="48.74765" lon="2.00538">
        <ele>120.04</ele>
        <time>2020-02-20T11:13:17Z</time>
      </trkpt>
      <trkpt lat="48.74763" lon="2.00548">
        <ele>119.16</ele>
        <time>2020-02-20T11:13:25Z</time>
      </trkpt>
      <trkpt lat="48.74763" lon="2.0055">
        <ele>118.07</ele>
        <time>2020-02-20T11:13:26Z</time>
      </trkpt>
      <trkpt lat="48.7476" lon="2.00562">
        <ele>118</ele>
        <time>2020-02-20T11:13:33Z</time>
      </trkpt>
      <trkpt lat="48.74759" lon="2.00571">
        <ele>117.09</ele>
        <time>2020-02-20T11:13:38Z</time>
      </trkpt>
      <trkpt lat="48.74758" lon="2.00585">
        <ele>117.01</ele>
        <time>2020-02-20T11:13:48Z</time>
      </trkpt>
      <trkpt lat="48.74752" lon="2.00598">
        <ele>116.93</ele>
        <time>2020-02-20T11:13:58Z</time>
      </trkpt>
      <trkpt lat="48.74751" lon="2.00603">
        <ele>115.41</ele>
        <time>2020-02-20T11:14:05Z</time>
      </trkpt>
      <trkpt lat="48.74748" lon="2.00607">
        <ele>115.38</ele>
        <time>2020-02-20T11:14:15Z</time>
      </trkpt>
      <trkpt lat="48.74742" lon="2.00633">
        <ele>115.43</ele>
        <time>2020-02-20T11:14:29Z</time>
      </trkpt>
      <trkpt lat="48.74741" lon="2.00639">
        <ele>115.52</ele>
        <time>2020-02-20T11:14:36Z</time>
      </trkpt>
      <trkpt lat="48.7474" lon="2.00648">
        <ele>115.59</ele>
        <time>2020-02-20T11:14:45Z</time>
      </trkpt>
      <trkpt lat="48.74737" lon="2.00658">
        <ele>115.71</ele>
        <time>2020-02-20T11:14:53Z</time>
      </trkpt>
      <trkpt lat="48.74737" lon="2.00664">
        <ele>115.78</ele>
        <time>2020-02-20T11:14:58Z</time>
      </trkpt>
      <trkpt lat="48.74737" lon="2.00677">
        <ele>115.94</ele>
        <time>2020-02-20T11:15:07Z</time>
      </trkpt>
      <trkpt lat="48.74733" lon="2.00686">
        <ele>118.35</ele>
        <time>2020-02-20T11:15:16Z</time>
      </trkpt>
      <trkpt lat="48.74732" lon="2.00687">
        <ele>118.36</ele>
        <time>2020-02-20T11:15:17Z</time>
      </trkpt>
      <trkpt lat="48.74726" lon="2.00696">
        <ele>118.4</ele>
        <time>2020-02-20T11:15:24Z</time>
      </trkpt>
      <trkpt lat="48.74719" lon="2.00705">
        <ele>119.23</ele>
        <time>2020-02-20T11:15:32Z</time>
      </trkpt>
      <trkpt lat="48.7471" lon="2.0072">
        <ele>120.15</ele>
        <time>2020-02-20T11:15:43Z</time>
      </trkpt>
      <trkpt lat="48.74703" lon="2.00726">
        <ele>120.97</ele>
        <time>2020-02-20T11:15:51Z</time>
      </trkpt>
      <trkpt lat="48.74698" lon="2.00734">
        <ele>121.83</ele>
        <time>2020-02-20T11:16:00Z</time>
      </trkpt>
      <trkpt lat="48.74693" lon="2.00746">
        <ele>121.8</ele>
        <time>2020-02-20T11:16:08Z</time>
      </trkpt>
      <trkpt lat="48.74688" lon="2.0076">
        <ele>121.8</ele>
        <time>2020-02-20T11:16:17Z</time>
      </trkpt>
      <trkpt lat="48.74682" lon="2.00772">
        <ele>121.8</ele>
        <time>2020-02-20T11:16:26Z</time>
      </trkpt>
      <trkpt lat="48.74675" lon="2.00782">
        <ele>121.79</ele>
        <time>2020-02-20T11:16:36Z</time>
      </trkpt>
      <trkpt lat="48.74668" lon="2.00796">
        <ele>121.78</ele>
        <time>2020-02-20T11:16:45Z</time>
      </trkpt>
      <trkpt lat="48.74663" lon="2.00809">
        <ele>121.77</ele>
        <time>2020-02-20T11:16:52Z</time>
      </trkpt>
      <trkpt lat="48.74664" lon="2.00823">
        <ele>121.8</ele>
        <time>2020-02-20T11:17:02Z</time>
      </trkpt>
      <trkpt lat="48.74664" lon="2.00825">
        <ele>121.79</ele>
        <time>2020-02-20T11:17:03Z</time>
      </trkpt>
      <trkpt lat="48.74665" lon="2.00839">
        <ele>123.01</ele>
        <time>2020-02-20T11:17:12Z</time>
      </trkpt>
      <trkpt lat="48.74672" lon="2.00851">
        <ele>122.95</ele>
        <time>2020-02-20T11:17:22Z</time>
      </trkpt>
      <trkpt lat="48.74679" lon="2.00864">
        <ele>122.92</ele>
        <time>2020-02-20T11:17:31Z</time>
      </trkpt>
      <trkpt lat="48.74687" lon="2.00878">
        <ele>122.95</ele>
        <time>2020-02-20T11:17:42Z</time>
      </trkpt>
      <trkpt lat="48.74688" lon="2.00894">
        <ele>122.95</ele>
        <time>2020-02-20T11:17:54Z</time>
      </trkpt>
      <trkpt lat="48.74681" lon="2.0091">
        <ele>122.92</ele>
        <time>2020-02-20T11:18:05Z</time>
      </trkpt>
      <trkpt lat="48.74678" lon="2.00924">
        <ele>120.66</ele>
        <time>2020-02-20T11:18:16Z</time>
      </trkpt>
      <trkpt lat="48.74678" lon="2.00926">
        <ele>120.66</ele>
        <time>2020-02-20T11:18:17Z</time>
      </trkpt>
      <trkpt lat="48.7468" lon="2.0094">
        <ele>119.87</ele>
        <time>2020-02-20T11:18:27Z</time>
      </trkpt>
      <trkpt lat="48.74684" lon="2.00953">
        <ele>119.07</ele>
        <time>2020-02-20T11:18:36Z</time>
      </trkpt>
      <trkpt lat="48.74689" lon="2.00963">
        <ele>118.2</ele>
        <time>2020-02-20T11:18:44Z</time>
      </trkpt>
      <trkpt lat="48.74697" lon="2.00972">
        <ele>118.17</ele>
        <time>2020-02-20T11:18:53Z</time>
      </trkpt>
      <trkpt lat="48.74697" lon="2.00978">
        <ele>118.14</ele>
        <time>2020-02-20T11:19:01Z</time>
      </trkpt>
      <trkpt lat="48.74689" lon="2.00985">
        <ele>116.98</ele>
        <time>2020-02-20T11:19:11Z</time>
      </trkpt>
      <trkpt lat="48.74683" lon="2.00994">
        <ele>115.33</ele>
        <time>2020-02-20T11:19:20Z</time>
      </trkpt>
      <trkpt lat="48.74677" lon="2.01012">
        <ele>113.42</ele>
        <time>2020-02-20T11:19:32Z</time>
      </trkpt>
      <trkpt lat="48.74675" lon="2.01028">
        <ele>112.5</ele>
        <time>2020-02-20T11:19:42Z</time>
      </trkpt>
      <trkpt lat="48.74671" lon="2.01046">
        <ele>112.47</ele>
        <time>2020-02-20T11:19:51Z</time>
      </trkpt>
      <trkpt lat="48.74669" lon="2.01064">
        <ele>112.43</ele>
        <time>2020-02-20T11:20:01Z</time>
      </trkpt>
      <trkpt lat="48.74663" lon="2.01086">
        <ele>111.58</ele>
        <time>2020-02-20T11:20:12Z</time>
      </trkpt>
      <trkpt lat="48.74657" lon="2.01095">
        <ele>111.55</ele>
        <time>2020-02-20T11:20:21Z</time>
      </trkpt>
      <trkpt lat="48.74654" lon="2.0111">
        <ele>111.55</ele>
        <time>2020-02-20T11:20:29Z</time>
      </trkpt>
      <trkpt lat="48.74647" lon="2.01127">
        <ele>111.53</ele>
        <time>2020-02-20T11:20:39Z</time>
      </trkpt>
      <trkpt lat="48.74644" lon="2.01138">
        <ele>111.54</ele>
        <time>2020-02-20T11:20:49Z</time>
      </trkpt>
      <trkpt lat="48.74639" lon="2.01149">
        <ele>111.52</ele>
        <time>2020-02-20T11:20:56Z</time>
      </trkpt>
      <trkpt lat="48.74628" lon="2.01163">
        <ele>111.51</ele>
        <time>2020-02-20T11:21:05Z</time>
      </trkpt>
      <trkpt lat="48.74625" lon="2.01166">
        <ele>110.26</ele>
        <time>2020-02-20T11:21:08Z</time>
      </trkpt>
      <trkpt lat="48.74619" lon="2.01173">
        <ele>109.28</ele>
        <time>2020-02-20T11:21:14Z</time>
      </trkpt>
      <trkpt lat="48.7461" lon="2.01188">
        <ele>109.27</ele>
        <time>2020-02-20T11:21:24Z</time>
      </trkpt>
      <trkpt lat="48.74609" lon="2.01189">
        <ele>109.28</ele>
        <time>2020-02-20T11:21:25Z</time>
      </trkpt>
      <trkpt lat="48.74603" lon="2.01202">
        <ele>109.27</ele>
        <time>2020-02-20T11:21:36Z</time>
      </trkpt>
      <trkpt lat="48.74598" lon="2.01214">
        <ele>109.24</ele>
        <time>2020-02-20T11:21:44Z</time>
      </trkpt>
      <trkpt lat="48.74595" lon="2.01225">
        <ele>109.26</ele>
        <time>2020-02-20T11:21:54Z</time>
      </trkpt>
      <trkpt lat="48.74592" lon="2.01237">
        <ele>109.24</ele>
        <time>2020-02-20T11:22:04Z</time>
      </trkpt>
      <trkpt lat="48.7459" lon="2.01251">
        <ele>109.21</ele>
        <time>2020-02-20T11:22:12Z</time>
      </trkpt>
      <trkpt lat="48.74589" lon="2.01269">
        <ele>108.42</ele>
        <time>2020-02-20T11:22:21Z</time>
      </trkpt>
      <trkpt lat="48.74589" lon="2.0127">
        <ele>108.43</ele>
        <time>2020-02-20T11:22:22Z</time>
      </trkpt>
      <trkpt lat="48.74589" lon="2.01284">
        <ele>108.39</ele>
        <time>2020-02-20T11:22:31Z</time>
      </trkpt>
      <trkpt lat="48.74588" lon="2.01301">
        <ele>107.59</ele>
        <time>2020-02-20T11:22:38Z</time>
      </trkpt>
      <trkpt lat="48.74588" lon="2.01309">
        <ele>107.57</ele>
        <time>2020-02-20T11:22:44Z</time>
      </trkpt>
      <trkpt lat="48.74588" lon="2.01312">
        <ele>107.54</ele>
        <time>2020-02-20T11:22:46Z</time>
      </trkpt>
      <trkpt lat="48.74588" lon="2.01323">
        <ele>107.5</ele>
        <time>2020-02-20T11:22:54Z</time>
      </trkpt>
      <trkpt lat="48.74587" lon="2.01335">
        <ele>106.67</ele>
        <time>2020-02-20T11:23:02Z</time>
      </trkpt>
      <trkpt lat="48.74587" lon="2.0134">
        <ele>106.64</ele>
        <time>2020-02-20T11:23:06Z</time>
      </trkpt>
      <trkpt lat="48.74581" lon="2.01359">
        <ele>106.58</ele>
        <time>2020-02-20T11:23:18Z</time>
      </trkpt>
      <trkpt lat="48.74575" lon="2.01371">
        <ele>106.54</ele>
        <time>2020-02-20T11:23:28Z</time>
      </trkpt>
      <trkpt lat="48.7457" lon="2.01386">
        <ele>106.47</ele>
        <time>2020-02-20T11:23:36Z</time>
      </trkpt>
      <trkpt lat="48.74561" lon="2.01405">
        <ele>106.43</ele>
        <time>2020-02-20T11:23:47Z</time>
      </trkpt>
      <trkpt lat="48.74554" lon="2.01417">
        <ele>106.42</ele>
        <time>2020-02-20T11:23:55Z</time>
      </trkpt>
      <trkpt lat="48.74547" lon="2.0143">
        <ele>106.41</ele>
        <time>2020-02-20T11:24:03Z</time>
      </trkpt>
      <trkpt lat="48.74541" lon="2.01442">
        <ele>106.42</ele>
        <time>2020-02-20T11:24:11Z</time>
      </trkpt>
      <trkpt lat="48.74538" lon="2.01451">
        <ele>106.42</ele>
        <time>2020-02-20T11:24:17Z</time>
      </trkpt>
      <trkpt lat="48.74534" lon="2.0146">
        <ele>106.43</ele>
        <time>2020-02-20T11:24:23Z</time>
      </trkpt>
      <trkpt lat="48.7453" lon="2.01469">
        <ele>106.42</ele>
        <time>2020-02-20T11:24:30Z</time>
      </trkpt>
      <trkpt lat="48.74529" lon="2.01481">
        <ele>106.41</ele>
        <time>2020-02-20T11:24:39Z</time>
      </trkpt>
      <trkpt lat="48.7453" lon="2.01493">
        <ele>106.41</ele>
        <time>2020-02-20T11:24:47Z</time>
      </trkpt>
      <trkpt lat="48.7453" lon="2.0151">
        <ele>106.38</ele>
        <time>2020-02-20T11:24:57Z</time>
      </trkpt>
      <trkpt lat="48.74532" lon="2.01518">
        <ele>106.39</ele>
        <time>2020-02-20T11:25:03Z</time>
      </trkpt>
      <trkpt lat="48.74538" lon="2.01532">
        <ele>106.37</ele>
        <time>2020-02-20T11:25:13Z</time>
      </trkpt>
      <trkpt lat="48.74543" lon="2.01539">
        <ele>106.36</ele>
        <time>2020-02-20T11:25:20Z</time>
      </trkpt>
      <trkpt lat="48.74546" lon="2.01547">
        <ele>108.72</ele>
        <time>2020-02-20T11:25:25Z</time>
      </trkpt>
      <trkpt lat="48.7455" lon="2.0156">
        <ele>109.67</ele>
        <time>2020-02-20T11:25:33Z</time>
      </trkpt>
      <trkpt lat="48.74552" lon="2.01576">
        <ele>109.65</ele>
        <time>2020-02-20T11:25:41Z</time>
      </trkpt>
      <trkpt lat="48.74555" lon="2.01595">
        <ele>110.47</ele>
        <time>2020-02-20T11:25:50Z</time>
      </trkpt>
      <trkpt lat="48.74558" lon="2.01614">
        <ele>110.51</ele>
        <time>2020-02-20T11:26:00Z</time>
      </trkpt>
      <trkpt lat="48.74558" lon="2.01619">
        <ele>110.53</ele>
        <time>2020-02-20T11:26:03Z</time>
      </trkpt>
      <trkpt lat="48.74557" lon="2.01635">
        <ele>110.59</ele>
        <time>2020-02-20T11:26:11Z</time>
      </trkpt>
      <trkpt lat="48.74555" lon="2.01647">
        <ele>110.68</ele>
        <time>2020-02-20T11:26:20Z</time>
      </trkpt>
      <trkpt lat="48.74559" lon="2.01656">
        <ele>110.76</ele>
        <time>2020-02-20T11:26:30Z</time>
      </trkpt>
      <trkpt lat="48.74562" lon="2.01655">
        <ele>111.58</ele>
        <time>2020-02-20T11:26:42Z</time>
      </trkpt>
      <trkpt lat="48.74563" lon="2.01654">
        <ele>111.71</ele>
        <time>2020-02-20T11:26:54Z</time>
      </trkpt>
      <trkpt lat="48.74562" lon="2.01658">
        <ele>111.84</ele>
        <time>2020-02-20T11:27:11Z</time>
      </trkpt>
      <trkpt lat="48.74558" lon="2.01667">
        <ele>111.93</ele>
        <time>2020-02-20T11:27:23Z</time>
      </trkpt>
      <trkpt lat="48.74559" lon="2.01681">
        <ele>111.97</ele>
        <time>2020-02-20T11:27:32Z</time>
      </trkpt>
      <trkpt lat="48.7456" lon="2.0169">
        <ele>112.01</ele>
        <time>2020-02-20T11:27:40Z</time>
      </trkpt>
      <trkpt lat="48.74562" lon="2.01693">
        <ele>112.02</ele>
        <time>2020-02-20T11:27:49Z</time>
      </trkpt>
      <trkpt lat="48.74562" lon="2.01697">
        <ele>112.06</ele>
        <time>2020-02-20T11:27:56Z</time>
      </trkpt>
      <trkpt lat="48.74564" lon="2.01708">
        <ele>112.99</ele>
        <time>2020-02-20T11:28:04Z</time>
      </trkpt>
      <trkpt lat="48.74567" lon="2.01722">
        <ele>113</ele>
        <time>2020-02-20T11:28:12Z</time>
      </trkpt>
      <trkpt lat="48.7457" lon="2.01739">
        <ele>112.98</ele>
        <time>2020-02-20T11:28:24Z</time>
      </trkpt>
      <trkpt lat="48.74573" lon="2.01751">
        <ele>113.72</ele>
        <time>2020-02-20T11:28:35Z</time>
      </trkpt>
      <trkpt lat="48.74577" lon="2.01753">
        <ele>114.92</ele>
        <time>2020-02-20T11:28:44Z</time>
      </trkpt>
      <trkpt lat="48.74578" lon="2.01752">
        <ele>114.85</ele>
        <time>2020-02-20T11:28:59Z</time>
      </trkpt>
      <trkpt lat="48.74576" lon="2.0175">
        <ele>115.56</ele>
        <time>2020-02-20T11:29:13Z</time>
      </trkpt>
      <trkpt lat="48.74575" lon="2.01749">
        <ele>115.52</ele>
        <time>2020-02-20T11:29:26Z</time>
      </trkpt>
      <trkpt lat="48.74575" lon="2.01751">
        <ele>115.5</ele>
        <time>2020-02-20T11:29:35Z</time>
      </trkpt>
      <trkpt lat="48.74571" lon="2.01751">
        <ele>115.5</ele>
        <time>2020-02-20T11:29:46Z</time>
      </trkpt>
      <trkpt lat="48.74569" lon="2.01752">
        <ele>115.47</ele>
        <time>2020-02-20T11:29:53Z</time>
      </trkpt>
      <trkpt lat="48.74573" lon="2.01754">
        <ele>113.02</ele>
        <time>2020-02-20T11:29:58Z</time>
      </trkpt>
      <trkpt lat="48.74575" lon="2.01752">
        <ele>113.02</ele>
        <time>2020-02-20T11:30:14Z</time>
      </trkpt>
      <trkpt lat="48.74573" lon="2.0175">
        <ele>113.04</ele>
        <time>2020-02-20T11:30:32Z</time>
      </trkpt>
      <trkpt lat="48.7457" lon="2.01749">
        <ele>113.05</ele>
        <time>2020-02-20T11:30:44Z</time>
      </trkpt>
      <trkpt lat="48.74569" lon="2.01749">
        <ele>113.06</ele>
        <time>2020-02-20T11:31:00Z</time>
      </trkpt>
      <trkpt lat="48.7457" lon="2.01753">
        <ele>113.08</ele>
        <time>2020-02-20T11:31:17Z</time>
      </trkpt>
      <trkpt lat="48.74571" lon="2.01754">
        <ele>113.12</ele>
        <time>2020-02-20T11:31:31Z</time>
      </trkpt>
      <trkpt lat="48.74572" lon="2.01753">
        <ele>113.2</ele>
        <time>2020-02-20T11:31:50Z</time>
      </trkpt>
      <trkpt lat="48.7457" lon="2.01754">
        <ele>113.29</ele>
        <time>2020-02-20T11:32:09Z</time>
      </trkpt>
      <trkpt lat="48.74568" lon="2.01757">
        <ele>113.39</ele>
        <time>2020-02-20T11:32:25Z</time>
      </trkpt>
      <trkpt lat="48.74573" lon="2.0176">
        <ele>113.5</ele>
        <time>2020-02-20T11:32:44Z</time>
      </trkpt>
      <trkpt lat="48.74572" lon="2.01761">
        <ele>113.66</ele>
        <time>2020-02-20T11:33:12Z</time>
      </trkpt>
      <trkpt lat="48.74573" lon="2.01759">
        <ele>113.81</ele>
        <time>2020-02-20T11:33:45Z</time>
      </trkpt>
      <trkpt lat="48.7457" lon="2.01759">
        <ele>113.91</ele>
        <time>2020-02-20T11:34:08Z</time>
      </trkpt>
      <trkpt lat="48.74569" lon="2.01757">
        <ele>114.06</ele>
        <time>2020-02-20T11:34:37Z</time>
      </trkpt>
      <trkpt lat="48.74566" lon="2.01759">
        <ele>114.24</ele>
        <time>2020-02-20T11:35:11Z</time>
      </trkpt>
      <trkpt lat="48.74566" lon="2.0176">
        <ele>114.38</ele>
        <time>2020-02-20T11:35:37Z</time>
      </trkpt>
      <trkpt lat="48.74568" lon="2.01763">
        <ele>114.48</ele>
        <time>2020-02-20T11:36:00Z</time>
      </trkpt>
      <trkpt lat="48.74569" lon="2.01761">
        <ele>114.58</ele>
        <time>2020-02-20T11:36:19Z</time>
      </trkpt>
      <trkpt lat="48.74568" lon="2.01761">
        <ele>114.7</ele>
        <time>2020-02-20T11:36:44Z</time>
      </trkpt>
      <trkpt lat="48.74567" lon="2.0176">
        <ele>114.82</ele>
        <time>2020-02-20T11:37:09Z</time>
      </trkpt>
      <trkpt lat="48.74564" lon="2.01758">
        <ele>114.95</ele>
        <time>2020-02-20T11:37:34Z</time>
      </trkpt>
      <trkpt lat="48.74566" lon="2.01761">
        <ele>115.11</ele>
        <time>2020-02-20T11:38:02Z</time>
      </trkpt>
      <trkpt lat="48.74568" lon="2.01762">
        <ele>115.25</ele>
        <time>2020-02-20T11:38:24Z</time>
      </trkpt>
      <trkpt lat="48.74569" lon="2.01762">
        <ele>115.43</ele>
        <time>2020-02-20T11:38:53Z</time>
      </trkpt>
      <trkpt lat="48.74569" lon="2.01762">
        <ele>118.02</ele>
        <time>2020-02-20T11:39:13Z</time>
      </trkpt>
      <trkpt lat="48.74568" lon="2.01761">
        <ele>118.15</ele>
        <time>2020-02-20T11:39:34Z</time>
      </trkpt>
      <trkpt lat="48.74567" lon="2.01757">
        <ele>118.29</ele>
        <time>2020-02-20T11:39:51Z</time>
      </trkpt>
      <trkpt lat="48.74567" lon="2.01756">
        <ele>118.4</ele>
        <time>2020-02-20T11:40:27Z</time>
      </trkpt>
      <trkpt lat="48.74566" lon="2.01758">
        <ele>118.54</ele>
        <time>2020-02-20T11:41:00Z</time>
      </trkpt>
      <trkpt lat="48.74567" lon="2.01759">
        <ele>118.64</ele>
        <time>2020-02-20T11:41:33Z</time>
      </trkpt>
      <trkpt lat="48.7457" lon="2.01758">
        <ele>118.77</ele>
        <time>2020-02-20T11:42:08Z</time>
      </trkpt>
      <trkpt lat="48.7457" lon="2.01757">
        <ele>118.9</ele>
        <time>2020-02-20T11:42:35Z</time>
      </trkpt>
      <trkpt lat="48.74569" lon="2.01755">
        <ele>119.04</ele>
        <time>2020-02-20T11:43:15Z</time>
      </trkpt>
      <trkpt lat="48.74569" lon="2.01756">
        <ele>119.1</ele>
        <time>2020-02-20T11:43:40Z</time>
      </trkpt>
      <trkpt lat="48.74571" lon="2.01758">
        <ele>119.17</ele>
        <time>2020-02-20T11:44:05Z</time>
      </trkpt>
      <trkpt lat="48.74573" lon="2.01757">
        <ele>119.2</ele>
        <time>2020-02-20T11:44:24Z</time>
      </trkpt>
      <trkpt lat="48.74572" lon="2.01757">
        <ele>119.24</ele>
        <time>2020-02-20T11:44:44Z</time>
      </trkpt>
      <trkpt lat="48.74574" lon="2.01753">
        <ele>119.35</ele>
        <time>2020-02-20T11:45:14Z</time>
      </trkpt>
      <trkpt lat="48.74573" lon="2.01754">
        <ele>119.48</ele>
        <time>2020-02-20T11:45:49Z</time>
      </trkpt>
      <trkpt lat="48.74573" lon="2.01754">
        <ele>119.54</ele>
        <time>2020-02-20T11:46:05Z</time>
      </trkpt>
      <trkpt lat="48.74574" lon="2.01754">
        <ele>119.64</ele>
        <time>2020-02-20T11:46:27Z</time>
      </trkpt>
      <trkpt lat="48.74575" lon="2.01755">
        <ele>119.79</ele>
        <time>2020-02-20T11:46:58Z</time>
      </trkpt>
      <trkpt lat="48.74575" lon="2.0176">
        <ele>120.75</ele>
        <time>2020-02-20T11:47:27Z</time>
      </trkpt>
      <trkpt lat="48.74576" lon="2.01762">
        <ele>120.93</ele>
        <time>2020-02-20T11:47:57Z</time>
      </trkpt>
      <trkpt lat="48.74575" lon="2.01761">
        <ele>121.04</ele>
        <time>2020-02-20T11:48:15Z</time>
      </trkpt>
      <trkpt lat="48.74574" lon="2.01759">
        <ele>121.11</ele>
        <time>2020-02-20T11:48:30Z</time>
      </trkpt>
      <trkpt lat="48.74574" lon="2.01759">
        <ele>121.24</ele>
        <time>2020-02-20T11:48:47Z</time>
      </trkpt>
      <trkpt lat="48.74573" lon="2.01759">
        <ele>121.38</ele>
        <time>2020-02-20T11:49:06Z</time>
      </trkpt>
      <trkpt lat="48.74574" lon="2.01761">
        <ele>122.44</ele>
        <time>2020-02-20T11:49:39Z</time>
      </trkpt>
      <trkpt lat="48.74573" lon="2.01757">
        <ele>122.68</ele>
        <time>2020-02-20T11:50:16Z</time>
      </trkpt>
      <trkpt lat="48.74572" lon="2.01759">
        <ele>122.86</ele>
        <time>2020-02-20T11:50:43Z</time>
      </trkpt>
      <trkpt lat="48.74572" lon="2.01757">
        <ele>123.08</ele>
        <time>2020-02-20T11:51:19Z</time>
      </trkpt>
      <trkpt lat="48.74571" lon="2.01755">
        <ele>123.27</ele>
        <time>2020-02-20T11:51:56Z</time>
      </trkpt>
      <trkpt lat="48.74573" lon="2.01756">
        <ele>123.44</ele>
        <time>2020-02-20T11:52:33Z</time>
      </trkpt>
      <trkpt lat="48.74572" lon="2.01756">
        <ele>123.56</ele>
        <time>2020-02-20T11:52:59Z</time>
      </trkpt>
      <trkpt lat="48.74573" lon="2.01757">
        <ele>123.62</ele>
        <time>2020-02-20T11:53:16Z</time>
      </trkpt>
      <trkpt lat="48.7457" lon="2.01755">
        <ele>123.7</ele>
        <time>2020-02-20T11:53:44Z</time>
      </trkpt>
      <trkpt lat="48.74568" lon="2.01753">
        <ele>123.76</ele>
        <time>2020-02-20T11:54:03Z</time>
      </trkpt>
      <trkpt lat="48.74568" lon="2.01755">
        <ele>123.85</ele>
        <time>2020-02-20T11:54:39Z</time>
      </trkpt>
      <trkpt lat="48.74568" lon="2.01753">
        <ele>123.91</ele>
        <time>2020-02-20T11:55:08Z</time>
      </trkpt>
      <trkpt lat="48.74569" lon="2.01751">
        <ele>123.93</ele>
        <time>2020-02-20T11:55:29Z</time>
      </trkpt>
      <trkpt lat="48.7457" lon="2.01751">
        <ele>123.96</ele>
        <time>2020-02-20T11:55:49Z</time>
      </trkpt>
      <trkpt lat="48.74571" lon="2.01753">
        <ele>123.97</ele>
        <time>2020-02-20T11:56:02Z</time>
      </trkpt>
      <trkpt lat="48.74573" lon="2.01755">
        <ele>123.99</ele>
        <time>2020-02-20T11:56:19Z</time>
      </trkpt>
      <trkpt lat="48.74574" lon="2.01755">
        <ele>124</ele>
        <time>2020-02-20T11:56:37Z</time>
      </trkpt>
      <trkpt lat="48.74576" lon="2.01755">
        <ele>124</ele>
        <time>2020-02-20T11:56:57Z</time>
      </trkpt>
      <trkpt lat="48.74573" lon="2.01753">
        <ele>123.97</ele>
        <time>2020-02-20T11:57:14Z</time>
      </trkpt>
      <trkpt lat="48.74573" lon="2.0175">
        <ele>123.93</ele>
        <time>2020-02-20T11:57:30Z</time>
      </trkpt>
      <trkpt lat="48.74572" lon="2.01751">
        <ele>125.15</ele>
        <time>2020-02-20T11:57:44Z</time>
      </trkpt>
      <trkpt lat="48.74573" lon="2.01754">
        <ele>125.08</ele>
        <time>2020-02-20T11:57:55Z</time>
      </trkpt>
      <trkpt lat="48.74573" lon="2.01758">
        <ele>125.04</ele>
        <time>2020-02-20T11:58:14Z</time>
      </trkpt>
      <trkpt lat="48.74574" lon="2.01759">
        <ele>125.02</ele>
        <time>2020-02-20T11:58:26Z</time>
      </trkpt>
      <trkpt lat="48.74575" lon="2.01759">
        <ele>125.01</ele>
        <time>2020-02-20T11:58:39Z</time>
      </trkpt>
      <trkpt lat="48.74576" lon="2.01758">
        <ele>125.75</ele>
        <time>2020-02-20T11:58:49Z</time>
      </trkpt>
      <trkpt lat="48.74578" lon="2.01757">
        <ele>125.75</ele>
        <time>2020-02-20T11:59:01Z</time>
      </trkpt>
      <trkpt lat="48.74578" lon="2.01757">
        <ele>125.74</ele>
        <time>2020-02-20T11:59:20Z</time>
      </trkpt>
      <trkpt lat="48.74579" lon="2.01754">
        <ele>125.74</ele>
        <time>2020-02-20T11:59:31Z</time>
      </trkpt>
      <trkpt lat="48.74578" lon="2.01752">
        <ele>125.75</ele>
        <time>2020-02-20T11:59:45Z</time>
      </trkpt>
      <trkpt lat="48.74577" lon="2.01753">
        <ele>125.74</ele>
        <time>2020-02-20T12:00:01Z</time>
      </trkpt>
      <trkpt lat="48.74578" lon="2.01754">
        <ele>125.73</ele>
        <time>2020-02-20T12:00:18Z</time>
      </trkpt>
      <trkpt lat="48.74579" lon="2.01755">
        <ele>125.73</ele>
        <time>2020-02-20T12:00:32Z</time>
      </trkpt>
      <trkpt lat="48.74581" lon="2.01754">
        <ele>125.76</ele>
        <time>2020-02-20T12:00:48Z</time>
      </trkpt>
      <trkpt lat="48.7458" lon="2.01757">
        <ele>125.75</ele>
        <time>2020-02-20T12:01:03Z</time>
      </trkpt>
      <trkpt lat="48.74579" lon="2.0176">
        <ele>125.77</ele>
        <time>2020-02-20T12:01:18Z</time>
      </trkpt>
      <trkpt lat="48.74576" lon="2.01755">
        <ele>125.78</ele>
        <time>2020-02-20T12:01:26Z</time>
      </trkpt>
      <trkpt lat="48.74572" lon="2.01744">
        <ele>125.76</ele>
        <time>2020-02-20T12:01:35Z</time>
      </trkpt>
      <trkpt lat="48.74568" lon="2.01734">
        <ele>125.76</ele>
        <time>2020-02-20T12:01:43Z</time>
      </trkpt>
      <trkpt lat="48.74567" lon="2.0173">
        <ele>123.29</ele>
        <time>2020-02-20T12:01:46Z</time>
      </trkpt>
      <trkpt lat="48.74561" lon="2.01722">
        <ele>123.26</ele>
        <time>2020-02-20T12:01:55Z</time>
      </trkpt>
      <trkpt lat="48.74557" lon="2.01727">
        <ele>122.34</ele>
        <time>2020-02-20T12:02:01Z</time>
      </trkpt>
      <trkpt lat="48.74551" lon="2.01736">
        <ele>122.29</ele>
        <time>2020-02-20T12:02:11Z</time>
      </trkpt>
      <trkpt lat="48.74542" lon="2.01743">
        <ele>122.21</ele>
        <time>2020-02-20T12:02:20Z</time>
      </trkpt>
      <trkpt lat="48.74532" lon="2.01753">
        <ele>122.12</ele>
        <time>2020-02-20T12:02:30Z</time>
      </trkpt>
      <trkpt lat="48.74523" lon="2.01761">
        <ele>122.02</ele>
        <time>2020-02-20T12:02:39Z</time>
      </trkpt>
      <trkpt lat="48.74514" lon="2.01765">
        <ele>121.94</ele>
        <time>2020-02-20T12:02:48Z</time>
      </trkpt>
      <trkpt lat="48.74507" lon="2.01768">
        <ele>121.91</ele>
        <time>2020-02-20T12:02:57Z</time>
      </trkpt>
      <trkpt lat="48.74501" lon="2.01774">
        <ele>124.51</ele>
        <time>2020-02-20T12:03:04Z</time>
      </trkpt>
      <trkpt lat="48.74494" lon="2.01783">
        <ele>124.4</ele>
        <time>2020-02-20T12:03:13Z</time>
      </trkpt>
      <trkpt lat="48.74484" lon="2.01791">
        <ele>126.28</ele>
        <time>2020-02-20T12:03:23Z</time>
      </trkpt>
      <trkpt lat="48.74476" lon="2.01797">
        <ele>127.02</ele>
        <time>2020-02-20T12:03:32Z</time>
      </trkpt>
      <trkpt lat="48.74467" lon="2.01802">
        <ele>126.91</ele>
        <time>2020-02-20T12:03:41Z</time>
      </trkpt>
      <trkpt lat="48.74466" lon="2.01802">
        <ele>128.2</ele>
        <time>2020-02-20T12:03:43Z</time>
      </trkpt>
      <trkpt lat="48.7446" lon="2.01807">
        <ele>128.01</ele>
        <time>2020-02-20T12:04:01Z</time>
      </trkpt>
      <trkpt lat="48.7446" lon="2.01805">
        <ele>127.82</ele>
        <time>2020-02-20T12:04:25Z</time>
      </trkpt>
      <trkpt lat="48.74458" lon="2.01801">
        <ele>127.69</ele>
        <time>2020-02-20T12:04:46Z</time>
      </trkpt>
      <trkpt lat="48.74458" lon="2.018">
        <ele>127.6</ele>
        <time>2020-02-20T12:05:08Z</time>
      </trkpt>
      <trkpt lat="48.74456" lon="2.01803">
        <ele>127.55</ele>
        <time>2020-02-20T12:05:20Z</time>
      </trkpt>
      <trkpt lat="48.74455" lon="2.01804">
        <ele>123.26</ele>
        <time>2020-02-20T12:05:22Z</time>
      </trkpt>
      <trkpt lat="48.74455" lon="2.01804">
        <ele>128.11</ele>
        <time>2020-02-20T12:05:23Z</time>
      </trkpt>
      <trkpt lat="48.74451" lon="2.0181">
        <ele>124.46</ele>
        <time>2020-02-20T12:05:32Z</time>
      </trkpt>
      <trkpt lat="48.74441" lon="2.01815">
        <ele>124.43</ele>
        <time>2020-02-20T12:05:43Z</time>
      </trkpt>
      <trkpt lat="48.74428" lon="2.01823">
        <ele>123.56</ele>
        <time>2020-02-20T12:05:55Z</time>
      </trkpt>
      <trkpt lat="48.74415" lon="2.0183">
        <ele>122.31</ele>
        <time>2020-02-20T12:06:08Z</time>
      </trkpt>
      <trkpt lat="48.74405" lon="2.01835">
        <ele>120.25</ele>
        <time>2020-02-20T12:06:17Z</time>
      </trkpt>
      <trkpt lat="48.74395" lon="2.01841">
        <ele>120.22</ele>
        <time>2020-02-20T12:06:26Z</time>
      </trkpt>
      <trkpt lat="48.74385" lon="2.01847">
        <ele>118.18</ele>
        <time>2020-02-20T12:06:36Z</time>
      </trkpt>
      <trkpt lat="48.74374" lon="2.01851">
        <ele>118.07</ele>
        <time>2020-02-20T12:06:47Z</time>
      </trkpt>
      <trkpt lat="48.74364" lon="2.01859">
        <ele>117.98</ele>
        <time>2020-02-20T12:06:59Z</time>
      </trkpt>
      <trkpt lat="48.74357" lon="2.0187">
        <ele>116.26</ele>
        <time>2020-02-20T12:07:09Z</time>
      </trkpt>
      <trkpt lat="48.74349" lon="2.01878">
        <ele>116.15</ele>
        <time>2020-02-20T12:07:19Z</time>
      </trkpt>
      <trkpt lat="48.74341" lon="2.01886">
        <ele>115.13</ele>
        <time>2020-02-20T12:07:29Z</time>
      </trkpt>
      <trkpt lat="48.74333" lon="2.01895">
        <ele>114.12</ele>
        <time>2020-02-20T12:07:39Z</time>
      </trkpt>
      <trkpt lat="48.74326" lon="2.01896">
        <ele>113.12</ele>
        <time>2020-02-20T12:07:43Z</time>
      </trkpt>
      <trkpt lat="48.74313" lon="2.019">
        <ele>112.21</ele>
        <time>2020-02-20T12:07:54Z</time>
      </trkpt>
      <trkpt lat="48.743" lon="2.01902">
        <ele>111.22</ele>
        <time>2020-02-20T12:08:05Z</time>
      </trkpt>
      <trkpt lat="48.74289" lon="2.01907">
        <ele>110.37</ele>
        <time>2020-02-20T12:08:16Z</time>
      </trkpt>
      <trkpt lat="48.74276" lon="2.01916">
        <ele>110.22</ele>
        <time>2020-02-20T12:08:24Z</time>
      </trkpt>
      <trkpt lat="48.74263" lon="2.0192">
        <ele>109.29</ele>
        <time>2020-02-20T12:08:34Z</time>
      </trkpt>
      <trkpt lat="48.74258" lon="2.01922">
        <ele>109.26</ele>
        <time>2020-02-20T12:08:39Z</time>
      </trkpt>
      <trkpt lat="48.7425" lon="2.01928">
        <ele>109.21</ele>
        <time>2020-02-20T12:08:47Z</time>
      </trkpt>
      <trkpt lat="48.74236" lon="2.01935">
        <ele>108.26</ele>
        <time>2020-02-20T12:08:57Z</time>
      </trkpt>
      <trkpt lat="48.74226" lon="2.01942">
        <ele>108.23</ele>
        <time>2020-02-20T12:09:06Z</time>
      </trkpt>
      <trkpt lat="48.74218" lon="2.01945">
        <ele>108.2</ele>
        <time>2020-02-20T12:09:14Z</time>
      </trkpt>
      <trkpt lat="48.7421" lon="2.01951">
        <ele>108.18</ele>
        <time>2020-02-20T12:09:21Z</time>
      </trkpt>
      <trkpt lat="48.74203" lon="2.01956">
        <ele>108.15</ele>
        <time>2020-02-20T12:09:28Z</time>
      </trkpt>
      <trkpt lat="48.74196" lon="2.01962">
        <ele>107.33</ele>
        <time>2020-02-20T12:09:37Z</time>
      </trkpt>
      <trkpt lat="48.74189" lon="2.01972">
        <ele>107.28</ele>
        <time>2020-02-20T12:09:47Z</time>
      </trkpt>
      <trkpt lat="48.74186" lon="2.01976">
        <ele>108.93</ele>
        <time>2020-02-20T12:09:52Z</time>
      </trkpt>
      <trkpt lat="48.7418" lon="2.01986">
        <ele>108.87</ele>
        <time>2020-02-20T12:10:01Z</time>
      </trkpt>
      <trkpt lat="48.74176" lon="2.01996">
        <ele>108.81</ele>
        <time>2020-02-20T12:10:09Z</time>
      </trkpt>
      <trkpt lat="48.74172" lon="2.02007">
        <ele>108.74</ele>
        <time>2020-02-20T12:10:18Z</time>
      </trkpt>
      <trkpt lat="48.74164" lon="2.02016">
        <ele>108.67</ele>
        <time>2020-02-20T12:10:26Z</time>
      </trkpt>
      <trkpt lat="48.74154" lon="2.02027">
        <ele>108.57</ele>
        <time>2020-02-20T12:10:37Z</time>
      </trkpt>
      <trkpt lat="48.74151" lon="2.02031">
        <ele>108.5</ele>
        <time>2020-02-20T12:10:46Z</time>
      </trkpt>
      <trkpt lat="48.74144" lon="2.02048">
        <ele>108.41</ele>
        <time>2020-02-20T12:10:56Z</time>
      </trkpt>
      <trkpt lat="48.74138" lon="2.02057">
        <ele>108.31</ele>
        <time>2020-02-20T12:11:06Z</time>
      </trkpt>
      <trkpt lat="48.74131" lon="2.02074">
        <ele>108.16</ele>
        <time>2020-02-20T12:11:18Z</time>
      </trkpt>
      <trkpt lat="48.74128" lon="2.02085">
        <ele>108.07</ele>
        <time>2020-02-20T12:11:25Z</time>
      </trkpt>
      <trkpt lat="48.74121" lon="2.02102">
        <ele>108.64</ele>
        <time>2020-02-20T12:11:38Z</time>
      </trkpt>
      <trkpt lat="48.74118" lon="2.02114">
        <ele>108.48</ele>
        <time>2020-02-20T12:11:47Z</time>
      </trkpt>
      <trkpt lat="48.74113" lon="2.02126">
        <ele>108.33</ele>
        <time>2020-02-20T12:11:55Z</time>
      </trkpt>
      <trkpt lat="48.74108" lon="2.02136">
        <ele>108.17</ele>
        <time>2020-02-20T12:12:03Z</time>
      </trkpt>
      <trkpt lat="48.74103" lon="2.02148">
        <ele>108.01</ele>
        <time>2020-02-20T12:12:11Z</time>
      </trkpt>
      <trkpt lat="48.741" lon="2.0216">
        <ele>107.85</ele>
        <time>2020-02-20T12:12:19Z</time>
      </trkpt>
      <trkpt lat="48.74099" lon="2.02175">
        <ele>107.65</ele>
        <time>2020-02-20T12:12:27Z</time>
      </trkpt>
      <trkpt lat="48.74099" lon="2.02189">
        <ele>107.45</ele>
        <time>2020-02-20T12:12:36Z</time>
      </trkpt>
      <trkpt lat="48.74097" lon="2.02198">
        <ele>107.29</ele>
        <time>2020-02-20T12:12:43Z</time>
      </trkpt>
      <trkpt lat="48.74093" lon="2.02215">
        <ele>107.09</ele>
        <time>2020-02-20T12:12:54Z</time>
      </trkpt>
      <trkpt lat="48.74086" lon="2.02231">
        <ele>106.88</ele>
        <time>2020-02-20T12:13:03Z</time>
      </trkpt>
      <trkpt lat="48.74082" lon="2.02243">
        <ele>106.76</ele>
        <time>2020-02-20T12:13:12Z</time>
      </trkpt>
      <trkpt lat="48.74074" lon="2.02247">
        <ele>106.56</ele>
        <time>2020-02-20T12:13:20Z</time>
      </trkpt>
      <trkpt lat="48.7406" lon="2.02256">
        <ele>106.32</ele>
        <time>2020-02-20T12:13:30Z</time>
      </trkpt>
      <trkpt lat="48.74054" lon="2.02258">
        <ele>106.99</ele>
        <time>2020-02-20T12:13:35Z</time>
      </trkpt>
      <trkpt lat="48.74048" lon="2.02263">
        <ele>106.84</ele>
        <time>2020-02-20T12:13:41Z</time>
      </trkpt>
      <trkpt lat="48.7404" lon="2.02274">
        <ele>106.62</ele>
        <time>2020-02-20T12:13:50Z</time>
      </trkpt>
      <trkpt lat="48.74032" lon="2.02287">
        <ele>106.53</ele>
        <time>2020-02-20T12:13:59Z</time>
      </trkpt>
      <trkpt lat="48.74023" lon="2.02292">
        <ele>106.49</ele>
        <time>2020-02-20T12:14:07Z</time>
      </trkpt>
      <trkpt lat="48.74018" lon="2.02293">
        <ele>109.03</ele>
        <time>2020-02-20T12:14:14Z</time>
      </trkpt>
      <trkpt lat="48.74012" lon="2.02293">
        <ele>106.64</ele>
        <time>2020-02-20T12:14:23Z</time>
      </trkpt>
      <trkpt lat="48.74009" lon="2.02294">
        <ele>106.62</ele>
        <time>2020-02-20T12:14:26Z</time>
      </trkpt>
      <trkpt lat="48.73997" lon="2.02294">
        <ele>106.58</ele>
        <time>2020-02-20T12:14:36Z</time>
      </trkpt>
      <trkpt lat="48.73985" lon="2.02291">
        <ele>106.59</ele>
        <time>2020-02-20T12:14:46Z</time>
      </trkpt>
      <trkpt lat="48.73976" lon="2.02287">
        <ele>105.74</ele>
        <time>2020-02-20T12:14:55Z</time>
      </trkpt>
      <trkpt lat="48.73967" lon="2.02283">
        <ele>105.7</ele>
        <time>2020-02-20T12:15:05Z</time>
      </trkpt>
      <trkpt lat="48.73964" lon="2.02281">
        <ele>105.71</ele>
        <time>2020-02-20T12:15:07Z</time>
      </trkpt>
      <trkpt lat="48.73953" lon="2.02275">
        <ele>105.68</ele>
        <time>2020-02-20T12:15:18Z</time>
      </trkpt>
      <trkpt lat="48.73943" lon="2.02271">
        <ele>104.87</ele>
        <time>2020-02-20T12:15:26Z</time>
      </trkpt>
      <trkpt lat="48.73934" lon="2.02265">
        <ele>104.86</ele>
        <time>2020-02-20T12:15:34Z</time>
      </trkpt>
      <trkpt lat="48.73927" lon="2.02262">
        <ele>104.03</ele>
        <time>2020-02-20T12:15:42Z</time>
      </trkpt>
      <trkpt lat="48.73915" lon="2.0226">
        <ele>104.15</ele>
        <time>2020-02-20T12:15:51Z</time>
      </trkpt>
      <trkpt lat="48.73908" lon="2.02264">
        <ele>104.14</ele>
        <time>2020-02-20T12:15:59Z</time>
      </trkpt>
      <trkpt lat="48.73899" lon="2.02263">
        <ele>104.14</ele>
        <time>2020-02-20T12:16:07Z</time>
      </trkpt>
      <trkpt lat="48.73888" lon="2.02262">
        <ele>104.18</ele>
        <time>2020-02-20T12:16:16Z</time>
      </trkpt>
      <trkpt lat="48.73878" lon="2.02263">
        <ele>104.06</ele>
        <time>2020-02-20T12:16:25Z</time>
      </trkpt>
      <trkpt lat="48.73867" lon="2.02265">
        <ele>104.03</ele>
        <time>2020-02-20T12:16:36Z</time>
      </trkpt>
      <trkpt lat="48.73856" lon="2.02268">
        <ele>103.98</ele>
        <time>2020-02-20T12:16:47Z</time>
      </trkpt>
      <trkpt lat="48.73845" lon="2.0227">
        <ele>104.01</ele>
        <time>2020-02-20T12:16:57Z</time>
      </trkpt>
      <trkpt lat="48.73837" lon="2.02267">
        <ele>103</ele>
        <time>2020-02-20T12:17:06Z</time>
      </trkpt>
      <trkpt lat="48.73826" lon="2.02265">
        <ele>102.87</ele>
        <time>2020-02-20T12:17:16Z</time>
      </trkpt>
      <trkpt lat="48.73816" lon="2.02263">
        <ele>102.83</ele>
        <time>2020-02-20T12:17:25Z</time>
      </trkpt>
      <trkpt lat="48.73805" lon="2.02263">
        <ele>101.76</ele>
        <time>2020-02-20T12:17:36Z</time>
      </trkpt>
      <trkpt lat="48.73794" lon="2.02267">
        <ele>101.66</ele>
        <time>2020-02-20T12:17:45Z</time>
      </trkpt>
      <trkpt lat="48.73783" lon="2.0227">
        <ele>100.74</ele>
        <time>2020-02-20T12:17:55Z</time>
      </trkpt>
      <trkpt lat="48.73773" lon="2.02266">
        <ele>100.69</ele>
        <time>2020-02-20T12:18:03Z</time>
      </trkpt>
      <trkpt lat="48.73763" lon="2.02263">
        <ele>100.6</ele>
        <time>2020-02-20T12:18:13Z</time>
      </trkpt>
      <trkpt lat="48.73755" lon="2.02263">
        <ele>100.53</ele>
        <time>2020-02-20T12:18:22Z</time>
      </trkpt>
      <trkpt lat="48.73745" lon="2.02264">
        <ele>100.46</ele>
        <time>2020-02-20T12:18:31Z</time>
      </trkpt>
      <trkpt lat="48.73743" lon="2.02265">
        <ele>100.32</ele>
        <time>2020-02-20T12:18:41Z</time>
      </trkpt>
      <trkpt lat="48.73742" lon="2.02269">
        <ele>100.14</ele>
        <time>2020-02-20T12:18:58Z</time>
      </trkpt>
      <trkpt lat="48.73737" lon="2.0227">
        <ele>102.33</ele>
        <time>2020-02-20T12:19:01Z</time>
      </trkpt>
      <trkpt lat="48.73728" lon="2.02273">
        <ele>102.24</ele>
        <time>2020-02-20T12:19:10Z</time>
      </trkpt>
      <trkpt lat="48.73714" lon="2.02274">
        <ele>102.17</ele>
        <time>2020-02-20T12:19:20Z</time>
      </trkpt>
      <trkpt lat="48.73704" lon="2.02278">
        <ele>102.15</ele>
        <time>2020-02-20T12:19:30Z</time>
      </trkpt>
      <trkpt lat="48.73691" lon="2.02281">
        <ele>102.1</ele>
        <time>2020-02-20T12:19:39Z</time>
      </trkpt>
      <trkpt lat="48.73684" lon="2.02284">
        <ele>102</ele>
        <time>2020-02-20T12:19:46Z</time>
      </trkpt>
      <trkpt lat="48.73672" lon="2.02286">
        <ele>101.83</ele>
        <time>2020-02-20T12:19:56Z</time>
      </trkpt>
      <trkpt lat="48.73669" lon="2.02286">
        <ele>101.81</ele>
        <time>2020-02-20T12:19:59Z</time>
      </trkpt>
      <trkpt lat="48.7366" lon="2.02288">
        <ele>101.72</ele>
        <time>2020-02-20T12:20:07Z</time>
      </trkpt>
      <trkpt lat="48.73652" lon="2.02286">
        <ele>99.29</ele>
        <time>2020-02-20T12:20:12Z</time>
      </trkpt>
      <trkpt lat="48.73638" lon="2.02286">
        <ele>99.2</ele>
        <time>2020-02-20T12:20:22Z</time>
      </trkpt>
      <trkpt lat="48.73622" lon="2.02282">
        <ele>99.06</ele>
        <time>2020-02-20T12:20:32Z</time>
      </trkpt>
      <trkpt lat="48.73612" lon="2.02277">
        <ele>98.11</ele>
        <time>2020-02-20T12:20:40Z</time>
      </trkpt>
      <trkpt lat="48.736" lon="2.0228">
        <ele>98.11</ele>
        <time>2020-02-20T12:20:50Z</time>
      </trkpt>
      <trkpt lat="48.73591" lon="2.02281">
        <ele>98.09</ele>
        <time>2020-02-20T12:20:57Z</time>
      </trkpt>
      <trkpt lat="48.73582" lon="2.02285">
        <ele>97.18</ele>
        <time>2020-02-20T12:21:06Z</time>
      </trkpt>
      <trkpt lat="48.73572" lon="2.02285">
        <ele>97.1</ele>
        <time>2020-02-20T12:21:14Z</time>
      </trkpt>
      <trkpt lat="48.7356" lon="2.02285">
        <ele>97.14</ele>
        <time>2020-02-20T12:21:22Z</time>
      </trkpt>
      <trkpt lat="48.7355" lon="2.02284">
        <ele>97.14</ele>
        <time>2020-02-20T12:21:30Z</time>
      </trkpt>
      <trkpt lat="48.73541" lon="2.02287">
        <ele>97.16</ele>
        <time>2020-02-20T12:21:37Z</time>
      </trkpt>
      <trkpt lat="48.73531" lon="2.02289">
        <ele>97.11</ele>
        <time>2020-02-20T12:21:45Z</time>
      </trkpt>
      <trkpt lat="48.73518" lon="2.02292">
        <ele>97.13</ele>
        <time>2020-02-20T12:21:54Z</time>
      </trkpt>
      <trkpt lat="48.73505" lon="2.02293">
        <ele>97.15</ele>
        <time>2020-02-20T12:22:04Z</time>
      </trkpt>
      <trkpt lat="48.73492" lon="2.02294">
        <ele>97.18</ele>
        <time>2020-02-20T12:22:14Z</time>
      </trkpt>
      <trkpt lat="48.73481" lon="2.02294">
        <ele>97.18</ele>
        <time>2020-02-20T12:22:23Z</time>
      </trkpt>
      <trkpt lat="48.73471" lon="2.02295">
        <ele>96.42</ele>
        <time>2020-02-20T12:22:33Z</time>
      </trkpt>
      <trkpt lat="48.73461" lon="2.02296">
        <ele>96.46</ele>
        <time>2020-02-20T12:22:43Z</time>
      </trkpt>
      <trkpt lat="48.7345" lon="2.02297">
        <ele>95.79</ele>
        <time>2020-02-20T12:22:53Z</time>
      </trkpt>
      <trkpt lat="48.73446" lon="2.02299">
        <ele>95.79</ele>
        <time>2020-02-20T12:22:58Z</time>
      </trkpt>
      <trkpt lat="48.73441" lon="2.02309">
        <ele>95.82</ele>
        <time>2020-02-20T12:23:07Z</time>
      </trkpt>
      <trkpt lat="48.73435" lon="2.0232">
        <ele>98.41</ele>
        <time>2020-02-20T12:23:17Z</time>
      </trkpt>
      <trkpt lat="48.73434" lon="2.02322">
        <ele>95.57</ele>
        <time>2020-02-20T12:23:19Z</time>
      </trkpt>
      <trkpt lat="48.7343" lon="2.02332">
        <ele>98.14</ele>
        <time>2020-02-20T12:23:28Z</time>
      </trkpt>
      <trkpt lat="48.73423" lon="2.02344">
        <ele>97.65</ele>
        <time>2020-02-20T12:23:40Z</time>
      </trkpt>
      <trkpt lat="48.73419" lon="2.02352">
        <ele>97.56</ele>
        <time>2020-02-20T12:23:48Z</time>
      </trkpt>
      <trkpt lat="48.73416" lon="2.02359">
        <ele>97.56</ele>
        <time>2020-02-20T12:23:58Z</time>
      </trkpt>
      <trkpt lat="48.73412" lon="2.0237">
        <ele>97.72</ele>
        <time>2020-02-20T12:24:07Z</time>
      </trkpt>
      <trkpt lat="48.73407" lon="2.02377">
        <ele>97.68</ele>
        <time>2020-02-20T12:24:14Z</time>
      </trkpt>
      <trkpt lat="48.734" lon="2.02385">
        <ele>98.38</ele>
        <time>2020-02-20T12:24:23Z</time>
      </trkpt>
      <trkpt lat="48.73393" lon="2.02391">
        <ele>99.35</ele>
        <time>2020-02-20T12:24:31Z</time>
      </trkpt>
      <trkpt lat="48.73381" lon="2.02397">
        <ele>99.26</ele>
        <time>2020-02-20T12:24:41Z</time>
      </trkpt>
      <trkpt lat="48.73373" lon="2.02402">
        <ele>99.21</ele>
        <time>2020-02-20T12:24:50Z</time>
      </trkpt>
      <trkpt lat="48.73363" lon="2.02407">
        <ele>99.15</ele>
        <time>2020-02-20T12:25:00Z</time>
      </trkpt>
      <trkpt lat="48.73352" lon="2.02415">
        <ele>99.89</ele>
        <time>2020-02-20T12:25:10Z</time>
      </trkpt>
      <trkpt lat="48.73341" lon="2.02424">
        <ele>99.77</ele>
        <time>2020-02-20T12:25:20Z</time>
      </trkpt>
      <trkpt lat="48.7333" lon="2.02434">
        <ele>99.72</ele>
        <time>2020-02-20T12:25:30Z</time>
      </trkpt>
      <trkpt lat="48.73323" lon="2.02443">
        <ele>99.65</ele>
        <time>2020-02-20T12:25:39Z</time>
      </trkpt>
      <trkpt lat="48.73318" lon="2.0245">
        <ele>99.56</ele>
        <time>2020-02-20T12:25:47Z</time>
      </trkpt>
      <trkpt lat="48.73313" lon="2.02455">
        <ele>99.49</ele>
        <time>2020-02-20T12:25:53Z</time>
      </trkpt>
      <trkpt lat="48.73308" lon="2.02464">
        <ele>99.43</ele>
        <time>2020-02-20T12:26:00Z</time>
      </trkpt>
      <trkpt lat="48.73298" lon="2.02475">
        <ele>99.3</ele>
        <time>2020-02-20T12:26:10Z</time>
      </trkpt>
      <trkpt lat="48.73286" lon="2.02483">
        <ele>99.14</ele>
        <time>2020-02-20T12:26:20Z</time>
      </trkpt>
      <trkpt lat="48.73278" lon="2.02485">
        <ele>96.75</ele>
        <time>2020-02-20T12:26:26Z</time>
      </trkpt>
      <trkpt lat="48.73266" lon="2.02492">
        <ele>96.69</ele>
        <time>2020-02-20T12:26:36Z</time>
      </trkpt>
      <trkpt lat="48.73256" lon="2.02498">
        <ele>96.61</ele>
        <time>2020-02-20T12:26:44Z</time>
      </trkpt>
      <trkpt lat="48.7325" lon="2.02503">
        <ele>96.47</ele>
        <time>2020-02-20T12:26:52Z</time>
      </trkpt>
      <trkpt lat="48.73243" lon="2.02509">
        <ele>96.47</ele>
        <time>2020-02-20T12:26:59Z</time>
      </trkpt>
      <trkpt lat="48.73237" lon="2.02515">
        <ele>94.79</ele>
        <time>2020-02-20T12:27:06Z</time>
      </trkpt>
      <trkpt lat="48.73227" lon="2.02525">
        <ele>93.78</ele>
        <time>2020-02-20T12:27:15Z</time>
      </trkpt>
      <trkpt lat="48.73217" lon="2.02535">
        <ele>93.73</ele>
        <time>2020-02-20T12:27:24Z</time>
      </trkpt>
      <trkpt lat="48.7321" lon="2.02538">
        <ele>92.9</ele>
        <time>2020-02-20T12:27:31Z</time>
      </trkpt>
      <trkpt lat="48.73201" lon="2.02542">
        <ele>92.79</ele>
        <time>2020-02-20T12:27:40Z</time>
      </trkpt>
      <trkpt lat="48.7319" lon="2.02552">
        <ele>92.66</ele>
        <time>2020-02-20T12:27:50Z</time>
      </trkpt>
      <trkpt lat="48.73184" lon="2.02556">
        <ele>91.5</ele>
        <time>2020-02-20T12:27:58Z</time>
      </trkpt>
      <trkpt lat="48.73176" lon="2.02563">
        <ele>91.33</ele>
        <time>2020-02-20T12:28:08Z</time>
      </trkpt>
      <trkpt lat="48.73167" lon="2.02572">
        <ele>91.23</ele>
        <time>2020-02-20T12:28:18Z</time>
      </trkpt>
      <trkpt lat="48.73162" lon="2.0258">
        <ele>91.06</ele>
        <time>2020-02-20T12:28:26Z</time>
      </trkpt>
      <trkpt lat="48.73156" lon="2.02587">
        <ele>90.87</ele>
        <time>2020-02-20T12:28:34Z</time>
      </trkpt>
      <trkpt lat="48.73148" lon="2.02597">
        <ele>90.61</ele>
        <time>2020-02-20T12:28:44Z</time>
      </trkpt>
      <trkpt lat="48.73138" lon="2.02608">
        <ele>90.45</ele>
        <time>2020-02-20T12:28:54Z</time>
      </trkpt>
      <trkpt lat="48.73133" lon="2.02617">
        <ele>90.3</ele>
        <time>2020-02-20T12:29:02Z</time>
      </trkpt>
      <trkpt lat="48.73129" lon="2.02624">
        <ele>90.12</ele>
        <time>2020-02-20T12:29:12Z</time>
      </trkpt>
      <trkpt lat="48.7312" lon="2.02632">
        <ele>92.68</ele>
        <time>2020-02-20T12:29:20Z</time>
      </trkpt>
      <trkpt lat="48.73111" lon="2.02641">
        <ele>93.37</ele>
        <time>2020-02-20T12:29:29Z</time>
      </trkpt>
      <trkpt lat="48.73103" lon="2.0265">
        <ele>94.28</ele>
        <time>2020-02-20T12:29:37Z</time>
      </trkpt>
      <trkpt lat="48.73095" lon="2.0266">
        <ele>94.1</ele>
        <time>2020-02-20T12:29:47Z</time>
      </trkpt>
      <trkpt lat="48.73088" lon="2.02673">
        <ele>94.01</ele>
        <time>2020-02-20T12:29:55Z</time>
      </trkpt>
      <trkpt lat="48.73078" lon="2.02685">
        <ele>93.98</ele>
        <time>2020-02-20T12:30:05Z</time>
      </trkpt>
      <trkpt lat="48.73072" lon="2.02697">
        <ele>93.93</ele>
        <time>2020-02-20T12:30:14Z</time>
      </trkpt>
      <trkpt lat="48.73066" lon="2.02706">
        <ele>93.88</ele>
        <time>2020-02-20T12:30:23Z</time>
      </trkpt>
      <trkpt lat="48.73062" lon="2.02713">
        <ele>93.83</ele>
        <time>2020-02-20T12:30:29Z</time>
      </trkpt>
      <trkpt lat="48.73058" lon="2.02718">
        <ele>91.4</ele>
        <time>2020-02-20T12:30:33Z</time>
      </trkpt>
      <trkpt lat="48.73052" lon="2.02731">
        <ele>91.33</ele>
        <time>2020-02-20T12:30:43Z</time>
      </trkpt>
      <trkpt lat="48.73047" lon="2.02744">
        <ele>90.22</ele>
        <time>2020-02-20T12:30:50Z</time>
      </trkpt>
      <trkpt lat="48.73041" lon="2.02754">
        <ele>89.32</ele>
        <time>2020-02-20T12:30:57Z</time>
      </trkpt>
      <trkpt lat="48.73035" lon="2.02768">
        <ele>89.3</ele>
        <time>2020-02-20T12:31:08Z</time>
      </trkpt>
      <trkpt lat="48.73025" lon="2.02774">
        <ele>89.25</ele>
        <time>2020-02-20T12:31:18Z</time>
      </trkpt>
      <trkpt lat="48.73023" lon="2.02776">
        <ele>91.53</ele>
        <time>2020-02-20T12:31:20Z</time>
      </trkpt>
      <trkpt lat="48.73013" lon="2.02782">
        <ele>91.48</ele>
        <time>2020-02-20T12:31:27Z</time>
      </trkpt>
      <trkpt lat="48.73005" lon="2.02786">
        <ele>91.42</ele>
        <time>2020-02-20T12:31:35Z</time>
      </trkpt>
      <trkpt lat="48.72996" lon="2.02794">
        <ele>92.09</ele>
        <time>2020-02-20T12:31:44Z</time>
      </trkpt>
      <trkpt lat="48.72989" lon="2.02799">
        <ele>92.05</ele>
        <time>2020-02-20T12:31:52Z</time>
      </trkpt>
      <trkpt lat="48.72981" lon="2.02806">
        <ele>91.96</ele>
        <time>2020-02-20T12:32:01Z</time>
      </trkpt>
      <trkpt lat="48.72971" lon="2.02815">
        <ele>91.94</ele>
        <time>2020-02-20T12:32:12Z</time>
      </trkpt>
      <trkpt lat="48.7297" lon="2.02814">
        <ele>91.94</ele>
        <time>2020-02-20T12:32:13Z</time>
      </trkpt>
      <trkpt lat="48.72965" lon="2.02815">
        <ele>91.95</ele>
        <time>2020-02-20T12:32:25Z</time>
      </trkpt>
      <trkpt lat="48.72965" lon="2.02817">
        <ele>91.97</ele>
        <time>2020-02-20T12:32:42Z</time>
      </trkpt>
      <trkpt lat="48.72967" lon="2.02817">
        <ele>92.01</ele>
        <time>2020-02-20T12:33:00Z</time>
      </trkpt>
      <trkpt lat="48.72967" lon="2.02816">
        <ele>89.67</ele>
        <time>2020-02-20T12:33:03Z</time>
      </trkpt>
      <trkpt lat="48.72967" lon="2.02817">
        <ele>89.72</ele>
        <time>2020-02-20T12:33:15Z</time>
      </trkpt>
      <trkpt lat="48.72967" lon="2.02817">
        <ele>99.93</ele>
        <time>2020-02-20T12:33:19Z</time>
      </trkpt>
      <trkpt lat="48.72967" lon="2.02817">
        <ele>91.84</ele>
        <time>2020-02-20T12:33:20Z</time>
      </trkpt>
      <trkpt lat="48.72966" lon="2.02816">
        <ele>90.71</ele>
        <time>2020-02-20T12:33:31Z</time>
      </trkpt>
      <trkpt lat="48.72965" lon="2.02817">
        <ele>90.74</ele>
        <time>2020-02-20T12:33:48Z</time>
      </trkpt>
      <trkpt lat="48.72957" lon="2.02817">
        <ele>90.76</ele>
        <time>2020-02-20T12:33:59Z</time>
      </trkpt>
      <trkpt lat="48.72956" lon="2.02817">
        <ele>90.74</ele>
        <time>2020-02-20T12:34:01Z</time>
      </trkpt>
      <trkpt lat="48.72954" lon="2.02821">
        <ele>90.77</ele>
        <time>2020-02-20T12:34:10Z</time>
      </trkpt>
      <trkpt lat="48.72954" lon="2.02821">
        <ele>90.74</ele>
        <time>2020-02-20T12:34:27Z</time>
      </trkpt>
      <trkpt lat="48.72949" lon="2.02822">
        <ele>89.94</ele>
        <time>2020-02-20T12:34:35Z</time>
      </trkpt>
      <trkpt lat="48.72942" lon="2.02831">
        <ele>89.9</ele>
        <time>2020-02-20T12:34:45Z</time>
      </trkpt>
      <trkpt lat="48.72937" lon="2.02849">
        <ele>88.25</ele>
        <time>2020-02-20T12:34:56Z</time>
      </trkpt>
      <trkpt lat="48.72936" lon="2.02855">
        <ele>88.24</ele>
        <time>2020-02-20T12:34:59Z</time>
      </trkpt>
      <trkpt lat="48.72935" lon="2.02869">
        <ele>88.19</ele>
        <time>2020-02-20T12:35:08Z</time>
      </trkpt>
      <trkpt lat="48.72933" lon="2.02881">
        <ele>87.24</ele>
        <time>2020-02-20T12:35:16Z</time>
      </trkpt>
      <trkpt lat="48.72936" lon="2.02893">
        <ele>87.2</ele>
        <time>2020-02-20T12:35:25Z</time>
      </trkpt>
      <trkpt lat="48.72936" lon="2.02905">
        <ele>87.07</ele>
        <time>2020-02-20T12:35:33Z</time>
      </trkpt>
      <trkpt lat="48.72939" lon="2.02914">
        <ele>86.94</ele>
        <time>2020-02-20T12:35:40Z</time>
      </trkpt>
      <trkpt lat="48.72943" lon="2.02926">
        <ele>86.79</ele>
        <time>2020-02-20T12:35:48Z</time>
      </trkpt>
      <trkpt lat="48.72946" lon="2.02941">
        <ele>86.63</ele>
        <time>2020-02-20T12:35:58Z</time>
      </trkpt>
      <trkpt lat="48.72946" lon="2.02954">
        <ele>86.39</ele>
        <time>2020-02-20T12:36:07Z</time>
      </trkpt>
      <trkpt lat="48.72947" lon="2.0297">
        <ele>86.15</ele>
        <time>2020-02-20T12:36:16Z</time>
      </trkpt>
      <trkpt lat="48.72948" lon="2.02985">
        <ele>85.84</ele>
        <time>2020-02-20T12:36:24Z</time>
      </trkpt>
      <trkpt lat="48.72949" lon="2.03001">
        <ele>85.53</ele>
        <time>2020-02-20T12:36:34Z</time>
      </trkpt>
      <trkpt lat="48.72949" lon="2.03013">
        <ele>85.23</ele>
        <time>2020-02-20T12:36:43Z</time>
      </trkpt>
      <trkpt lat="48.72949" lon="2.03023">
        <ele>84.98</ele>
        <time>2020-02-20T12:36:50Z</time>
      </trkpt>
      <trkpt lat="48.72949" lon="2.03032">
        <ele>87.08</ele>
        <time>2020-02-20T12:36:56Z</time>
      </trkpt>
      <trkpt lat="48.72949" lon="2.03034">
        <ele>87.03</ele>
        <time>2020-02-20T12:36:57Z</time>
      </trkpt>
      <trkpt lat="48.72948" lon="2.03046">
        <ele>86.76</ele>
        <time>2020-02-20T12:37:04Z</time>
      </trkpt>
      <trkpt lat="48.72946" lon="2.03059">
        <ele>86.46</ele>
        <time>2020-02-20T12:37:12Z</time>
      </trkpt>
      <trkpt lat="48.72946" lon="2.0307">
        <ele>86.1</ele>
        <time>2020-02-20T12:37:21Z</time>
      </trkpt>
      <trkpt lat="48.72946" lon="2.03079">
        <ele>85.88</ele>
        <time>2020-02-20T12:37:26Z</time>
      </trkpt>
      <trkpt lat="48.72942" lon="2.03096">
        <ele>85.51</ele>
        <time>2020-02-20T12:37:35Z</time>
      </trkpt>
      <trkpt lat="48.72941" lon="2.03108">
        <ele>85.31</ele>
        <time>2020-02-20T12:37:41Z</time>
      </trkpt>
      <trkpt lat="48.72942" lon="2.03123">
        <ele>84.89</ele>
        <time>2020-02-20T12:37:50Z</time>
      </trkpt>
      <trkpt lat="48.7294" lon="2.0314">
        <ele>84.47</ele>
        <time>2020-02-20T12:37:59Z</time>
      </trkpt>
      <trkpt lat="48.72937" lon="2.03156">
        <ele>84.07</ele>
        <time>2020-02-20T12:38:08Z</time>
      </trkpt>
      <trkpt lat="48.72936" lon="2.03167">
        <ele>83.68</ele>
        <time>2020-02-20T12:38:16Z</time>
      </trkpt>
      <trkpt lat="48.72936" lon="2.0318">
        <ele>83.23</ele>
        <time>2020-02-20T12:38:25Z</time>
      </trkpt>
      <trkpt lat="48.72939" lon="2.03194">
        <ele>82.75</ele>
        <time>2020-02-20T12:38:34Z</time>
      </trkpt>
      <trkpt lat="48.72943" lon="2.03208">
        <ele>82.28</ele>
        <time>2020-02-20T12:38:44Z</time>
      </trkpt>
      <trkpt lat="48.72948" lon="2.03218">
        <ele>81.84</ele>
        <time>2020-02-20T12:38:53Z</time>
      </trkpt>
      <trkpt lat="48.72953" lon="2.03233">
        <ele>81.29</ele>
        <time>2020-02-20T12:39:04Z</time>
      </trkpt>
      <trkpt lat="48.7296" lon="2.03248">
        <ele>80.79</ele>
        <time>2020-02-20T12:39:14Z</time>
      </trkpt>
      <trkpt lat="48.72965" lon="2.03259">
        <ele>80.43</ele>
        <time>2020-02-20T12:39:21Z</time>
      </trkpt>
      <trkpt lat="48.7297" lon="2.0327">
        <ele>80.07</ele>
        <time>2020-02-20T12:39:28Z</time>
      </trkpt>
      <trkpt lat="48.72974" lon="2.0328">
        <ele>80.45</ele>
        <time>2020-02-20T12:39:37Z</time>
      </trkpt>
      <trkpt lat="48.72979" lon="2.03294">
        <ele>80.01</ele>
        <time>2020-02-20T12:39:46Z</time>
      </trkpt>
      <trkpt lat="48.7298" lon="2.03305">
        <ele>79.64</ele>
        <time>2020-02-20T12:39:54Z</time>
      </trkpt>
      <trkpt lat="48.72976" lon="2.03324">
        <ele>79.18</ele>
        <time>2020-02-20T12:40:03Z</time>
      </trkpt>
      <trkpt lat="48.72972" lon="2.03343">
        <ele>78.7</ele>
        <time>2020-02-20T12:40:13Z</time>
      </trkpt>
      <trkpt lat="48.72968" lon="2.03362">
        <ele>78.24</ele>
        <time>2020-02-20T12:40:23Z</time>
      </trkpt>
      <trkpt lat="48.72968" lon="2.03375">
        <ele>77.87</ele>
        <time>2020-02-20T12:40:32Z</time>
      </trkpt>
      <trkpt lat="48.72967" lon="2.03387">
        <ele>77.46</ele>
        <time>2020-02-20T12:40:41Z</time>
      </trkpt>
      <trkpt lat="48.72966" lon="2.034">
        <ele>77.11</ele>
        <time>2020-02-20T12:40:49Z</time>
      </trkpt>
      <trkpt lat="48.72963" lon="2.03412">
        <ele>76.71</ele>
        <time>2020-02-20T12:40:58Z</time>
      </trkpt>
      <trkpt lat="48.7296" lon="2.03429">
        <ele>76.3</ele>
        <time>2020-02-20T12:41:09Z</time>
      </trkpt>
      <trkpt lat="48.72955" lon="2.03447">
        <ele>75.87</ele>
        <time>2020-02-20T12:41:20Z</time>
      </trkpt>
      <trkpt lat="48.72949" lon="2.03463">
        <ele>75.46</ele>
        <time>2020-02-20T12:41:31Z</time>
      </trkpt>
      <trkpt lat="48.72947" lon="2.03479">
        <ele>75.18</ele>
        <time>2020-02-20T12:41:39Z</time>
      </trkpt>
      <trkpt lat="48.72946" lon="2.03502">
        <ele>74.78</ele>
        <time>2020-02-20T12:41:50Z</time>
      </trkpt>
      <trkpt lat="48.72944" lon="2.03509">
        <ele>74.66</ele>
        <time>2020-02-20T12:41:54Z</time>
      </trkpt>
      <trkpt lat="48.72941" lon="2.03525">
        <ele>74.42</ele>
        <time>2020-02-20T12:42:01Z</time>
      </trkpt>
      <trkpt lat="48.72943" lon="2.03541">
        <ele>74.11</ele>
        <time>2020-02-20T12:42:11Z</time>
      </trkpt>
      <trkpt lat="48.72947" lon="2.0355">
        <ele>73.88</ele>
        <time>2020-02-20T12:42:18Z</time>
      </trkpt>
      <trkpt lat="48.72956" lon="2.03557">
        <ele>73.63</ele>
        <time>2020-02-20T12:42:27Z</time>
      </trkpt>
      <trkpt lat="48.72961" lon="2.03569">
        <ele>73.39</ele>
        <time>2020-02-20T12:42:36Z</time>
      </trkpt>
      <trkpt lat="48.72968" lon="2.03585">
        <ele>73.13</ele>
        <time>2020-02-20T12:42:45Z</time>
      </trkpt>
      <trkpt lat="48.7297" lon="2.03599">
        <ele>72.93</ele>
        <time>2020-02-20T12:42:53Z</time>
      </trkpt>
      <trkpt lat="48.72969" lon="2.03602">
        <ele>72.88</ele>
        <time>2020-02-20T12:42:55Z</time>
      </trkpt>
      <trkpt lat="48.72967" lon="2.03614">
        <ele>73.65</ele>
        <time>2020-02-20T12:43:04Z</time>
      </trkpt>
      <trkpt lat="48.72965" lon="2.0363">
        <ele>74.3</ele>
        <time>2020-02-20T12:43:13Z</time>
      </trkpt>
      <trkpt lat="48.72966" lon="2.03648">
        <ele>74.14</ele>
        <time>2020-02-20T12:43:23Z</time>
      </trkpt>
      <trkpt lat="48.72967" lon="2.03658">
        <ele>74.03</ele>
        <time>2020-02-20T12:43:28Z</time>
      </trkpt>
      <trkpt lat="48.72965" lon="2.03674">
        <ele>74.74</ele>
        <time>2020-02-20T12:43:37Z</time>
      </trkpt>
      <trkpt lat="48.72963" lon="2.0369">
        <ele>74.61</ele>
        <time>2020-02-20T12:43:46Z</time>
      </trkpt>
      <trkpt lat="48.72962" lon="2.03706">
        <ele>74.47</ele>
        <time>2020-02-20T12:43:54Z</time>
      </trkpt>
      <trkpt lat="48.72962" lon="2.03721">
        <ele>74.34</ele>
        <time>2020-02-20T12:44:03Z</time>
      </trkpt>
      <trkpt lat="48.72961" lon="2.03737">
        <ele>74.18</ele>
        <time>2020-02-20T12:44:14Z</time>
      </trkpt>
      <trkpt lat="48.7296" lon="2.03752">
        <ele>74.04</ele>
        <time>2020-02-20T12:44:23Z</time>
      </trkpt>
      <trkpt lat="48.72959" lon="2.03766">
        <ele>73.91</ele>
        <time>2020-02-20T12:44:32Z</time>
      </trkpt>
      <trkpt lat="48.72957" lon="2.03778">
        <ele>73.81</ele>
        <time>2020-02-20T12:44:39Z</time>
      </trkpt>
      <trkpt lat="48.72954" lon="2.03792">
        <ele>73.69</ele>
        <time>2020-02-20T12:44:47Z</time>
      </trkpt>
      <trkpt lat="48.72952" lon="2.03811">
        <ele>73.52</ele>
        <time>2020-02-20T12:44:57Z</time>
      </trkpt>
      <trkpt lat="48.72949" lon="2.03826">
        <ele>73.36</ele>
        <time>2020-02-20T12:45:07Z</time>
      </trkpt>
      <trkpt lat="48.72946" lon="2.03834">
        <ele>71</ele>
        <time>2020-02-20T12:45:13Z</time>
      </trkpt>
      <trkpt lat="48.72943" lon="2.0385">
        <ele>70.88</ele>
        <time>2020-02-20T12:45:21Z</time>
      </trkpt>
      <trkpt lat="48.72942" lon="2.03851">
        <ele>70.86</ele>
        <time>2020-02-20T12:45:22Z</time>
      </trkpt>
      <trkpt lat="48.72938" lon="2.03859">
        <ele>70</ele>
        <time>2020-02-20T12:45:27Z</time>
      </trkpt>
      <trkpt lat="48.72931" lon="2.03871">
        <ele>69.87</ele>
        <time>2020-02-20T12:45:35Z</time>
      </trkpt>
      <trkpt lat="48.72926" lon="2.03879">
        <ele>68.89</ele>
        <time>2020-02-20T12:45:42Z</time>
      </trkpt>
      <trkpt lat="48.72921" lon="2.03893">
        <ele>68.79</ele>
        <time>2020-02-20T12:45:51Z</time>
      </trkpt>
      <trkpt lat="48.72914" lon="2.03913">
        <ele>68.65</ele>
        <time>2020-02-20T12:46:01Z</time>
      </trkpt>
      <trkpt lat="48.72905" lon="2.03929">
        <ele>68.51</ele>
        <time>2020-02-20T12:46:10Z</time>
      </trkpt>
      <trkpt lat="48.72898" lon="2.03939">
        <ele>68.41</ele>
        <time>2020-02-20T12:46:18Z</time>
      </trkpt>
      <trkpt lat="48.7289" lon="2.03952">
        <ele>67.56</ele>
        <time>2020-02-20T12:46:27Z</time>
      </trkpt>
      <trkpt lat="48.72887" lon="2.03966">
        <ele>67.48</ele>
        <time>2020-02-20T12:46:36Z</time>
      </trkpt>
      <trkpt lat="48.72884" lon="2.03979">
        <ele>67.41</ele>
        <time>2020-02-20T12:46:44Z</time>
      </trkpt>
      <trkpt lat="48.72883" lon="2.03991">
        <ele>67.34</ele>
        <time>2020-02-20T12:46:50Z</time>
      </trkpt>
      <trkpt lat="48.72881" lon="2.04007">
        <ele>66.45</ele>
        <time>2020-02-20T12:47:00Z</time>
      </trkpt>
      <trkpt lat="48.72882" lon="2.04021">
        <ele>66.37</ele>
        <time>2020-02-20T12:47:09Z</time>
      </trkpt>
      <trkpt lat="48.72882" lon="2.04037">
        <ele>66.3</ele>
        <time>2020-02-20T12:47:17Z</time>
      </trkpt>
      <trkpt lat="48.72882" lon="2.04057">
        <ele>66.2</ele>
        <time>2020-02-20T12:47:27Z</time>
      </trkpt>
      <trkpt lat="48.72883" lon="2.0407">
        <ele>66.12</ele>
        <time>2020-02-20T12:47:35Z</time>
      </trkpt>
      <trkpt lat="48.72884" lon="2.04077">
        <ele>68.82</ele>
        <time>2020-02-20T12:47:39Z</time>
      </trkpt>
      <trkpt lat="48.72882" lon="2.04092">
        <ele>68.78</ele>
        <time>2020-02-20T12:47:47Z</time>
      </trkpt>
      <trkpt lat="48.72883" lon="2.04099">
        <ele>68.77</ele>
        <time>2020-02-20T12:47:51Z</time>
      </trkpt>
      <trkpt lat="48.72884" lon="2.04113">
        <ele>68.69</ele>
        <time>2020-02-20T12:47:58Z</time>
      </trkpt>
      <trkpt lat="48.72885" lon="2.04124">
        <ele>68.63</ele>
        <time>2020-02-20T12:48:05Z</time>
      </trkpt>
      <trkpt lat="48.72886" lon="2.04141">
        <ele>68.54</ele>
        <time>2020-02-20T12:48:15Z</time>
      </trkpt>
      <trkpt lat="48.72889" lon="2.04163">
        <ele>68.45</ele>
        <time>2020-02-20T12:48:25Z</time>
      </trkpt>
      <trkpt lat="48.7289" lon="2.04177">
        <ele>69.41</ele>
        <time>2020-02-20T12:48:33Z</time>
      </trkpt>
      <trkpt lat="48.72893" lon="2.04194">
        <ele>70.32</ele>
        <time>2020-02-20T12:48:43Z</time>
      </trkpt>
      <trkpt lat="48.72894" lon="2.0421">
        <ele>71.53</ele>
        <time>2020-02-20T12:48:51Z</time>
      </trkpt>
      <trkpt lat="48.72893" lon="2.0422">
        <ele>71.55</ele>
        <time>2020-02-20T12:48:58Z</time>
      </trkpt>
      <trkpt lat="48.72892" lon="2.04242">
        <ele>71.57</ele>
        <time>2020-02-20T12:49:10Z</time>
      </trkpt>
      <trkpt lat="48.72892" lon="2.04248">
        <ele>71.59</ele>
        <time>2020-02-20T12:49:14Z</time>
      </trkpt>
      <trkpt lat="48.72887" lon="2.04249">
        <ele>71.59</ele>
        <time>2020-02-20T12:49:19Z</time>
      </trkpt>
      <trkpt lat="48.72882" lon="2.04243">
        <ele>71.65</ele>
        <time>2020-02-20T12:49:28Z</time>
      </trkpt>
      <trkpt lat="48.72877" lon="2.04241">
        <ele>71.88</ele>
        <time>2020-02-20T12:49:51Z</time>
      </trkpt>
      <trkpt lat="48.72877" lon="2.04249">
        <ele>71.98</ele>
        <time>2020-02-20T12:50:00Z</time>
      </trkpt>
      <trkpt lat="48.72877" lon="2.04253">
        <ele>72.09</ele>
        <time>2020-02-20T12:50:11Z</time>
      </trkpt>
      <trkpt lat="48.72875" lon="2.04256">
        <ele>72.39</ele>
        <time>2020-02-20T12:50:33Z</time>
      </trkpt>
      <trkpt lat="48.72872" lon="2.04256">
        <ele>72.61</ele>
        <time>2020-02-20T12:50:47Z</time>
      </trkpt>
      <trkpt lat="48.72872" lon="2.04256">
        <ele>72.84</ele>
        <time>2020-02-20T12:51:01Z</time>
      </trkpt>
      <trkpt lat="48.72873" lon="2.04254">
        <ele>73.08</ele>
        <time>2020-02-20T12:51:17Z</time>
      </trkpt>
      <trkpt lat="48.72868" lon="2.04253">
        <ele>73.21</ele>
        <time>2020-02-20T12:51:26Z</time>
      </trkpt>
      <trkpt lat="48.72865" lon="2.04248">
        <ele>70.77</ele>
        <time>2020-02-20T12:51:33Z</time>
      </trkpt>
      <trkpt lat="48.72858" lon="2.04242">
        <ele>70</ele>
        <time>2020-02-20T12:51:43Z</time>
      </trkpt>
      <trkpt lat="48.72851" lon="2.04236">
        <ele>69.22</ele>
        <time>2020-02-20T12:51:52Z</time>
      </trkpt>
      <trkpt lat="48.72849" lon="2.04235">
        <ele>69.25</ele>
        <time>2020-02-20T12:51:54Z</time>
      </trkpt>
      <trkpt lat="48.7284" lon="2.04228">
        <ele>67.42</ele>
        <time>2020-02-20T12:52:03Z</time>
      </trkpt>
      <trkpt lat="48.72831" lon="2.04221">
        <ele>66.6</ele>
        <time>2020-02-20T12:52:13Z</time>
      </trkpt>
      <trkpt lat="48.72823" lon="2.04215">
        <ele>65.8</ele>
        <time>2020-02-20T12:52:23Z</time>
      </trkpt>
      <trkpt lat="48.7281" lon="2.04206">
        <ele>64.96</ele>
        <time>2020-02-20T12:52:34Z</time>
      </trkpt>
      <trkpt lat="48.72802" lon="2.04199">
        <ele>65.03</ele>
        <time>2020-02-20T12:52:43Z</time>
      </trkpt>
      <trkpt lat="48.72795" lon="2.04193">
        <ele>64.42</ele>
        <time>2020-02-20T12:52:51Z</time>
      </trkpt>
      <trkpt lat="48.72788" lon="2.04187">
        <ele>64.52</ele>
        <time>2020-02-20T12:52:59Z</time>
      </trkpt>
      <trkpt lat="48.72782" lon="2.04181">
        <ele>64.59</ele>
        <time>2020-02-20T12:53:05Z</time>
      </trkpt>
      <trkpt lat="48.72772" lon="2.04176">
        <ele>63.85</ele>
        <time>2020-02-20T12:53:13Z</time>
      </trkpt>
      <trkpt lat="48.7276" lon="2.04167">
        <ele>64</ele>
        <time>2020-02-20T12:53:24Z</time>
      </trkpt>
      <trkpt lat="48.72759" lon="2.04166">
        <ele>64.01</ele>
        <time>2020-02-20T12:53:25Z</time>
      </trkpt>
      <trkpt lat="48.72748" lon="2.04159">
        <ele>64.15</ele>
        <time>2020-02-20T12:53:36Z</time>
      </trkpt>
      <trkpt lat="48.7274" lon="2.04153">
        <ele>64.26</ele>
        <time>2020-02-20T12:53:45Z</time>
      </trkpt>
      <trkpt lat="48.72735" lon="2.04149">
        <ele>64.34</ele>
        <time>2020-02-20T12:53:53Z</time>
      </trkpt>
      <trkpt lat="48.72731" lon="2.04146">
        <ele>64.41</ele>
        <time>2020-02-20T12:54:00Z</time>
      </trkpt>
      <trkpt lat="48.72728" lon="2.04145">
        <ele>64.45</ele>
        <time>2020-02-20T12:54:03Z</time>
      </trkpt>
      <trkpt lat="48.7272" lon="2.04138">
        <ele>64.55</ele>
        <time>2020-02-20T12:54:12Z</time>
      </trkpt>
      <trkpt lat="48.72713" lon="2.04134">
        <ele>64.63</ele>
        <time>2020-02-20T12:54:18Z</time>
      </trkpt>
      <trkpt lat="48.72706" lon="2.0413">
        <ele>64.71</ele>
        <time>2020-02-20T12:54:26Z</time>
      </trkpt>
      <trkpt lat="48.72704" lon="2.04129">
        <ele>66.98</ele>
        <time>2020-02-20T12:54:28Z</time>
      </trkpt>
      <trkpt lat="48.72695" lon="2.04124">
        <ele>67.88</ele>
        <time>2020-02-20T12:54:38Z</time>
      </trkpt>
      <trkpt lat="48.72691" lon="2.04119">
        <ele>67.91</ele>
        <time>2020-02-20T12:54:42Z</time>
      </trkpt>
      <trkpt lat="48.72682" lon="2.04109">
        <ele>68.71</ele>
        <time>2020-02-20T12:54:51Z</time>
      </trkpt>
      <trkpt lat="48.72677" lon="2.04099">
        <ele>69.55</ele>
        <time>2020-02-20T12:54:59Z</time>
      </trkpt>
      <trkpt lat="48.72674" lon="2.04096">
        <ele>69.56</ele>
        <time>2020-02-20T12:55:05Z</time>
      </trkpt>
      <trkpt lat="48.72669" lon="2.04094">
        <ele>69.58</ele>
        <time>2020-02-20T12:55:09Z</time>
      </trkpt>
      <trkpt lat="48.72666" lon="2.0409">
        <ele>69.6</ele>
        <time>2020-02-20T12:55:14Z</time>
      </trkpt>
      <trkpt lat="48.72669" lon="2.04074">
        <ele>69.66</ele>
        <time>2020-02-20T12:55:24Z</time>
      </trkpt>
      <trkpt lat="48.72673" lon="2.04064">
        <ele>69.68</ele>
        <time>2020-02-20T12:55:31Z</time>
      </trkpt>
      <trkpt lat="48.72677" lon="2.04051">
        <ele>70.58</ele>
        <time>2020-02-20T12:55:41Z</time>
      </trkpt>
      <trkpt lat="48.72678" lon="2.04043">
        <ele>70.61</ele>
        <time>2020-02-20T12:55:46Z</time>
      </trkpt>
      <trkpt lat="48.72682" lon="2.04028">
        <ele>70.66</ele>
        <time>2020-02-20T12:55:55Z</time>
      </trkpt>
      <trkpt lat="48.72683" lon="2.04013">
        <ele>71.5</ele>
        <time>2020-02-20T12:56:03Z</time>
      </trkpt>
      <trkpt lat="48.72685" lon="2.04001">
        <ele>71.54</ele>
        <time>2020-02-20T12:56:11Z</time>
      </trkpt>
      <trkpt lat="48.72684" lon="2.03985">
        <ele>72.37</ele>
        <time>2020-02-20T12:56:20Z</time>
      </trkpt>
      <trkpt lat="48.72681" lon="2.03975">
        <ele>73.29</ele>
        <time>2020-02-20T12:56:28Z</time>
      </trkpt>
      <trkpt lat="48.72679" lon="2.03967">
        <ele>74.78</ele>
        <time>2020-02-20T12:56:34Z</time>
      </trkpt>
      <trkpt lat="48.72677" lon="2.03962">
        <ele>74.79</ele>
        <time>2020-02-20T12:56:37Z</time>
      </trkpt>
      <trkpt lat="48.72672" lon="2.03946">
        <ele>75.5</ele>
        <time>2020-02-20T12:56:46Z</time>
      </trkpt>
      <trkpt lat="48.72665" lon="2.03937">
        <ele>75.71</ele>
        <time>2020-02-20T12:56:55Z</time>
      </trkpt>
      <trkpt lat="48.72663" lon="2.03933">
        <ele>76.42</ele>
        <time>2020-02-20T12:56:59Z</time>
      </trkpt>
      <trkpt lat="48.72659" lon="2.03926">
        <ele>77.54</ele>
        <time>2020-02-20T12:57:08Z</time>
      </trkpt>
      <trkpt lat="48.72657" lon="2.03922">
        <ele>78.54</ele>
        <time>2020-02-20T12:57:12Z</time>
      </trkpt>
      <trkpt lat="48.72651" lon="2.0391">
        <ele>79.21</ele>
        <time>2020-02-20T12:57:22Z</time>
      </trkpt>
      <trkpt lat="48.72648" lon="2.03893">
        <ele>79.27</ele>
        <time>2020-02-20T12:57:32Z</time>
      </trkpt>
      <trkpt lat="48.72647" lon="2.0389">
        <ele>79.29</ele>
        <time>2020-02-20T12:57:36Z</time>
      </trkpt>
      <trkpt lat="48.72645" lon="2.03888">
        <ele>79.47</ele>
        <time>2020-02-20T12:57:52Z</time>
      </trkpt>
      <trkpt lat="48.72643" lon="2.03888">
        <ele>80.36</ele>
        <time>2020-02-20T12:58:10Z</time>
      </trkpt>
      <trkpt lat="48.72641" lon="2.03882">
        <ele>81.12</ele>
        <time>2020-02-20T12:58:22Z</time>
      </trkpt>
      <trkpt lat="48.72639" lon="2.03876">
        <ele>83.9</ele>
        <time>2020-02-20T12:58:33Z</time>
      </trkpt>
      <trkpt lat="48.72634" lon="2.03871">
        <ele>85.26</ele>
        <time>2020-02-20T12:58:44Z</time>
      </trkpt>
      <trkpt lat="48.72629" lon="2.0386">
        <ele>87.41</ele>
        <time>2020-02-20T12:58:55Z</time>
      </trkpt>
      <trkpt lat="48.72625" lon="2.0385">
        <ele>88.82</ele>
        <time>2020-02-20T12:59:05Z</time>
      </trkpt>
      <trkpt lat="48.72621" lon="2.03843">
        <ele>89.73</ele>
        <time>2020-02-20T12:59:14Z</time>
      </trkpt>
      <trkpt lat="48.72614" lon="2.03833">
        <ele>91.24</ele>
        <time>2020-02-20T12:59:24Z</time>
      </trkpt>
      <trkpt lat="48.72606" lon="2.03822">
        <ele>92.28</ele>
        <time>2020-02-20T12:59:34Z</time>
      </trkpt>
      <trkpt lat="48.72602" lon="2.03818">
        <ele>93.47</ele>
        <time>2020-02-20T12:59:39Z</time>
      </trkpt>
      <trkpt lat="48.72596" lon="2.0381">
        <ele>94.24</ele>
        <time>2020-02-20T12:59:49Z</time>
      </trkpt>
      <trkpt lat="48.72588" lon="2.03804">
        <ele>94.95</ele>
        <time>2020-02-20T12:59:59Z</time>
      </trkpt>
      <trkpt lat="48.72587" lon="2.03802">
        <ele>95.76</ele>
        <time>2020-02-20T13:00:04Z</time>
      </trkpt>
      <trkpt lat="48.72579" lon="2.03793">
        <ele>96.63</ele>
        <time>2020-02-20T13:00:16Z</time>
      </trkpt>
      <trkpt lat="48.72571" lon="2.03786">
        <ele>99.37</ele>
        <time>2020-02-20T13:00:27Z</time>
      </trkpt>
      <trkpt lat="48.72571" lon="2.03786">
        <ele>99.37</ele>
        <time>2020-02-20T13:00:28Z</time>
      </trkpt>
      <trkpt lat="48.72563" lon="2.03788">
        <ele>100.21</ele>
        <time>2020-02-20T13:00:39Z</time>
      </trkpt>
      <trkpt lat="48.72557" lon="2.03785">
        <ele>101.88</ele>
        <time>2020-02-20T13:00:50Z</time>
      </trkpt>
      <trkpt lat="48.72549" lon="2.03781">
        <ele>103.5</ele>
        <time>2020-02-20T13:01:00Z</time>
      </trkpt>
      <trkpt lat="48.72544" lon="2.03788">
        <ele>105.23</ele>
        <time>2020-02-20T13:01:10Z</time>
      </trkpt>
      <trkpt lat="48.72541" lon="2.03796">
        <ele>106.06</ele>
        <time>2020-02-20T13:01:21Z</time>
      </trkpt>
      <trkpt lat="48.72536" lon="2.03797">
        <ele>107.97</ele>
        <time>2020-02-20T13:01:32Z</time>
      </trkpt>
      <trkpt lat="48.7253" lon="2.03791">
        <ele>108.77</ele>
        <time>2020-02-20T13:01:41Z</time>
      </trkpt>
      <trkpt lat="48.72525" lon="2.03785">
        <ele>110.51</ele>
        <time>2020-02-20T13:01:52Z</time>
      </trkpt>
      <trkpt lat="48.7252" lon="2.03782">
        <ele>112.69</ele>
        <time>2020-02-20T13:02:04Z</time>
      </trkpt>
      <trkpt lat="48.72515" lon="2.03782">
        <ele>113.34</ele>
        <time>2020-02-20T13:02:16Z</time>
      </trkpt>
      <trkpt lat="48.72511" lon="2.03784">
        <ele>113.98</ele>
        <time>2020-02-20T13:02:35Z</time>
      </trkpt>
      <trkpt lat="48.72507" lon="2.03785">
        <ele>114.94</ele>
        <time>2020-02-20T13:02:46Z</time>
      </trkpt>
      <trkpt lat="48.72502" lon="2.03784">
        <ele>116.71</ele>
        <time>2020-02-20T13:02:58Z</time>
      </trkpt>
      <trkpt lat="48.72499" lon="2.03788">
        <ele>119.8</ele>
        <time>2020-02-20T13:03:10Z</time>
      </trkpt>
      <trkpt lat="48.72495" lon="2.03796">
        <ele>120.7</ele>
        <time>2020-02-20T13:03:26Z</time>
      </trkpt>
      <trkpt lat="48.72492" lon="2.03802">
        <ele>122.62</ele>
        <time>2020-02-20T13:03:38Z</time>
      </trkpt>
      <trkpt lat="48.7249" lon="2.03808">
        <ele>124.18</ele>
        <time>2020-02-20T13:03:51Z</time>
      </trkpt>
      <trkpt lat="48.72486" lon="2.03814">
        <ele>124.98</ele>
        <time>2020-02-20T13:04:00Z</time>
      </trkpt>
      <trkpt lat="48.72478" lon="2.03814">
        <ele>127.01</ele>
        <time>2020-02-20T13:04:11Z</time>
      </trkpt>
      <trkpt lat="48.72471" lon="2.03809">
        <ele>126.92</ele>
        <time>2020-02-20T13:04:19Z</time>
      </trkpt>
      <trkpt lat="48.72465" lon="2.03802">
        <ele>126.86</ele>
        <time>2020-02-20T13:04:29Z</time>
      </trkpt>
      <trkpt lat="48.72457" lon="2.03791">
        <ele>128.77</ele>
        <time>2020-02-20T13:04:41Z</time>
      </trkpt>
      <trkpt lat="48.7245" lon="2.03792">
        <ele>129.48</ele>
        <time>2020-02-20T13:04:51Z</time>
      </trkpt>
      <trkpt lat="48.72447" lon="2.03802">
        <ele>131.16</ele>
        <time>2020-02-20T13:05:03Z</time>
      </trkpt>
      <trkpt lat="48.72444" lon="2.03809">
        <ele>131.05</ele>
        <time>2020-02-20T13:05:13Z</time>
      </trkpt>
      <trkpt lat="48.72442" lon="2.03817">
        <ele>131.93</ele>
        <time>2020-02-20T13:05:22Z</time>
      </trkpt>
      <trkpt lat="48.72442" lon="2.03822">
        <ele>132.67</ele>
        <time>2020-02-20T13:05:30Z</time>
      </trkpt>
      <trkpt lat="48.7244" lon="2.03828">
        <ele>132.6</ele>
        <time>2020-02-20T13:05:40Z</time>
      </trkpt>
      <trkpt lat="48.72436" lon="2.03837">
        <ele>133.26</ele>
        <time>2020-02-20T13:05:50Z</time>
      </trkpt>
      <trkpt lat="48.72437" lon="2.03844">
        <ele>133.08</ele>
        <time>2020-02-20T13:06:04Z</time>
      </trkpt>
      <trkpt lat="48.72438" lon="2.03843">
        <ele>132.94</ele>
        <time>2020-02-20T13:06:18Z</time>
      </trkpt>
      <trkpt lat="48.72437" lon="2.03841">
        <ele>132.89</ele>
        <time>2020-02-20T13:06:35Z</time>
      </trkpt>
      <trkpt lat="48.72434" lon="2.03841">
        <ele>132.81</ele>
        <time>2020-02-20T13:06:50Z</time>
      </trkpt>
      <trkpt lat="48.72435" lon="2.0384">
        <ele>132.74</ele>
        <time>2020-02-20T13:07:04Z</time>
      </trkpt>
      <trkpt lat="48.72433" lon="2.03838">
        <ele>132.68</ele>
        <time>2020-02-20T13:07:20Z</time>
      </trkpt>
      <trkpt lat="48.7243" lon="2.03842">
        <ele>133.45</ele>
        <time>2020-02-20T13:07:33Z</time>
      </trkpt>
      <trkpt lat="48.72428" lon="2.03851">
        <ele>133.35</ele>
        <time>2020-02-20T13:07:50Z</time>
      </trkpt>
      <trkpt lat="48.7242" lon="2.03853">
        <ele>133.42</ele>
        <time>2020-02-20T13:08:03Z</time>
      </trkpt>
      <trkpt lat="48.72417" lon="2.03853">
        <ele>133.57</ele>
        <time>2020-02-20T13:08:16Z</time>
      </trkpt>
      <trkpt lat="48.72416" lon="2.03854">
        <ele>133.63</ele>
        <time>2020-02-20T13:08:30Z</time>
      </trkpt>
      <trkpt lat="48.72417" lon="2.03853">
        <ele>133.75</ele>
        <time>2020-02-20T13:08:42Z</time>
      </trkpt>
      <trkpt lat="48.72418" lon="2.03847">
        <ele>134.04</ele>
        <time>2020-02-20T13:09:04Z</time>
      </trkpt>
      <trkpt lat="48.72419" lon="2.03847">
        <ele>130.06</ele>
        <time>2020-02-20T13:09:05Z</time>
      </trkpt>
      <trkpt lat="48.72419" lon="2.03847">
        <ele>133.57</ele>
        <time>2020-02-20T13:09:06Z</time>
      </trkpt>
      <trkpt lat="48.72419" lon="2.03847">
        <ele>131.86</ele>
        <time>2020-02-20T13:09:09Z</time>
      </trkpt>
      <trkpt lat="48.72419" lon="2.03846">
        <ele>135.11</ele>
        <time>2020-02-20T13:09:15Z</time>
      </trkpt>
      <trkpt lat="48.7242" lon="2.03846">
        <ele>135.12</ele>
        <time>2020-02-20T13:09:16Z</time>
      </trkpt>
      <trkpt lat="48.72422" lon="2.03843">
        <ele>132.49</ele>
        <time>2020-02-20T13:09:25Z</time>
      </trkpt>
      <trkpt lat="48.72422" lon="2.03847">
        <ele>132.62</ele>
        <time>2020-02-20T13:09:36Z</time>
      </trkpt>
      <trkpt lat="48.7242" lon="2.0386">
        <ele>132.77</ele>
        <time>2020-02-20T13:09:48Z</time>
      </trkpt>
      <trkpt lat="48.72416" lon="2.0387">
        <ele>132.88</ele>
        <time>2020-02-20T13:09:56Z</time>
      </trkpt>
      <trkpt lat="48.72408" lon="2.03887">
        <ele>132.95</ele>
        <time>2020-02-20T13:10:07Z</time>
      </trkpt>
      <trkpt lat="48.72402" lon="2.039">
        <ele>133.04</ele>
        <time>2020-02-20T13:10:16Z</time>
      </trkpt>
      <trkpt lat="48.72395" lon="2.03907">
        <ele>133.09</ele>
        <time>2020-02-20T13:10:25Z</time>
      </trkpt>
      <trkpt lat="48.72392" lon="2.03915">
        <ele>133.11</ele>
        <time>2020-02-20T13:10:32Z</time>
      </trkpt>
      <trkpt lat="48.72387" lon="2.03926">
        <ele>133.1</ele>
        <time>2020-02-20T13:10:41Z</time>
      </trkpt>
      <trkpt lat="48.72386" lon="2.03928">
        <ele>133.07</ele>
        <time>2020-02-20T13:10:42Z</time>
      </trkpt>
      <trkpt lat="48.72382" lon="2.03944">
        <ele>133.09</ele>
        <time>2020-02-20T13:10:52Z</time>
      </trkpt>
      <trkpt lat="48.72379" lon="2.03954">
        <ele>133.1</ele>
        <time>2020-02-20T13:11:01Z</time>
      </trkpt>
      <trkpt lat="48.72375" lon="2.03966">
        <ele>133.01</ele>
        <time>2020-02-20T13:11:10Z</time>
      </trkpt>
      <trkpt lat="48.72371" lon="2.03977">
        <ele>133</ele>
        <time>2020-02-20T13:11:19Z</time>
      </trkpt>
      <trkpt lat="48.72367" lon="2.03988">
        <ele>132.92</ele>
        <time>2020-02-20T13:11:28Z</time>
      </trkpt>
      <trkpt lat="48.72364" lon="2.03992">
        <ele>132.87</ele>
        <time>2020-02-20T13:11:31Z</time>
      </trkpt>
      <trkpt lat="48.72355" lon="2.04005">
        <ele>132.76</ele>
        <time>2020-02-20T13:11:41Z</time>
      </trkpt>
      <trkpt lat="48.7235" lon="2.04016">
        <ele>132.7</ele>
        <time>2020-02-20T13:11:50Z</time>
      </trkpt>
      <trkpt lat="48.72347" lon="2.04026">
        <ele>131.79</ele>
        <time>2020-02-20T13:11:57Z</time>
      </trkpt>
      <trkpt lat="48.72342" lon="2.04036">
        <ele>130.76</ele>
        <time>2020-02-20T13:12:06Z</time>
      </trkpt>
      <trkpt lat="48.72341" lon="2.04041">
        <ele>130.74</ele>
        <time>2020-02-20T13:12:14Z</time>
      </trkpt>
      <trkpt lat="48.72338" lon="2.04048">
        <ele>130.58</ele>
        <time>2020-02-20T13:12:22Z</time>
      </trkpt>
      <trkpt lat="48.72331" lon="2.04061">
        <ele>130.45</ele>
        <time>2020-02-20T13:12:32Z</time>
      </trkpt>
      <trkpt lat="48.72326" lon="2.04072">
        <ele>130.36</ele>
        <time>2020-02-20T13:12:40Z</time>
      </trkpt>
      <trkpt lat="48.72321" lon="2.04086">
        <ele>130.18</ele>
        <time>2020-02-20T13:12:49Z</time>
      </trkpt>
      <trkpt lat="48.72316" lon="2.04094">
        <ele>130.04</ele>
        <time>2020-02-20T13:12:58Z</time>
      </trkpt>
      <trkpt lat="48.72313" lon="2.04101">
        <ele>129.9</ele>
        <time>2020-02-20T13:13:03Z</time>
      </trkpt>
      <trkpt lat="48.72307" lon="2.04116">
        <ele>129.69</ele>
        <time>2020-02-20T13:13:13Z</time>
      </trkpt>
      <trkpt lat="48.72302" lon="2.04128">
        <ele>129.53</ele>
        <time>2020-02-20T13:13:21Z</time>
      </trkpt>
      <trkpt lat="48.72302" lon="2.04129">
        <ele>129.53</ele>
        <time>2020-02-20T13:13:22Z</time>
      </trkpt>
      <trkpt lat="48.72296" lon="2.04145">
        <ele>128.38</ele>
        <time>2020-02-20T13:13:31Z</time>
      </trkpt>
      <trkpt lat="48.72291" lon="2.04154">
        <ele>127.39</ele>
        <time>2020-02-20T13:13:39Z</time>
      </trkpt>
      <trkpt lat="48.72288" lon="2.04166">
        <ele>127.24</ele>
        <time>2020-02-20T13:13:47Z</time>
      </trkpt>
      <trkpt lat="48.72283" lon="2.0418">
        <ele>127.11</ele>
        <time>2020-02-20T13:13:56Z</time>
      </trkpt>
      <trkpt lat="48.72276" lon="2.04193">
        <ele>126.13</ele>
        <time>2020-02-20T13:14:05Z</time>
      </trkpt>
      <trkpt lat="48.72269" lon="2.04208">
        <ele>126.04</ele>
        <time>2020-02-20T13:14:15Z</time>
      </trkpt>
      <trkpt lat="48.72265" lon="2.04218">
        <ele>128.44</ele>
        <time>2020-02-20T13:14:23Z</time>
      </trkpt>
      <trkpt lat="48.72259" lon="2.04231">
        <ele>128.33</ele>
        <time>2020-02-20T13:14:31Z</time>
      </trkpt>
      <trkpt lat="48.72251" lon="2.04244">
        <ele>128.18</ele>
        <time>2020-02-20T13:14:39Z</time>
      </trkpt>
      <trkpt lat="48.72243" lon="2.04256">
        <ele>128.04</ele>
        <time>2020-02-20T13:14:47Z</time>
      </trkpt>
      <trkpt lat="48.72232" lon="2.04268">
        <ele>127.87</ele>
        <time>2020-02-20T13:14:57Z</time>
      </trkpt>
      <trkpt lat="48.72218" lon="2.04277">
        <ele>127.76</ele>
        <time>2020-02-20T13:15:07Z</time>
      </trkpt>
      <trkpt lat="48.72209" lon="2.04278">
        <ele>127.65</ele>
        <time>2020-02-20T13:15:15Z</time>
      </trkpt>
      <trkpt lat="48.722" lon="2.04283">
        <ele>127.51</ele>
        <time>2020-02-20T13:15:23Z</time>
      </trkpt>
      <trkpt lat="48.72194" lon="2.04289">
        <ele>124.39</ele>
        <time>2020-02-20T13:15:31Z</time>
      </trkpt>
      <trkpt lat="48.72194" lon="2.04291">
        <ele>124.38</ele>
        <time>2020-02-20T13:15:32Z</time>
      </trkpt>
      <trkpt lat="48.72185" lon="2.04301">
        <ele>124.34</ele>
        <time>2020-02-20T13:15:41Z</time>
      </trkpt>
      <trkpt lat="48.72178" lon="2.04308">
        <ele>122.7</ele>
        <time>2020-02-20T13:15:49Z</time>
      </trkpt>
      <trkpt lat="48.72167" lon="2.04317">
        <ele>121.75</ele>
        <time>2020-02-20T13:15:58Z</time>
      </trkpt>
      <trkpt lat="48.72155" lon="2.04322">
        <ele>121.69</ele>
        <time>2020-02-20T13:16:08Z</time>
      </trkpt>
      <trkpt lat="48.72149" lon="2.04328">
        <ele>121.69</ele>
        <time>2020-02-20T13:16:17Z</time>
      </trkpt>
      <trkpt lat="48.72147" lon="2.04338">
        <ele>121.55</ele>
        <time>2020-02-20T13:16:24Z</time>
      </trkpt>
      <trkpt lat="48.72147" lon="2.04356">
        <ele>120.25</ele>
        <time>2020-02-20T13:16:33Z</time>
      </trkpt>
      <trkpt lat="48.72147" lon="2.04357">
        <ele>120.26</ele>
        <time>2020-02-20T13:16:34Z</time>
      </trkpt>
      <trkpt lat="48.7215" lon="2.04373">
        <ele>120.17</ele>
        <time>2020-02-20T13:16:44Z</time>
      </trkpt>
      <trkpt lat="48.72152" lon="2.04387">
        <ele>120.11</ele>
        <time>2020-02-20T13:16:52Z</time>
      </trkpt>
      <trkpt lat="48.72155" lon="2.04403">
        <ele>120.05</ele>
        <time>2020-02-20T13:17:01Z</time>
      </trkpt>
      <trkpt lat="48.72158" lon="2.04415">
        <ele>119.99</ele>
        <time>2020-02-20T13:17:08Z</time>
      </trkpt>
      <trkpt lat="48.72158" lon="2.04426">
        <ele>119.95</ele>
        <time>2020-02-20T13:17:16Z</time>
      </trkpt>
      <trkpt lat="48.72156" lon="2.04443">
        <ele>119.84</ele>
        <time>2020-02-20T13:17:26Z</time>
      </trkpt>
      <trkpt lat="48.72155" lon="2.04447">
        <ele>119.79</ele>
        <time>2020-02-20T13:17:29Z</time>
      </trkpt>
      <trkpt lat="48.72151" lon="2.04463">
        <ele>119.78</ele>
        <time>2020-02-20T13:17:38Z</time>
      </trkpt>
      <trkpt lat="48.72148" lon="2.04483">
        <ele>119.72</ele>
        <time>2020-02-20T13:17:51Z</time>
      </trkpt>
      <trkpt lat="48.72147" lon="2.04501">
        <ele>119.61</ele>
        <time>2020-02-20T13:18:01Z</time>
      </trkpt>
      <trkpt lat="48.72149" lon="2.0452">
        <ele>119.6</ele>
        <time>2020-02-20T13:18:11Z</time>
      </trkpt>
      <trkpt lat="48.72151" lon="2.04543">
        <ele>119.54</ele>
        <time>2020-02-20T13:18:22Z</time>
      </trkpt>
      <trkpt lat="48.7215" lon="2.04547">
        <ele>119.5</ele>
        <time>2020-02-20T13:18:29Z</time>
      </trkpt>
      <trkpt lat="48.72147" lon="2.04556">
        <ele>119.45</ele>
        <time>2020-02-20T13:18:40Z</time>
      </trkpt>
      <trkpt lat="48.72141" lon="2.04572">
        <ele>119.36</ele>
        <time>2020-02-20T13:18:53Z</time>
      </trkpt>
      <trkpt lat="48.72135" lon="2.0458">
        <ele>119.31</ele>
        <time>2020-02-20T13:19:01Z</time>
      </trkpt>
      <trkpt lat="48.72124" lon="2.0459">
        <ele>119.32</ele>
        <time>2020-02-20T13:19:10Z</time>
      </trkpt>
      <trkpt lat="48.72118" lon="2.04605">
        <ele>119.26</ele>
        <time>2020-02-20T13:19:19Z</time>
      </trkpt>
      <trkpt lat="48.72114" lon="2.04616">
        <ele>119.18</ele>
        <time>2020-02-20T13:19:29Z</time>
      </trkpt>
      <trkpt lat="48.72112" lon="2.04632">
        <ele>119.12</ele>
        <time>2020-02-20T13:19:37Z</time>
      </trkpt>
      <trkpt lat="48.7211" lon="2.04649">
        <ele>119.04</ele>
        <time>2020-02-20T13:19:46Z</time>
      </trkpt>
      <trkpt lat="48.72113" lon="2.04665">
        <ele>118.04</ele>
        <time>2020-02-20T13:19:54Z</time>
      </trkpt>
      <trkpt lat="48.72119" lon="2.04682">
        <ele>118.06</ele>
        <time>2020-02-20T13:20:04Z</time>
      </trkpt>
      <trkpt lat="48.72123" lon="2.04693">
        <ele>117.98</ele>
        <time>2020-02-20T13:20:11Z</time>
      </trkpt>
      <trkpt lat="48.72131" lon="2.04714">
        <ele>117.91</ele>
        <time>2020-02-20T13:20:20Z</time>
      </trkpt>
      <trkpt lat="48.7214" lon="2.04735">
        <ele>117.92</ele>
        <time>2020-02-20T13:20:30Z</time>
      </trkpt>
      <trkpt lat="48.72144" lon="2.04744">
        <ele>117.87</ele>
        <time>2020-02-20T13:20:36Z</time>
      </trkpt>
      <trkpt lat="48.72145" lon="2.04754">
        <ele>117.8</ele>
        <time>2020-02-20T13:20:46Z</time>
      </trkpt>
      <trkpt lat="48.72146" lon="2.04759">
        <ele>116.93</ele>
        <time>2020-02-20T13:20:58Z</time>
      </trkpt>
      <trkpt lat="48.72145" lon="2.04764">
        <ele>116.84</ele>
        <time>2020-02-20T13:21:09Z</time>
      </trkpt>
      <trkpt lat="48.72145" lon="2.04771">
        <ele>116.81</ele>
        <time>2020-02-20T13:21:13Z</time>
      </trkpt>
      <trkpt lat="48.72147" lon="2.04785">
        <ele>116.75</ele>
        <time>2020-02-20T13:21:21Z</time>
      </trkpt>
      <trkpt lat="48.72148" lon="2.04802">
        <ele>118.96</ele>
        <time>2020-02-20T13:21:32Z</time>
      </trkpt>
      <trkpt lat="48.72141" lon="2.04822">
        <ele>119.71</ele>
        <time>2020-02-20T13:21:39Z</time>
      </trkpt>
      <trkpt lat="48.72136" lon="2.0484">
        <ele>120.64</ele>
        <time>2020-02-20T13:21:47Z</time>
      </trkpt>
      <trkpt lat="48.72131" lon="2.04854">
        <ele>121.35</ele>
        <time>2020-02-20T13:21:56Z</time>
      </trkpt>
      <trkpt lat="48.72129" lon="2.04867">
        <ele>123.25</ele>
        <time>2020-02-20T13:22:04Z</time>
      </trkpt>
      <trkpt lat="48.72126" lon="2.04881">
        <ele>123.18</ele>
        <time>2020-02-20T13:22:12Z</time>
      </trkpt>
      <trkpt lat="48.72126" lon="2.04894">
        <ele>125.14</ele>
        <time>2020-02-20T13:22:21Z</time>
      </trkpt>
      <trkpt lat="48.72126" lon="2.04905">
        <ele>126.17</ele>
        <time>2020-02-20T13:22:30Z</time>
      </trkpt>
      <trkpt lat="48.72125" lon="2.04916">
        <ele>126.15</ele>
        <time>2020-02-20T13:22:39Z</time>
      </trkpt>
      <trkpt lat="48.72128" lon="2.0492">
        <ele>126.12</ele>
        <time>2020-02-20T13:22:48Z</time>
      </trkpt>
      <trkpt lat="48.72132" lon="2.04916">
        <ele>126.13</ele>
        <time>2020-02-20T13:22:56Z</time>
      </trkpt>
      <trkpt lat="48.72133" lon="2.04914">
        <ele>123.73</ele>
        <time>2020-02-20T13:22:59Z</time>
      </trkpt>
      <trkpt lat="48.72138" lon="2.04898">
        <ele>122.65</ele>
        <time>2020-02-20T13:23:10Z</time>
      </trkpt>
      <trkpt lat="48.72143" lon="2.0489">
        <ele>120.95</ele>
        <time>2020-02-20T13:23:19Z</time>
      </trkpt>
      <trkpt lat="48.72149" lon="2.04878">
        <ele>119.8</ele>
        <time>2020-02-20T13:23:28Z</time>
      </trkpt>
      <trkpt lat="48.72158" lon="2.04873">
        <ele>118.08</ele>
        <time>2020-02-20T13:23:39Z</time>
      </trkpt>
      <trkpt lat="48.72166" lon="2.0486">
        <ele>117.08</ele>
        <time>2020-02-20T13:23:48Z</time>
      </trkpt>
      <trkpt lat="48.72178" lon="2.0485">
        <ele>114.69</ele>
        <time>2020-02-20T13:23:58Z</time>
      </trkpt>
      <trkpt lat="48.72186" lon="2.04844">
        <ele>113.72</ele>
        <time>2020-02-20T13:24:07Z</time>
      </trkpt>
      <trkpt lat="48.72187" lon="2.04843">
        <ele>113.75</ele>
        <time>2020-02-20T13:24:08Z</time>
      </trkpt>
      <trkpt lat="48.72196" lon="2.04835">
        <ele>111.93</ele>
        <time>2020-02-20T13:24:17Z</time>
      </trkpt>
      <trkpt lat="48.72205" lon="2.04826">
        <ele>109.81</ele>
        <time>2020-02-20T13:24:27Z</time>
      </trkpt>
      <trkpt lat="48.72217" lon="2.0482">
        <ele>109.19</ele>
        <time>2020-02-20T13:24:37Z</time>
      </trkpt>
      <trkpt lat="48.72224" lon="2.0482">
        <ele>108.38</ele>
        <time>2020-02-20T13:24:46Z</time>
      </trkpt>
      <trkpt lat="48.72233" lon="2.04819">
        <ele>107.76</ele>
        <time>2020-02-20T13:24:55Z</time>
      </trkpt>
      <trkpt lat="48.72239" lon="2.04821">
        <ele>106.11</ele>
        <time>2020-02-20T13:25:02Z</time>
      </trkpt>
      <trkpt lat="48.72245" lon="2.04829">
        <ele>105.43</ele>
        <time>2020-02-20T13:25:12Z</time>
      </trkpt>
      <trkpt lat="48.72251" lon="2.04835">
        <ele>103.64</ele>
        <time>2020-02-20T13:25:20Z</time>
      </trkpt>
      <trkpt lat="48.72253" lon="2.04838">
        <ele>102.39</ele>
        <time>2020-02-20T13:25:23Z</time>
      </trkpt>
      <trkpt lat="48.72259" lon="2.04842">
        <ele>100.94</ele>
        <time>2020-02-20T13:25:33Z</time>
      </trkpt>
      <trkpt lat="48.72268" lon="2.04844">
        <ele>99.32</ele>
        <time>2020-02-20T13:25:42Z</time>
      </trkpt>
      <trkpt lat="48.72275" lon="2.04845">
        <ele>98.3</ele>
        <time>2020-02-20T13:25:50Z</time>
      </trkpt>
      <trkpt lat="48.72285" lon="2.04845">
        <ele>96.78</ele>
        <time>2020-02-20T13:26:00Z</time>
      </trkpt>
      <trkpt lat="48.72299" lon="2.04847">
        <ele>95.19</ele>
        <time>2020-02-20T13:26:13Z</time>
      </trkpt>
      <trkpt lat="48.72309" lon="2.04848">
        <ele>93.59</ele>
        <time>2020-02-20T13:26:21Z</time>
      </trkpt>
      <trkpt lat="48.72319" lon="2.04848">
        <ele>92.76</ele>
        <time>2020-02-20T13:26:30Z</time>
      </trkpt>
      <trkpt lat="48.72326" lon="2.0485">
        <ele>91.08</ele>
        <time>2020-02-20T13:26:38Z</time>
      </trkpt>
      <trkpt lat="48.72337" lon="2.0485">
        <ele>89.12</ele>
        <time>2020-02-20T13:26:48Z</time>
      </trkpt>
      <trkpt lat="48.72348" lon="2.04851">
        <ele>87.75</ele>
        <time>2020-02-20T13:26:59Z</time>
      </trkpt>
      <trkpt lat="48.72361" lon="2.04852">
        <ele>87.14</ele>
        <time>2020-02-20T13:27:11Z</time>
      </trkpt>
      <trkpt lat="48.72368" lon="2.04854">
        <ele>86.48</ele>
        <time>2020-02-20T13:27:18Z</time>
      </trkpt>
      <trkpt lat="48.72377" lon="2.04857">
        <ele>84.96</ele>
        <time>2020-02-20T13:27:28Z</time>
      </trkpt>
      <trkpt lat="48.72387" lon="2.0486">
        <ele>83.28</ele>
        <time>2020-02-20T13:27:39Z</time>
      </trkpt>
      <trkpt lat="48.72391" lon="2.04861">
        <ele>81.62</ele>
        <time>2020-02-20T13:27:43Z</time>
      </trkpt>
      <trkpt lat="48.72401" lon="2.04862">
        <ele>81</ele>
        <time>2020-02-20T13:27:53Z</time>
      </trkpt>
      <trkpt lat="48.7241" lon="2.04863">
        <ele>81.1</ele>
        <time>2020-02-20T13:28:03Z</time>
      </trkpt>
      <trkpt lat="48.72418" lon="2.0486">
        <ele>80.36</ele>
        <time>2020-02-20T13:28:12Z</time>
      </trkpt>
      <trkpt lat="48.72431" lon="2.04858">
        <ele>78.7</ele>
        <time>2020-02-20T13:28:23Z</time>
      </trkpt>
      <trkpt lat="48.72439" lon="2.04855">
        <ele>77.88</ele>
        <time>2020-02-20T13:28:31Z</time>
      </trkpt>
      <trkpt lat="48.72448" lon="2.04854">
        <ele>77.18</ele>
        <time>2020-02-20T13:28:40Z</time>
      </trkpt>
      <trkpt lat="48.72458" lon="2.04854">
        <ele>75.62</ele>
        <time>2020-02-20T13:28:49Z</time>
      </trkpt>
      <trkpt lat="48.7247" lon="2.04851">
        <ele>75.66</ele>
        <time>2020-02-20T13:28:59Z</time>
      </trkpt>
      <trkpt lat="48.72479" lon="2.04848">
        <ele>74.95</ele>
        <time>2020-02-20T13:29:07Z</time>
      </trkpt>
      <trkpt lat="48.72487" lon="2.04849">
        <ele>75.05</ele>
        <time>2020-02-20T13:29:16Z</time>
      </trkpt>
      <trkpt lat="48.72496" lon="2.0485">
        <ele>74.3</ele>
        <time>2020-02-20T13:29:26Z</time>
      </trkpt>
      <trkpt lat="48.72507" lon="2.04857">
        <ele>73.16</ele>
        <time>2020-02-20T13:29:37Z</time>
      </trkpt>
      <trkpt lat="48.72516" lon="2.04867">
        <ele>72.48</ele>
        <time>2020-02-20T13:29:47Z</time>
      </trkpt>
      <trkpt lat="48.7252" lon="2.04877">
        <ele>72.58</ele>
        <time>2020-02-20T13:29:56Z</time>
      </trkpt>
      <trkpt lat="48.72522" lon="2.04888">
        <ele>72.68</ele>
        <time>2020-02-20T13:30:05Z</time>
      </trkpt>
      <trkpt lat="48.72522" lon="2.04893">
        <ele>72.02</ele>
        <time>2020-02-20T13:30:13Z</time>
      </trkpt>
      <trkpt lat="48.72523" lon="2.04899">
        <ele>72.11</ele>
        <time>2020-02-20T13:30:21Z</time>
      </trkpt>
      <trkpt lat="48.72525" lon="2.04898">
        <ele>71.51</ele>
        <time>2020-02-20T13:30:37Z</time>
      </trkpt>
      <trkpt lat="48.72528" lon="2.049">
        <ele>71.66</ele>
        <time>2020-02-20T13:30:48Z</time>
      </trkpt>
      <trkpt lat="48.72534" lon="2.049">
        <ele>70.58</ele>
        <time>2020-02-20T13:30:58Z</time>
      </trkpt>
      <trkpt lat="48.72535" lon="2.049">
        <ele>70.6</ele>
        <time>2020-02-20T13:30:59Z</time>
      </trkpt>
      <trkpt lat="48.72542" lon="2.04895">
        <ele>69.85</ele>
        <time>2020-02-20T13:31:09Z</time>
      </trkpt>
      <trkpt lat="48.72548" lon="2.04893">
        <ele>69.95</ele>
        <time>2020-02-20T13:31:17Z</time>
      </trkpt>
      <trkpt lat="48.72553" lon="2.04893">
        <ele>70.07</ele>
        <time>2020-02-20T13:31:26Z</time>
      </trkpt>
      <trkpt lat="48.72554" lon="2.04893">
        <ele>70.16</ele>
        <time>2020-02-20T13:31:38Z</time>
      </trkpt>
      <trkpt lat="48.72555" lon="2.04894">
        <ele>69.44</ele>
        <time>2020-02-20T13:31:48Z</time>
      </trkpt>
      <trkpt lat="48.72556" lon="2.04893">
        <ele>69.53</ele>
        <time>2020-02-20T13:31:58Z</time>
      </trkpt>
      <trkpt lat="48.72555" lon="2.04892">
        <ele>69.64</ele>
        <time>2020-02-20T13:32:10Z</time>
      </trkpt>
      <trkpt lat="48.72556" lon="2.04894">
        <ele>69.75</ele>
        <time>2020-02-20T13:32:21Z</time>
      </trkpt>
      <trkpt lat="48.72557" lon="2.04895">
        <ele>69.84</ele>
        <time>2020-02-20T13:32:31Z</time>
      </trkpt>
      <trkpt lat="48.72558" lon="2.04894">
        <ele>69.2</ele>
        <time>2020-02-20T13:32:43Z</time>
      </trkpt>
      <trkpt lat="48.72563" lon="2.04895">
        <ele>69.37</ele>
        <time>2020-02-20T13:32:59Z</time>
      </trkpt>
      <trkpt lat="48.72564" lon="2.04895">
        <ele>69.57</ele>
        <time>2020-02-20T13:33:15Z</time>
      </trkpt>
      <trkpt lat="48.72564" lon="2.04895">
        <ele>69.66</ele>
        <time>2020-02-20T13:33:24Z</time>
      </trkpt>
      <trkpt lat="48.72564" lon="2.04895">
        <ele>73.79</ele>
        <time>2020-02-20T13:33:30Z</time>
      </trkpt>
      <trkpt lat="48.72565" lon="2.04896">
        <ele>70.46</ele>
        <time>2020-02-20T13:33:31Z</time>
      </trkpt>
      <trkpt lat="48.72567" lon="2.0489">
        <ele>70.5</ele>
        <time>2020-02-20T13:33:40Z</time>
      </trkpt>
      <trkpt lat="48.7257" lon="2.04889">
        <ele>70.68</ele>
        <time>2020-02-20T13:33:50Z</time>
      </trkpt>
      <trkpt lat="48.72575" lon="2.0489">
        <ele>70.75</ele>
        <time>2020-02-20T13:33:55Z</time>
      </trkpt>
      <trkpt lat="48.7258" lon="2.04897">
        <ele>69.75</ele>
        <time>2020-02-20T13:34:04Z</time>
      </trkpt>
      <trkpt lat="48.72591" lon="2.04899">
        <ele>69.88</ele>
        <time>2020-02-20T13:34:15Z</time>
      </trkpt>
      <trkpt lat="48.72598" lon="2.04901">
        <ele>69.99</ele>
        <time>2020-02-20T13:34:24Z</time>
      </trkpt>
      <trkpt lat="48.72604" lon="2.04901">
        <ele>70.08</ele>
        <time>2020-02-20T13:34:33Z</time>
      </trkpt>
      <trkpt lat="48.72608" lon="2.04901">
        <ele>70.11</ele>
        <time>2020-02-20T13:34:37Z</time>
      </trkpt>
      <trkpt lat="48.72618" lon="2.04901">
        <ele>70.19</ele>
        <time>2020-02-20T13:34:47Z</time>
      </trkpt>
      <trkpt lat="48.72626" lon="2.04901">
        <ele>69.36</ele>
        <time>2020-02-20T13:34:55Z</time>
      </trkpt>
      <trkpt lat="48.72628" lon="2.04901">
        <ele>69.36</ele>
        <time>2020-02-20T13:34:56Z</time>
      </trkpt>
      <trkpt lat="48.7264" lon="2.04902">
        <ele>69.44</ele>
        <time>2020-02-20T13:35:05Z</time>
      </trkpt>
      <trkpt lat="48.72652" lon="2.04901">
        <ele>69.55</ele>
        <time>2020-02-20T13:35:15Z</time>
      </trkpt>
      <trkpt lat="48.72662" lon="2.049">
        <ele>69.62</ele>
        <time>2020-02-20T13:35:25Z</time>
      </trkpt>
      <trkpt lat="48.72671" lon="2.04899">
        <ele>69.68</ele>
        <time>2020-02-20T13:35:33Z</time>
      </trkpt>
      <trkpt lat="48.7268" lon="2.04899">
        <ele>69.76</ele>
        <time>2020-02-20T13:35:42Z</time>
      </trkpt>
      <trkpt lat="48.72687" lon="2.04898">
        <ele>69.84</ele>
        <time>2020-02-20T13:35:51Z</time>
      </trkpt>
      <trkpt lat="48.72689" lon="2.04899">
        <ele>72.25</ele>
        <time>2020-02-20T13:35:54Z</time>
      </trkpt>
      <trkpt lat="48.72693" lon="2.04905">
        <ele>72.3</ele>
        <time>2020-02-20T13:36:02Z</time>
      </trkpt>
      <trkpt lat="48.72695" lon="2.04906">
        <ele>72.4</ele>
        <time>2020-02-20T13:36:16Z</time>
      </trkpt>
      <trkpt lat="48.727" lon="2.04906">
        <ele>73.27</ele>
        <time>2020-02-20T13:36:30Z</time>
      </trkpt>
      <trkpt lat="48.72703" lon="2.04904">
        <ele>73.29</ele>
        <time>2020-02-20T13:36:33Z</time>
      </trkpt>
      <trkpt lat="48.72706" lon="2.04903">
        <ele>73.32</ele>
        <time>2020-02-20T13:36:36Z</time>
      </trkpt>
      <trkpt lat="48.72717" lon="2.04895">
        <ele>74.41</ele>
        <time>2020-02-20T13:36:47Z</time>
      </trkpt>
      <trkpt lat="48.72724" lon="2.04895">
        <ele>75.5</ele>
        <time>2020-02-20T13:36:54Z</time>
      </trkpt>
      <trkpt lat="48.72732" lon="2.04895">
        <ele>76.54</ele>
        <time>2020-02-20T13:37:03Z</time>
      </trkpt>
      <trkpt lat="48.72739" lon="2.04899">
        <ele>77.56</ele>
        <time>2020-02-20T13:37:14Z</time>
      </trkpt>
      <trkpt lat="48.72745" lon="2.04903">
        <ele>78.44</ele>
        <time>2020-02-20T13:37:21Z</time>
      </trkpt>
      <trkpt lat="48.72753" lon="2.04905">
        <ele>79.24</ele>
        <time>2020-02-20T13:37:30Z</time>
      </trkpt>
      <trkpt lat="48.72766" lon="2.04909">
        <ele>80.16</ele>
        <time>2020-02-20T13:37:39Z</time>
      </trkpt>
      <trkpt lat="48.72774" lon="2.04912">
        <ele>81.1</ele>
        <time>2020-02-20T13:37:49Z</time>
      </trkpt>
      <trkpt lat="48.7278" lon="2.04916">
        <ele>82.3</ele>
        <time>2020-02-20T13:37:56Z</time>
      </trkpt>
      <trkpt lat="48.72787" lon="2.04918">
        <ele>83.27</ele>
        <time>2020-02-20T13:38:04Z</time>
      </trkpt>
      <trkpt lat="48.72795" lon="2.04919">
        <ele>84.43</ele>
        <time>2020-02-20T13:38:12Z</time>
      </trkpt>
      <trkpt lat="48.72802" lon="2.04922">
        <ele>85.32</ele>
        <time>2020-02-20T13:38:20Z</time>
      </trkpt>
      <trkpt lat="48.72806" lon="2.04924">
        <ele>86.61</ele>
        <time>2020-02-20T13:38:24Z</time>
      </trkpt>
      <trkpt lat="48.72812" lon="2.04926">
        <ele>86.73</ele>
        <time>2020-02-20T13:38:30Z</time>
      </trkpt>
      <trkpt lat="48.72818" lon="2.04929">
        <ele>89.05</ele>
        <time>2020-02-20T13:38:39Z</time>
      </trkpt>
      <trkpt lat="48.72824" lon="2.04934">
        <ele>89.33</ele>
        <time>2020-02-20T13:38:49Z</time>
      </trkpt>
      <trkpt lat="48.72829" lon="2.04935">
        <ele>89.28</ele>
        <time>2020-02-20T13:38:54Z</time>
      </trkpt>
      <trkpt lat="48.72834" lon="2.04934">
        <ele>89.33</ele>
        <time>2020-02-20T13:39:01Z</time>
      </trkpt>
      <trkpt lat="48.7284" lon="2.04932">
        <ele>90.46</ele>
        <time>2020-02-20T13:39:09Z</time>
      </trkpt>
      <trkpt lat="48.72847" lon="2.04929">
        <ele>92.17</ele>
        <time>2020-02-20T13:39:17Z</time>
      </trkpt>
      <trkpt lat="48.72852" lon="2.04924">
        <ele>93.14</ele>
        <time>2020-02-20T13:39:24Z</time>
      </trkpt>
      <trkpt lat="48.72857" lon="2.0492">
        <ele>94.12</ele>
        <time>2020-02-20T13:39:32Z</time>
      </trkpt>
      <trkpt lat="48.72862" lon="2.04916">
        <ele>95.04</ele>
        <time>2020-02-20T13:39:42Z</time>
      </trkpt>
      <trkpt lat="48.72869" lon="2.04918">
        <ele>95.14</ele>
        <time>2020-02-20T13:39:52Z</time>
      </trkpt>
      <trkpt lat="48.72872" lon="2.04918">
        <ele>97.42</ele>
        <time>2020-02-20T13:39:57Z</time>
      </trkpt>
      <trkpt lat="48.72879" lon="2.04919">
        <ele>98.51</ele>
        <time>2020-02-20T13:40:09Z</time>
      </trkpt>
      <trkpt lat="48.72885" lon="2.0492">
        <ele>99.49</ele>
        <time>2020-02-20T13:40:20Z</time>
      </trkpt>
      <trkpt lat="48.72892" lon="2.0492">
        <ele>101.58</ele>
        <time>2020-02-20T13:40:30Z</time>
      </trkpt>
      <trkpt lat="48.72898" lon="2.04917">
        <ele>102.35</ele>
        <time>2020-02-20T13:40:39Z</time>
      </trkpt>
      <trkpt lat="48.72901" lon="2.0491">
        <ele>103.63</ele>
        <time>2020-02-20T13:40:49Z</time>
      </trkpt>
      <trkpt lat="48.72902" lon="2.04906">
        <ele>105.82</ele>
        <time>2020-02-20T13:40:56Z</time>
      </trkpt>
      <trkpt lat="48.72904" lon="2.049">
        <ele>106.63</ele>
        <time>2020-02-20T13:41:06Z</time>
      </trkpt>
      <trkpt lat="48.72905" lon="2.0489">
        <ele>108.34</ele>
        <time>2020-02-20T13:41:17Z</time>
      </trkpt>
      <trkpt lat="48.72907" lon="2.04879">
        <ele>110.23</ele>
        <time>2020-02-20T13:41:29Z</time>
      </trkpt>
      <trkpt lat="48.72909" lon="2.04869">
        <ele>112.15</ele>
        <time>2020-02-20T13:41:39Z</time>
      </trkpt>
      <trkpt lat="48.72911" lon="2.04857">
        <ele>114.08</ele>
        <time>2020-02-20T13:41:51Z</time>
      </trkpt>
      <trkpt lat="48.72912" lon="2.04845">
        <ele>115.2</ele>
        <time>2020-02-20T13:42:02Z</time>
      </trkpt>
      <trkpt lat="48.72913" lon="2.0483">
        <ele>117.04</ele>
        <time>2020-02-20T13:42:16Z</time>
      </trkpt>
      <trkpt lat="48.72914" lon="2.04822">
        <ele>119.23</ele>
        <time>2020-02-20T13:42:23Z</time>
      </trkpt>
      <trkpt lat="48.72914" lon="2.04808">
        <ele>119.17</ele>
        <time>2020-02-20T13:42:33Z</time>
      </trkpt>
      <trkpt lat="48.72914" lon="2.04796">
        <ele>121.94</ele>
        <time>2020-02-20T13:42:46Z</time>
      </trkpt>
      <trkpt lat="48.72915" lon="2.04786">
        <ele>123.26</ele>
        <time>2020-02-20T13:42:57Z</time>
      </trkpt>
      <trkpt lat="48.72914" lon="2.04786">
        <ele>123.23</ele>
        <time>2020-02-20T13:42:58Z</time>
      </trkpt>
      <trkpt lat="48.72914" lon="2.04783">
        <ele>124.3</ele>
        <time>2020-02-20T13:43:10Z</time>
      </trkpt>
      <trkpt lat="48.72916" lon="2.04779">
        <ele>126.26</ele>
        <time>2020-02-20T13:43:20Z</time>
      </trkpt>
      <trkpt lat="48.72918" lon="2.04774">
        <ele>127.09</ele>
        <time>2020-02-20T13:43:31Z</time>
      </trkpt>
      <trkpt lat="48.72923" lon="2.04766">
        <ele>129.99</ele>
        <time>2020-02-20T13:43:43Z</time>
      </trkpt>
      <trkpt lat="48.72926" lon="2.04755">
        <ele>131.02</ele>
        <time>2020-02-20T13:43:54Z</time>
      </trkpt>
      <trkpt lat="48.7293" lon="2.04749">
        <ele>133.32</ele>
        <time>2020-02-20T13:44:02Z</time>
      </trkpt>
      <trkpt lat="48.72935" lon="2.04743">
        <ele>134.9</ele>
        <time>2020-02-20T13:44:11Z</time>
      </trkpt>
      <trkpt lat="48.72935" lon="2.04742">
        <ele>134.97</ele>
        <time>2020-02-20T13:44:12Z</time>
      </trkpt>
      <trkpt lat="48.72939" lon="2.04738">
        <ele>136.98</ele>
        <time>2020-02-20T13:44:21Z</time>
      </trkpt>
      <trkpt lat="48.72943" lon="2.04732">
        <ele>137.84</ele>
        <time>2020-02-20T13:44:28Z</time>
      </trkpt>
      <trkpt lat="48.72951" lon="2.04726">
        <ele>138.57</ele>
        <time>2020-02-20T13:44:39Z</time>
      </trkpt>
      <trkpt lat="48.72955" lon="2.0472">
        <ele>139.88</ele>
        <time>2020-02-20T13:44:49Z</time>
      </trkpt>
      <trkpt lat="48.72962" lon="2.04713">
        <ele>140.1</ele>
        <time>2020-02-20T13:45:00Z</time>
      </trkpt>
      <trkpt lat="48.72965" lon="2.04712">
        <ele>140.09</ele>
        <time>2020-02-20T13:45:11Z</time>
      </trkpt>
      <trkpt lat="48.72965" lon="2.04708">
        <ele>141.93</ele>
        <time>2020-02-20T13:45:21Z</time>
      </trkpt>
      <trkpt lat="48.7297" lon="2.04704">
        <ele>141.89</ele>
        <time>2020-02-20T13:45:29Z</time>
      </trkpt>
      <trkpt lat="48.72978" lon="2.04702">
        <ele>141.9</ele>
        <time>2020-02-20T13:45:38Z</time>
      </trkpt>
      <trkpt lat="48.72982" lon="2.04701">
        <ele>142.04</ele>
        <time>2020-02-20T13:45:52Z</time>
      </trkpt>
      <trkpt lat="48.72989" lon="2.04698">
        <ele>142.15</ele>
        <time>2020-02-20T13:46:00Z</time>
      </trkpt>
      <trkpt lat="48.72997" lon="2.04695">
        <ele>142.19</ele>
        <time>2020-02-20T13:46:08Z</time>
      </trkpt>
      <trkpt lat="48.73006" lon="2.04692">
        <ele>142.17</ele>
        <time>2020-02-20T13:46:16Z</time>
      </trkpt>
      <trkpt lat="48.73014" lon="2.0469">
        <ele>142.28</ele>
        <time>2020-02-20T13:46:26Z</time>
      </trkpt>
      <trkpt lat="48.73022" lon="2.04684">
        <ele>142.33</ele>
        <time>2020-02-20T13:46:34Z</time>
      </trkpt>
      <trkpt lat="48.73033" lon="2.0468">
        <ele>142.23</ele>
        <time>2020-02-20T13:46:43Z</time>
      </trkpt>
      <trkpt lat="48.73042" lon="2.04675">
        <ele>142.24</ele>
        <time>2020-02-20T13:46:51Z</time>
      </trkpt>
      <trkpt lat="48.73047" lon="2.04671">
        <ele>142.29</ele>
        <time>2020-02-20T13:46:59Z</time>
      </trkpt>
      <trkpt lat="48.73052" lon="2.04675">
        <ele>142.3</ele>
        <time>2020-02-20T13:47:10Z</time>
      </trkpt>
      <trkpt lat="48.73055" lon="2.04675">
        <ele>142.31</ele>
        <time>2020-02-20T13:47:23Z</time>
      </trkpt>
      <trkpt lat="48.73058" lon="2.04676">
        <ele>142.47</ele>
        <time>2020-02-20T13:47:43Z</time>
      </trkpt>
      <trkpt lat="48.73056" lon="2.04676">
        <ele>142.62</ele>
        <time>2020-02-20T13:47:57Z</time>
      </trkpt>
      <trkpt lat="48.73057" lon="2.04676">
        <ele>142.7</ele>
        <time>2020-02-20T13:48:09Z</time>
      </trkpt>
      <trkpt lat="48.73056" lon="2.04675">
        <ele>142.79</ele>
        <time>2020-02-20T13:48:20Z</time>
      </trkpt>
      <trkpt lat="48.73054" lon="2.04674">
        <ele>143.01</ele>
        <time>2020-02-20T13:48:38Z</time>
      </trkpt>
      <trkpt lat="48.73051" lon="2.04674">
        <ele>143.16</ele>
        <time>2020-02-20T13:48:57Z</time>
      </trkpt>
      <trkpt lat="48.7305" lon="2.04674">
        <ele>143.28</ele>
        <time>2020-02-20T13:49:10Z</time>
      </trkpt>
      <trkpt lat="48.73047" lon="2.04675">
        <ele>143.43</ele>
        <time>2020-02-20T13:49:27Z</time>
      </trkpt>
      <trkpt lat="48.73049" lon="2.04674">
        <ele>143.6</ele>
        <time>2020-02-20T13:49:44Z</time>
      </trkpt>
      <trkpt lat="48.73049" lon="2.04673">
        <ele>144.52</ele>
        <time>2020-02-20T13:49:56Z</time>
      </trkpt>
      <trkpt lat="48.73048" lon="2.04673">
        <ele>144.67</ele>
        <time>2020-02-20T13:50:14Z</time>
      </trkpt>
      <trkpt lat="48.73051" lon="2.04671">
        <ele>144.81</ele>
        <time>2020-02-20T13:50:25Z</time>
      </trkpt>
      <trkpt lat="48.73062" lon="2.04668">
        <ele>144.88</ele>
        <time>2020-02-20T13:50:34Z</time>
      </trkpt>
      <trkpt lat="48.7307" lon="2.04663">
        <ele>144.85</ele>
        <time>2020-02-20T13:50:41Z</time>
      </trkpt>
      <trkpt lat="48.7308" lon="2.04656">
        <ele>144.86</ele>
        <time>2020-02-20T13:50:50Z</time>
      </trkpt>
      <trkpt lat="48.73089" lon="2.0465">
        <ele>144.92</ele>
        <time>2020-02-20T13:50:59Z</time>
      </trkpt>
      <trkpt lat="48.73098" lon="2.04642">
        <ele>144.95</ele>
        <time>2020-02-20T13:51:08Z</time>
      </trkpt>
      <trkpt lat="48.73104" lon="2.04638">
        <ele>144.97</ele>
        <time>2020-02-20T13:51:15Z</time>
      </trkpt>
      <trkpt lat="48.73113" lon="2.04633">
        <ele>144.98</ele>
        <time>2020-02-20T13:51:25Z</time>
      </trkpt>
      <trkpt lat="48.73124" lon="2.04629">
        <ele>144.94</ele>
        <time>2020-02-20T13:51:34Z</time>
      </trkpt>
      <trkpt lat="48.73135" lon="2.04624">
        <ele>144.91</ele>
        <time>2020-02-20T13:51:44Z</time>
      </trkpt>
      <trkpt lat="48.73148" lon="2.04619">
        <ele>144.91</ele>
        <time>2020-02-20T13:51:55Z</time>
      </trkpt>
      <trkpt lat="48.73159" lon="2.04614">
        <ele>144.92</ele>
        <time>2020-02-20T13:52:04Z</time>
      </trkpt>
      <trkpt lat="48.73169" lon="2.04608">
        <ele>144.94</ele>
        <time>2020-02-20T13:52:13Z</time>
      </trkpt>
      <trkpt lat="48.73178" lon="2.04602">
        <ele>144.97</ele>
        <time>2020-02-20T13:52:21Z</time>
      </trkpt>
      <trkpt lat="48.73184" lon="2.04598">
        <ele>145.87</ele>
        <time>2020-02-20T13:52:28Z</time>
      </trkpt>
      <trkpt lat="48.73192" lon="2.04593">
        <ele>145.86</ele>
        <time>2020-02-20T13:52:36Z</time>
      </trkpt>
      <trkpt lat="48.732" lon="2.04585">
        <ele>145.83</ele>
        <time>2020-02-20T13:52:44Z</time>
      </trkpt>
      <trkpt lat="48.73208" lon="2.04579">
        <ele>145.87</ele>
        <time>2020-02-20T13:52:51Z</time>
      </trkpt>
      <trkpt lat="48.7322" lon="2.04572">
        <ele>146.71</ele>
        <time>2020-02-20T13:53:01Z</time>
      </trkpt>
      <trkpt lat="48.7323" lon="2.04567">
        <ele>147.48</ele>
        <time>2020-02-20T13:53:10Z</time>
      </trkpt>
      <trkpt lat="48.73238" lon="2.04559">
        <ele>147.48</ele>
        <time>2020-02-20T13:53:18Z</time>
      </trkpt>
      <trkpt lat="48.73248" lon="2.04552">
        <ele>147.53</ele>
        <time>2020-02-20T13:53:28Z</time>
      </trkpt>
      <trkpt lat="48.73258" lon="2.04546">
        <ele>147.56</ele>
        <time>2020-02-20T13:53:36Z</time>
      </trkpt>
      <trkpt lat="48.73266" lon="2.04541">
        <ele>147.61</ele>
        <time>2020-02-20T13:53:43Z</time>
      </trkpt>
      <trkpt lat="48.73274" lon="2.04531">
        <ele>148.63</ele>
        <time>2020-02-20T13:53:53Z</time>
      </trkpt>
      <trkpt lat="48.73283" lon="2.04523">
        <ele>148.63</ele>
        <time>2020-02-20T13:54:02Z</time>
      </trkpt>
      <trkpt lat="48.73293" lon="2.04515">
        <ele>148.63</ele>
        <time>2020-02-20T13:54:12Z</time>
      </trkpt>
      <trkpt lat="48.73305" lon="2.04504">
        <ele>149.56</ele>
        <time>2020-02-20T13:54:24Z</time>
      </trkpt>
      <trkpt lat="48.73313" lon="2.04497">
        <ele>149.59</ele>
        <time>2020-02-20T13:54:33Z</time>
      </trkpt>
      <trkpt lat="48.73316" lon="2.04497">
        <ele>149.58</ele>
        <time>2020-02-20T13:54:36Z</time>
      </trkpt>
      <trkpt lat="48.73325" lon="2.04491">
        <ele>150.48</ele>
        <time>2020-02-20T13:54:45Z</time>
      </trkpt>
      <trkpt lat="48.73321" lon="2.04493">
        <ele>150.65</ele>
        <time>2020-02-20T14:05:15Z</time>
      </trkpt>
      <trkpt lat="48.73316" lon="2.04505">
        <ele>150.6</ele>
        <time>2020-02-20T14:05:23Z</time>
      </trkpt>
      <trkpt lat="48.7332" lon="2.04522">
        <ele>150.53</ele>
        <time>2020-02-20T14:05:31Z</time>
      </trkpt>
      <trkpt lat="48.73321" lon="2.04526">
        <ele>150.53</ele>
        <time>2020-02-20T14:05:34Z</time>
      </trkpt>
      <trkpt lat="48.73327" lon="2.04536">
        <ele>150.51</ele>
        <time>2020-02-20T14:05:42Z</time>
      </trkpt>
      <trkpt lat="48.73333" lon="2.04549">
        <ele>150.49</ele>
        <time>2020-02-20T14:05:51Z</time>
      </trkpt>
      <trkpt lat="48.73339" lon="2.04558">
        <ele>150.48</ele>
        <time>2020-02-20T14:05:58Z</time>
      </trkpt>
      <trkpt lat="48.73343" lon="2.04567">
        <ele>150.49</ele>
        <time>2020-02-20T14:06:04Z</time>
      </trkpt>
      <trkpt lat="48.73348" lon="2.04576">
        <ele>150.51</ele>
        <time>2020-02-20T14:06:12Z</time>
      </trkpt>
      <trkpt lat="48.73351" lon="2.04582">
        <ele>152.88</ele>
        <time>2020-02-20T14:06:16Z</time>
      </trkpt>
      <trkpt lat="48.73355" lon="2.04592">
        <ele>152.9</ele>
        <time>2020-02-20T14:06:24Z</time>
      </trkpt>
      <trkpt lat="48.73359" lon="2.04602">
        <ele>152.9</ele>
        <time>2020-02-20T14:06:31Z</time>
      </trkpt>
      <trkpt lat="48.73361" lon="2.04607">
        <ele>152.9</ele>
        <time>2020-02-20T14:06:34Z</time>
      </trkpt>
      <trkpt lat="48.73362" lon="2.04615">
        <ele>152.88</ele>
        <time>2020-02-20T14:06:39Z</time>
      </trkpt>
      <trkpt lat="48.73365" lon="2.04629">
        <ele>153.71</ele>
        <time>2020-02-20T14:06:49Z</time>
      </trkpt>
      <trkpt lat="48.73365" lon="2.04644">
        <ele>153.75</ele>
        <time>2020-02-20T14:06:58Z</time>
      </trkpt>
      <trkpt lat="48.73367" lon="2.0466">
        <ele>154.6</ele>
        <time>2020-02-20T14:07:07Z</time>
      </trkpt>
      <trkpt lat="48.73369" lon="2.04673">
        <ele>154.59</ele>
        <time>2020-02-20T14:07:16Z</time>
      </trkpt>
      <trkpt lat="48.7337" lon="2.04685">
        <ele>155.4</ele>
        <time>2020-02-20T14:07:23Z</time>
      </trkpt>
      <trkpt lat="48.73372" lon="2.04703">
        <ele>155.36</ele>
        <time>2020-02-20T14:07:33Z</time>
      </trkpt>
      <trkpt lat="48.73372" lon="2.04717">
        <ele>155.33</ele>
        <time>2020-02-20T14:07:42Z</time>
      </trkpt>
      <trkpt lat="48.73372" lon="2.04725">
        <ele>156.63</ele>
        <time>2020-02-20T14:07:46Z</time>
      </trkpt>
      <trkpt lat="48.73376" lon="2.0474">
        <ele>156.62</ele>
        <time>2020-02-20T14:07:56Z</time>
      </trkpt>
      <trkpt lat="48.7338" lon="2.04753">
        <ele>156.6</ele>
        <time>2020-02-20T14:08:05Z</time>
      </trkpt>
      <trkpt lat="48.73379" lon="2.04767">
        <ele>157.38</ele>
        <time>2020-02-20T14:08:13Z</time>
      </trkpt>
      <trkpt lat="48.73379" lon="2.04778">
        <ele>157.39</ele>
        <time>2020-02-20T14:08:21Z</time>
      </trkpt>
      <trkpt lat="48.73381" lon="2.04792">
        <ele>157.33</ele>
        <time>2020-02-20T14:08:30Z</time>
      </trkpt>
      <trkpt lat="48.73381" lon="2.04805">
        <ele>157.3</ele>
        <time>2020-02-20T14:08:40Z</time>
      </trkpt>
      <trkpt lat="48.73381" lon="2.04818">
        <ele>158.11</ele>
        <time>2020-02-20T14:08:48Z</time>
      </trkpt>
      <trkpt lat="48.73379" lon="2.04836">
        <ele>158.03</ele>
        <time>2020-02-20T14:08:59Z</time>
      </trkpt>
      <trkpt lat="48.73377" lon="2.04852">
        <ele>157.97</ele>
        <time>2020-02-20T14:09:08Z</time>
      </trkpt>
      <trkpt lat="48.73378" lon="2.04868">
        <ele>158.65</ele>
        <time>2020-02-20T14:09:17Z</time>
      </trkpt>
      <trkpt lat="48.73377" lon="2.04885">
        <ele>158.56</ele>
        <time>2020-02-20T14:09:27Z</time>
      </trkpt>
      <trkpt lat="48.7338" lon="2.04896">
        <ele>158.5</ele>
        <time>2020-02-20T14:09:35Z</time>
      </trkpt>
      <trkpt lat="48.73381" lon="2.04909">
        <ele>158.41</ele>
        <time>2020-02-20T14:09:41Z</time>
      </trkpt>
      <trkpt lat="48.73383" lon="2.04921">
        <ele>158.36</ele>
        <time>2020-02-20T14:09:50Z</time>
      </trkpt>
      <trkpt lat="48.73389" lon="2.04933">
        <ele>158.27</ele>
        <time>2020-02-20T14:09:59Z</time>
      </trkpt>
      <trkpt lat="48.73395" lon="2.0494">
        <ele>158.98</ele>
        <time>2020-02-20T14:10:06Z</time>
      </trkpt>
      <trkpt lat="48.73397" lon="2.04955">
        <ele>158.89</ele>
        <time>2020-02-20T14:10:16Z</time>
      </trkpt>
      <trkpt lat="48.73406" lon="2.04966">
        <ele>158.83</ele>
        <time>2020-02-20T14:10:25Z</time>
      </trkpt>
      <trkpt lat="48.73416" lon="2.04975">
        <ele>158.79</ele>
        <time>2020-02-20T14:10:35Z</time>
      </trkpt>
      <trkpt lat="48.73423" lon="2.04984">
        <ele>158.77</ele>
        <time>2020-02-20T14:10:45Z</time>
      </trkpt>
      <trkpt lat="48.73432" lon="2.04995">
        <ele>159.53</ele>
        <time>2020-02-20T14:10:55Z</time>
      </trkpt>
      <trkpt lat="48.73435" lon="2.05">
        <ele>159.52</ele>
        <time>2020-02-20T14:10:58Z</time>
      </trkpt>
      <trkpt lat="48.73438" lon="2.05005">
        <ele>159.55</ele>
        <time>2020-02-20T14:11:02Z</time>
      </trkpt>
      <trkpt lat="48.73444" lon="2.05012">
        <ele>160.46</ele>
        <time>2020-02-20T14:11:09Z</time>
      </trkpt>
      <trkpt lat="48.73453" lon="2.05018">
        <ele>160.48</ele>
        <time>2020-02-20T14:11:18Z</time>
      </trkpt>
      <trkpt lat="48.73461" lon="2.05025">
        <ele>160.49</ele>
        <time>2020-02-20T14:11:26Z</time>
      </trkpt>
      <trkpt lat="48.73471" lon="2.05033">
        <ele>160.39</ele>
        <time>2020-02-20T14:11:35Z</time>
      </trkpt>
      <trkpt lat="48.73473" lon="2.05035">
        <ele>160.56</ele>
        <time>2020-02-20T14:11:44Z</time>
      </trkpt>
      <trkpt lat="48.73476" lon="2.05038">
        <ele>156.97</ele>
        <time>2020-02-20T14:11:49Z</time>
      </trkpt>
      <trkpt lat="48.73483" lon="2.05046">
        <ele>159.84</ele>
        <time>2020-02-20T14:11:58Z</time>
      </trkpt>
      <trkpt lat="48.7349" lon="2.05054">
        <ele>160.8</ele>
        <time>2020-02-20T14:12:06Z</time>
      </trkpt>
      <trkpt lat="48.73498" lon="2.05067">
        <ele>160.77</ele>
        <time>2020-02-20T14:12:18Z</time>
      </trkpt>
      <trkpt lat="48.73506" lon="2.05075">
        <ele>161.58</ele>
        <time>2020-02-20T14:12:28Z</time>
      </trkpt>
      <trkpt lat="48.73514" lon="2.05084">
        <ele>161.58</ele>
        <time>2020-02-20T14:12:38Z</time>
      </trkpt>
      <trkpt lat="48.73522" lon="2.05095">
        <ele>161.6</ele>
        <time>2020-02-20T14:12:48Z</time>
      </trkpt>
      <trkpt lat="48.7353" lon="2.05107">
        <ele>161.61</ele>
        <time>2020-02-20T14:13:00Z</time>
      </trkpt>
      <trkpt lat="48.73542" lon="2.05124">
        <ele>161.62</ele>
        <time>2020-02-20T14:13:16Z</time>
      </trkpt>
      <trkpt lat="48.7355" lon="2.05135">
        <ele>159.16</ele>
        <time>2020-02-20T14:13:26Z</time>
      </trkpt>
      <trkpt lat="48.73564" lon="2.05153">
        <ele>159.17</ele>
        <time>2020-02-20T14:13:42Z</time>
      </trkpt>
      <trkpt lat="48.73576" lon="2.05169">
        <ele>159.19</ele>
        <time>2020-02-20T14:13:56Z</time>
      </trkpt>
      <trkpt lat="48.73588" lon="2.05185">
        <ele>159.18</ele>
        <time>2020-02-20T14:14:10Z</time>
      </trkpt>
      <trkpt lat="48.736" lon="2.05201">
        <ele>159.2</ele>
        <time>2020-02-20T14:14:24Z</time>
      </trkpt>
      <trkpt lat="48.7361" lon="2.05214">
        <ele>159.19</ele>
        <time>2020-02-20T14:14:36Z</time>
      </trkpt>
      <trkpt lat="48.73623" lon="2.05231">
        <ele>159.17</ele>
        <time>2020-02-20T14:14:51Z</time>
      </trkpt>
      <trkpt lat="48.73637" lon="2.05249">
        <ele>159.16</ele>
        <time>2020-02-20T14:15:07Z</time>
      </trkpt>
      <trkpt lat="48.73649" lon="2.05265">
        <ele>159.15</ele>
        <time>2020-02-20T14:15:21Z</time>
      </trkpt>
      <trkpt lat="48.73662" lon="2.05279">
        <ele>159.14</ele>
        <time>2020-02-20T14:15:36Z</time>
      </trkpt>
      <trkpt lat="48.73675" lon="2.05295">
        <ele>159.12</ele>
        <time>2020-02-20T14:15:51Z</time>
      </trkpt>
      <trkpt lat="48.7369" lon="2.05312">
        <ele>157.33</ele>
        <time>2020-02-20T14:16:08Z</time>
      </trkpt>
      <trkpt lat="48.73702" lon="2.05326">
        <ele>157.32</ele>
        <time>2020-02-20T14:16:22Z</time>
      </trkpt>
      <trkpt lat="48.73717" lon="2.05342">
        <ele>157.2</ele>
        <time>2020-02-20T14:16:38Z</time>
      </trkpt>
      <trkpt lat="48.73732" lon="2.0536">
        <ele>157.36</ele>
        <time>2020-02-20T14:16:54Z</time>
      </trkpt>
      <trkpt lat="48.73746" lon="2.05375">
        <ele>157.28</ele>
        <time>2020-02-20T14:17:09Z</time>
      </trkpt>
      <trkpt lat="48.73761" lon="2.05391">
        <ele>157.19</ele>
        <time>2020-02-20T14:17:25Z</time>
      </trkpt>
      <trkpt lat="48.73768" lon="2.05399">
        <ele>159.59</ele>
        <time>2020-02-20T14:17:33Z</time>
      </trkpt>
      <trkpt lat="48.73773" lon="2.05403">
        <ele>156.91</ele>
        <time>2020-02-20T14:17:38Z</time>
      </trkpt>
      <trkpt lat="48.73789" lon="2.0542">
        <ele>156.81</ele>
        <time>2020-02-20T14:17:55Z</time>
      </trkpt>
      <trkpt lat="48.73804" lon="2.05435">
        <ele>156.02</ele>
        <time>2020-02-20T14:18:11Z</time>
      </trkpt>
      <trkpt lat="48.73819" lon="2.05452">
        <ele>156.07</ele>
        <time>2020-02-20T14:18:27Z</time>
      </trkpt>
      <trkpt lat="48.73832" lon="2.05468">
        <ele>156.06</ele>
        <time>2020-02-20T14:18:42Z</time>
      </trkpt>
      <trkpt lat="48.73844" lon="2.05484">
        <ele>155.3</ele>
        <time>2020-02-20T14:18:56Z</time>
      </trkpt>
      <trkpt lat="48.73859" lon="2.05505">
        <ele>155.22</ele>
        <time>2020-02-20T14:19:13Z</time>
      </trkpt>
      <trkpt lat="48.73874" lon="2.05528">
        <ele>155.31</ele>
        <time>2020-02-20T14:19:32Z</time>
      </trkpt>
      <trkpt lat="48.73887" lon="2.05547">
        <ele>155.25</ele>
        <time>2020-02-20T14:19:48Z</time>
      </trkpt>
      <trkpt lat="48.739" lon="2.05561">
        <ele>155.29</ele>
        <time>2020-02-20T14:20:02Z</time>
      </trkpt>
      <trkpt lat="48.73912" lon="2.0557">
        <ele>155.26</ele>
        <time>2020-02-20T14:20:14Z</time>
      </trkpt>
      <trkpt lat="48.73918" lon="2.05581">
        <ele>155.29</ele>
        <time>2020-02-20T14:20:23Z</time>
      </trkpt>
      <trkpt lat="48.7393" lon="2.05596">
        <ele>155.27</ele>
        <time>2020-02-20T14:20:37Z</time>
      </trkpt>
      <trkpt lat="48.7394" lon="2.05605">
        <ele>154.42</ele>
        <time>2020-02-20T14:20:48Z</time>
      </trkpt>
      <trkpt lat="48.73953" lon="2.05612">
        <ele>154.47</ele>
        <time>2020-02-20T14:21:01Z</time>
      </trkpt>
      <trkpt lat="48.73962" lon="2.05618">
        <ele>154.51</ele>
        <time>2020-02-20T14:21:10Z</time>
      </trkpt>
      <trkpt lat="48.73976" lon="2.05625">
        <ele>153.41</ele>
        <time>2020-02-20T14:21:24Z</time>
      </trkpt>
      <trkpt lat="48.73989" lon="2.05633">
        <ele>153.36</ele>
        <time>2020-02-20T14:21:36Z</time>
      </trkpt>
      <trkpt lat="48.74002" lon="2.05646">
        <ele>152.73</ele>
        <time>2020-02-20T14:21:51Z</time>
      </trkpt>
      <trkpt lat="48.74005" lon="2.05648">
        <ele>155.55</ele>
        <time>2020-02-20T14:21:54Z</time>
      </trkpt>
      <trkpt lat="48.74008" lon="2.05649">
        <ele>153.27</ele>
        <time>2020-02-20T14:21:56Z</time>
      </trkpt>
      <trkpt lat="48.74023" lon="2.05657">
        <ele>153.28</ele>
        <time>2020-02-20T14:22:10Z</time>
      </trkpt>
      <trkpt lat="48.74034" lon="2.05663">
        <ele>153.26</ele>
        <time>2020-02-20T14:22:21Z</time>
      </trkpt>
      <trkpt lat="48.7405" lon="2.05672">
        <ele>153.27</ele>
        <time>2020-02-20T14:22:36Z</time>
      </trkpt>
      <trkpt lat="48.7406" lon="2.0568">
        <ele>155.67</ele>
        <time>2020-02-20T14:22:46Z</time>
      </trkpt>
      <trkpt lat="48.74077" lon="2.05694">
        <ele>155.58</ele>
        <time>2020-02-20T14:23:03Z</time>
      </trkpt>
      <trkpt lat="48.74091" lon="2.05707">
        <ele>155.61</ele>
        <time>2020-02-20T14:23:18Z</time>
      </trkpt>
      <trkpt lat="48.74094" lon="2.05709">
        <ele>153.16</ele>
        <time>2020-02-20T14:23:21Z</time>
      </trkpt>
      <trkpt lat="48.74106" lon="2.0572">
        <ele>153.16</ele>
        <time>2020-02-20T14:23:33Z</time>
      </trkpt>
      <trkpt lat="48.74115" lon="2.0573">
        <ele>150.69</ele>
        <time>2020-02-20T14:23:43Z</time>
      </trkpt>
      <trkpt lat="48.74118" lon="2.05733">
        <ele>153.41</ele>
        <time>2020-02-20T14:23:46Z</time>
      </trkpt>
      <trkpt lat="48.7412" lon="2.05736">
        <ele>154.75</ele>
        <time>2020-02-20T14:23:49Z</time>
      </trkpt>
      <trkpt lat="48.74128" lon="2.05744">
        <ele>154.78</ele>
        <time>2020-02-20T14:23:58Z</time>
      </trkpt>
      <trkpt lat="48.74139" lon="2.05758">
        <ele>154.77</ele>
        <time>2020-02-20T14:24:11Z</time>
      </trkpt>
      <trkpt lat="48.74138" lon="2.05764">
        <ele>154.73</ele>
        <time>2020-02-20T14:24:15Z</time>
      </trkpt>
      <trkpt lat="48.74137" lon="2.05769">
        <ele>152.17</ele>
        <time>2020-02-20T14:24:19Z</time>
      </trkpt>
      <trkpt lat="48.74137" lon="2.05769">
        <ele>152.21</ele>
        <time>2020-02-20T14:24:26Z</time>
      </trkpt>
      <trkpt lat="48.74146" lon="2.05779">
        <ele>151.09</ele>
        <time>2020-02-20T14:24:37Z</time>
      </trkpt>
      <trkpt lat="48.74155" lon="2.05779">
        <ele>151.1</ele>
        <time>2020-02-20T14:24:46Z</time>
      </trkpt>
      <trkpt lat="48.74164" lon="2.05789">
        <ele>151.25</ele>
        <time>2020-02-20T14:24:56Z</time>
      </trkpt>
      <trkpt lat="48.7418" lon="2.05806">
        <ele>151.27</ele>
        <time>2020-02-20T14:25:12Z</time>
      </trkpt>
      <trkpt lat="48.74192" lon="2.05821">
        <ele>151.28</ele>
        <time>2020-02-20T14:25:25Z</time>
      </trkpt>
      <trkpt lat="48.74206" lon="2.0584">
        <ele>151.28</ele>
        <time>2020-02-20T14:25:41Z</time>
      </trkpt>
      <trkpt lat="48.74216" lon="2.05854">
        <ele>151.22</ele>
        <time>2020-02-20T14:25:53Z</time>
      </trkpt>
      <trkpt lat="48.74226" lon="2.05867">
        <ele>150.41</ele>
        <time>2020-02-20T14:26:05Z</time>
      </trkpt>
      <trkpt lat="48.74238" lon="2.05885">
        <ele>150.44</ele>
        <time>2020-02-20T14:26:20Z</time>
      </trkpt>
      <trkpt lat="48.7425" lon="2.05899">
        <ele>149.63</ele>
        <time>2020-02-20T14:26:34Z</time>
      </trkpt>
      <trkpt lat="48.74255" lon="2.05904">
        <ele>149.74</ele>
        <time>2020-02-20T14:26:42Z</time>
      </trkpt>
      <trkpt lat="48.74264" lon="2.05915">
        <ele>149.72</ele>
        <time>2020-02-20T14:26:52Z</time>
      </trkpt>
      <trkpt lat="48.74266" lon="2.05917">
        <ele>148.84</ele>
        <time>2020-02-20T14:26:57Z</time>
      </trkpt>
      <trkpt lat="48.74269" lon="2.05924">
        <ele>148.86</ele>
        <time>2020-02-20T14:27:02Z</time>
      </trkpt>
      <trkpt lat="48.74282" lon="2.05939">
        <ele>147.94</ele>
        <time>2020-02-20T14:27:16Z</time>
      </trkpt>
      <trkpt lat="48.7429" lon="2.05949">
        <ele>147.94</ele>
        <time>2020-02-20T14:27:25Z</time>
      </trkpt>
      <trkpt lat="48.74303" lon="2.05964">
        <ele>147.13</ele>
        <time>2020-02-20T14:27:38Z</time>
      </trkpt>
      <trkpt lat="48.74313" lon="2.05982">
        <ele>147.1</ele>
        <time>2020-02-20T14:27:52Z</time>
      </trkpt>
      <trkpt lat="48.74325" lon="2.06002">
        <ele>147.16</ele>
        <time>2020-02-20T14:28:07Z</time>
      </trkpt>
      <trkpt lat="48.74331" lon="2.06012">
        <ele>147.14</ele>
        <time>2020-02-20T14:28:15Z</time>
      </trkpt>
      <trkpt lat="48.74335" lon="2.06016">
        <ele>147.13</ele>
        <time>2020-02-20T14:28:19Z</time>
      </trkpt>
      <trkpt lat="48.74345" lon="2.06031">
        <ele>146.05</ele>
        <time>2020-02-20T14:28:31Z</time>
      </trkpt>
      <trkpt lat="48.74356" lon="2.06045">
        <ele>146.14</ele>
        <time>2020-02-20T14:28:44Z</time>
      </trkpt>
      <trkpt lat="48.74366" lon="2.06056">
        <ele>146.17</ele>
        <time>2020-02-20T14:28:55Z</time>
      </trkpt>
      <trkpt lat="48.74367" lon="2.06059">
        <ele>146.15</ele>
        <time>2020-02-20T14:29:03Z</time>
      </trkpt>
      <trkpt lat="48.7437" lon="2.06062">
        <ele>146.13</ele>
        <time>2020-02-20T14:29:13Z</time>
      </trkpt>
      <trkpt lat="48.74377" lon="2.06074">
        <ele>146.11</ele>
        <time>2020-02-20T14:29:22Z</time>
      </trkpt>
      <trkpt lat="48.74381" lon="2.06082">
        <ele>146.13</ele>
        <time>2020-02-20T14:29:28Z</time>
      </trkpt>
      <trkpt lat="48.74381" lon="2.06085">
        <ele>146.14</ele>
        <time>2020-02-20T14:29:30Z</time>
      </trkpt>
      <trkpt lat="48.74388" lon="2.06101">
        <ele>146.21</ele>
        <time>2020-02-20T14:29:42Z</time>
      </trkpt>
      <trkpt lat="48.74387" lon="2.06118">
        <ele>146.19</ele>
        <time>2020-02-20T14:29:52Z</time>
      </trkpt>
      <trkpt lat="48.74386" lon="2.06143">
        <ele>145.45</ele>
        <time>2020-02-20T14:30:07Z</time>
      </trkpt>
      <trkpt lat="48.74382" lon="2.06168">
        <ele>144.54</ele>
        <time>2020-02-20T14:30:22Z</time>
      </trkpt>
      <trkpt lat="48.74376" lon="2.06183">
        <ele>144.54</ele>
        <time>2020-02-20T14:30:33Z</time>
      </trkpt>
      <trkpt lat="48.7437" lon="2.06194">
        <ele>144.59</ele>
        <time>2020-02-20T14:30:42Z</time>
      </trkpt>
      <trkpt lat="48.74361" lon="2.06197">
        <ele>144.59</ele>
        <time>2020-02-20T14:30:51Z</time>
      </trkpt>
      <trkpt lat="48.74359" lon="2.06197">
        <ele>143.1</ele>
        <time>2020-02-20T14:30:54Z</time>
      </trkpt>
      <trkpt lat="48.74352" lon="2.06193">
        <ele>145.37</ele>
        <time>2020-02-20T14:31:04Z</time>
      </trkpt>
      <trkpt lat="48.7435" lon="2.06193">
        <ele>145.3</ele>
        <time>2020-02-20T14:31:14Z</time>
      </trkpt>
      <trkpt lat="48.7435" lon="2.06193">
        <ele>115.8</ele>
        <time>2020-02-20T14:31:17Z</time>
      </trkpt>
    </trkseg>
  </trk>
</gpx>